GFSMA_prec_cloud_003.txt.gz
Cloud_Cover
4 9 5 45 100 100 100 100 100 100 100 100 100 100 100 100 100 86 41 53 97 100 100 100 100 100 59 99 100 100 97 100 51 31 40 100 100 96 100 100 100 100 100
0 5 57 100 100 100 100 100 100 100 100 100 100 100 100 100 100 100 97 99 78 100 100 100 100 100 98 98 49 100 100 96 5 34 11 79 100 100 100 44 83 100 100
0 5 48 26 98 100 100 100 92 100 100 100 100 100 100 100 100 100 100 98 100 100 100 100 100 100 83 94 57 75 100 99 41 18 73 98 80 100 100 96 83 100 15
0 4 66 100 52 100 100 100 100 100 100 100 100 100 100 100 100 100 100 100 94 91 73 100 100 100 100 96 100 100 98 100 100 100 100 100 86 81 74 83 100 100 100
0 0 42 100 79 48 100 100 100 100 100 100 100 100 100 100 100 100 100 100 100 83 80 27 100 100 100 100 100 100 100 100 98 91 100 100 100 48 98 52 79 3 12
0 0 5 99 100 92 40 98 100 100 100 100 100 100 100 100 100 100 100 100 100 100 100 59 77 100 100 100 100 100 100 97 81 93 100 100 100 99 84 5 34 0 1
0 0 0 2 97 100 100 49 98 100 100 100 100 100 100 100 100 100 100 100 100 100 97 100 91 95 94 96 100 94 91 100 100 89 21 24 100 100 100 24 0 5 26
3 4 0 0 2 94 100 100 91 100 100 100 100 100 100 100 100 100 100 100 100 100 76 100 97 57 78 100 100 100 99 73 100 80 90 9 100 100 100 60 0 5 5
74 6 5 5 5 5 86 100 100 47 100 100 100 100 100 100 100 100 100 100 100 100 89 98 100 98 35 97 100 100 100 100 100 99 100 43 40 100 100 98 32 5 5
100 81 100 95 77 13 7 46 99 35 15 43 100 100 100 100 100 100 100 100 100 100 100 100 100 96 98 24 94 100 100 100 100 100 100 6 5 9 2 59 27 27 93
100 100 100 100 94 100 99 84 85 98 88 67 90 100 100 100 100 100 100 100 100 100 98 100 100 100 64 100 50 100 100 100 100 90 100 5 5 5 3 0 4 5 5
100 100 100 100 100 100 100 76 89 93 87 100 95 77 72 97 100 100 100 100 100 100 100 100 96 100 100 90 93 82 100 100 100 100 100 32 5 6 4 11 23 5 5
100 100 100 100 100 100 92 100 86 30 83 100 100 100 94 27 74 89 97 76 47 98 97 100 100 100 63 100 99 100 100 100 100 100 100 85 92 42 73 5 5 5 5
100 100 100 100 100 100 100 87 68 75 16 100 100 100 99 100 100 33 12 68 16 53 62 16 100 100 100 91 56 96 100 100 100 100 100 100 100 67 54 97 76 5 5
97 84 92 100 100 100 100 100 55 5 91 44 99 100 100 100 100 92 5 25 95 57 6 87 8 64 35 95 100 100 100 100 100 100 100 100 100 100 76 100 100 93 34
100 100 97 100 100 100 100 100 80 17 14 71 45 99 97 19 30 46 6 5 62 87 8 5 5 4 52 95 100 100 100 100 100 100 100 100 100 100 100 100 100 100 100
92 74 82 97 93 90 93 94 100 100 80 5 5 5 5 4 2 0 0 4 78 93 49 3 42 38 5 32 96 100 100 100 100 100 100 100 100 100 100 100 32 100 100
92 99 83 72 97 81 8 6 6 5 5 5 5 5 5 3 4 0 0 5 5 61 99 5 3 5 98 36 48 5 97 100 100 100 100 100 100 100 100 100 100 100 100
74 65 45 21 5 4 4 5 5 5 13 5 5 62 67 63 7 5 0 5 5 5 5 5 0 1 44 90 100 27 5 62 100 100 100 100 100 100 100 100 100 100 100
59 22 5 5 5 3 5 5 5 38 71 100 100 100 92 75 30 6 62 36 5 35 14 5 5 5 4 0 13 34 77 100 100 100 100 100 100 100 100 100 100 100 100
89 23 5 5 1 5 5 5 12 82 97 100 100 100 100 100 100 100 100 91 81 67 12 5 5 5 5 63 45 10 41 100 100 100 100 100 100 100 100 100 100 100 100
5 5 5 4 5 5 5 5 5 96 100 100 100 100 100 100 100 100 99 95 100 78 98 100 28 64 5 0 85 75 98 92 100 99 100 100 100 100 100 100 100 100 100
5 4 5 5 5 63 36 72 5 92 100 100 100 100 100 100 100 100 100 97 97 92 85 97 81 92 73 5 12 86 72 15 88 99 100 100 100 100 100 100 100 100 100
1 5 5 21 80 97 72 11 78 100 100 100 100 100 100 100 94 100 100 100 100 94 92 95 68 67 67 10 99 100 100 100 60 100 100 100 100 100 100 100 100 100 100
2 5 17 92 99 82 86 9 78 100 100 100 100 100 100 100 100 100 100 100 100 100 100 93 39 44 91 99 5 91 92 100 100 100 100 100 100 100 100 100 100 100 100
5 8 94 97 100 90 52 85 100 100 100 100 100 100 100 95 99 100 100 100 100 92 100 100 100 75 71 100 52 100 98 100 79 100 100 100 100 100 100 100 100 100 100

GFSMA_prec_cloud_006.txt.gz
Cloud_Cover
0 0 0 0 0 9 13 3 10 100 100 100 100 100 100 100 100 100 100 100 100 100 95 67 13 91 38 55 91 100 100 100 75 5 6 6 70 100 89 90 100 100 100
0 2 0 0 0 0 1 17 34 83 100 100 100 100 100 100 100 100 100 100 100 100 100 100 80 14 24 60 98 31 100 100 100 97 85 64 100 94 72 88 95 91 100
1 0 0 0 0 0 0 1 5 5 100 100 100 100 100 100 100 100 100 100 100 100 100 100 86 50 57 92 85 70 50 100 18 100 100 100 93 37 5 8 80 100 96
100 34 15 0 0 0 0 0 3 5 99 100 100 100 100 100 100 100 100 100 100 100 100 100 97 18 5 90 100 100 90 90 52 45 100 100 41 10 21 20 31 100 100
100 100 100 99 66 1 0 0 0 5 5 98 100 100 100 100 100 100 100 100 100 100 95 100 100 96 69 21 100 18 100 100 100 100 97 97 66 100 89 61 100 100 100
100 100 100 100 94 9 5 1 0 3 59 7 99 100 100 100 100 100 100 100 100 100 100 100 100 98 100 98 61 99 100 100 99 100 57 31 100 100 100 100 100 100 100
99 100 100 100 100 72 45 5 0 0 5 49 5 100 100 100 100 100 100 100 100 100 100 100 100 96 100 100 100 100 54 100 93 100 100 99 100 81 100 100 100 100 100
38 5 70 100 100 25 70 5 5 3 4 3 14 89 100 100 100 100 100 100 100 100 100 91 100 100 100 100 100 100 100 100 100 100 100 100 100 19 89 100 100 100 99
5 8 39 8 14 8 38 99 100 50 5 5 5 3 65 100 100 100 100 100 100 100 100 100 100 99 99 98 94 99 100 100 100 100 100 100 95 100 10 99 50 37 100
50 38 30 52 95 56 93 100 100 100 100 25 5 5 5 7 100 99 100 100 100 100 100 100 100 100 100 85 94 97 100 100 100 100 100 100 92 87 40 68 24 89 29
100 77 26 87 98 98 21 53 74 96 100 100 78 21 5 5 5 29 100 100 100 100 100 100 100 100 100 100 100 13 64 99 100 100 100 100 100 100 82 78 100 29 38
100 100 100 96 98 100 98 64 66 100 100 92 100 100 72 74 25 26 7 94 100 100 100 100 100 100 100 100 100 99 73 100 100 100 100 100 100 100 99 100 100 100 71
100 100 100 100 100 98 100 100 100 100 100 100 100 90 70 80 5 18 5 4 39 100 100 100 100 100 100 100 100 100 62 100 100 100 100 100 100 100 100 100 100 99 82
100 100 100 100 100 100 100 100 100 100 99 100 100 100 100 100 99 50 5 5 4 17 100 100 100 100 100 8 85 100 100 100 98 24 100 100 100 100 100 100 100 80 100
100 100 100 100 100 100 100 100 100 100 100 100 100 100 100 100 100 100 96 24 5 3 22 100 100 100 100 100 82 97 98 100 91 93 100 100 100 100 100 100 90 99 98
100 100 100 100 100 100 100 100 90 59 67 100 100 100 100 100 100 100 100 100 91 23 57 96 100 100 73 56 100 100 100 100 100 85 100 100 100 100 100 100 100 90 100
100 100 100 100 100 100 100 90 79 42 24 50 82 94 100 100 100 100 100 100 100 85 67 5 9 56 100 24 64 100 100 100 100 100 100 100 100 100 100 100 100 99 97
100 100 100 100 100 100 100 47 29 38 5 5 5 5 5 8 20 58 94 27 51 14 5 5 5 5 6 89 5 2 86 100 100 100 100 100 100 100 100 100 100 100 100
100 100 100 100 100 100 100 92 15 5 5 3 3 2 5 5 5 2 5 5 5 8 5 76 5 5 3 5 16 5 0 21 97 100 100 100 100 100 100 100 100 100 100
100 100 100 100 100 100 54 10 3 5 6 5 10 5 32 59 93 55 5 5 31 74 85 86 18 5 5 5 5 4 0 0 0 4 42 100 100 100 100 100 100 100 100
100 100 100 100 100 16 5 4 5 5 5 5 5 5 5 5 5 5 11 11 7 37 90 100 70 38 66 12 5 5 5 0 24 0 4 70 100 100 100 100 100 100 100
100 100 100 59 5 2 2 5 5 5 5 5 16 36 5 5 33 32 24 21 8 38 86 100 100 100 87 94 28 5 5 45 5 50 92 35 92 100 100 100 100 100 100
100 100 41 3 0 2 5 5 6 11 53 6 6 62 90 90 94 97 80 88 100 98 89 96 35 69 99 89 86 90 74 5 11 78 100 99 75 100 100 100 100 100 100
100 12 2 0 3 5 5 5 5 19 14 21 18 59 86 53 79 93 94 99 87 82 100 99 49 87 69 99 100 100 100 85 54 96 86 32 51 100 100 100 100 100 100
6 0 2 0 5 5 5 5 18 81 100 87 56 63 79 90 100 100 100 100 96 94 100 100 99 85 100 100 100 100 100 99 100 100 100 93 67 91 100 100 100 100 100
0 0 0 31 5 14 5 5 94 100 100 100 99 100 100 100 100 100 100 100 100 85 90 100 100 100 100 100 100 100 86 100 100 100 99 100 60 69 100 100 100 100 100

GFSMA_prec_cloud_009.txt.gz
Cloud_Cover
76 26 3 1 2 1 2 10 35 18 83 90 86 100 100 100 100 100 100 100 100 100 100 97 100 100 100 68 86 7 19 96 53 100 100 100 100 96 9 4 6 9 5
10 11 5 5 4 2 5 5 2 4 15 97 100 68 99 100 100 100 100 100 100 100 100 100 100 100 100 100 76 97 80 37 100 100 100 100 100 100 96 40 11 13 14
1 5 56 100 10 99 98 86 93 4 1 3 74 100 100 100 100 100 100 100 100 100 100 100 100 100 100 74 98 68 20 100 82 100 96 100 100 100 100 96 6 100 100
5 5 4 50 58 5 27 88 100 73 16 5 1 16 91 100 100 100 100 100 100 100 100 100 100 100 100 100 100 100 81 100 100 98 99 100 100 100 91 34 11 70 97
9 5 5 5 5 5 6 59 29 100 84 92 6 1 0 68 100 100 100 100 100 100 100 100 100 100 100 100 100 100 65 100 100 100 100 99 100 98 94 100 98 99 100
41 88 32 5 5 3 4 2 4 41 5 7 10 5 0 0 12 100 100 100 100 100 100 100 100 100 100 100 100 100 100 100 100 100 77 100 80 96 46 85 72 100 100
15 100 90 12 5 5 5 5 5 5 5 5 5 6 20 6 0 18 79 100 100 100 100 100 100 100 100 100 100 100 100 100 95 97 100 100 100 99 100 100 38 40 86
69 100 100 96 55 73 11 5 5 5 5 5 5 5 13 100 82 4 5 81 100 100 100 100 100 100 100 100 100 100 100 100 98 99 100 100 68 100 98 99 100 90 100
84 99 100 100 100 99 98 5 5 5 5 5 5 40 8 26 100 95 5 4 100 100 100 100 100 100 100 100 100 100 100 93 96 84 100 96 100 100 80 21 77 100 100
100 88 98 95 100 100 99 93 100 66 60 7 5 51 6 42 100 100 100 21 5 93 100 100 100 100 100 100 100 100 100 100 93 100 100 100 100 100 100 100 98 98 92
100 100 100 100 100 100 99 88 57 30 100 100 76 24 56 94 100 100 100 100 76 58 55 100 100 100 100 100 100 100 100 100 99 100 100 100 100 100 100 100 100 76 35
96 100 100 100 100 100 100 100 100 100 100 72 67 100 65 87 100 100 100 100 100 95 99 67 100 100 100 100 100 100 100 100 100 100 100 100 100 100 100 100 100 100 100
100 100 100 100 100 100 100 100 100 100 100 100 92 95 100 74 79 100 100 100 100 100 99 100 71 99 100 100 100 100 100 100 100 100 100 100 100 100 100 100 100 100 100
100 100 100 100 100 100 100 100 100 100 100 100 63 49 34 58 96 49 100 100 100 100 100 100 100 93 84 100 100 100 100 100 100 100 99 100 100 100 100 100 100 100 100
100 100 100 100 100 100 100 100 100 100 100 100 100 100 100 92 100 89 87 97 100 100 100 100 100 100 100 94 100 100 100 100 100 100 99 100 100 100 100 99 100 100 100
100 100 100 100 100 100 100 100 100 100 100 100 100 100 100 100 100 100 100 100 79 92 100 100 100 100 100 100 100 98 100 100 100 100 100 88 91 100 100 100 100 100 100
100 100 100 100 100 100 100 100 100 100 99 83 63 43 36 28 67 100 100 88 72 26 8 98 100 100 100 100 100 100 100 100 100 100 100 100 100 94 100 100 100 100 100
100 100 100 100 100 100 100 100 100 93 47 99 100 100 100 100 63 12 61 84 98 23 5 5 38 100 100 100 100 100 100 100 95 100 100 100 100 100 100 100 100 100 100
100 100 100 100 100 100 100 100 100 100 100 100 100 44 40 8 5 4 5 5 5 10 5 5 26 59 75 100 100 100 100 100 96 97 98 100 100 100 100 100 100 100 100
92 99 100 100 100 100 100 100 100 100 70 5 5 29 17 5 5 5 5 5 5 5 24 18 5 16 83 46 12 5 7 64 100 59 100 88 100 100 100 100 100 100 100
72 95 94 79 91 100 100 100 42 5 5 5 5 2 4 5 5 6 5 5 5 67 91 100 95 93 99 100 77 79 91 45 5 88 12 95 83 96 100 100 100 100 100
84 88 94 100 100 100 82 5 5 5 5 5 5 5 5 5 5 5 5 12 11 92 100 100 100 100 100 100 100 100 100 98 11 49 58 32 100 98 10 100 100 100 100
100 100 100 100 90 1 3 5 5 3 5 5 5 5 5 5 5 5 5 31 72 96 90 87 100 100 100 94 87 80 59 100 100 24 89 97 59 99 34 18 25 96 100
100 100 100 20 0 5 3 3 3 5 22 5 9 5 22 33 70 88 95 76 58 90 95 67 60 64 63 46 23 69 5 39 99 100 100 99 59 45 36 36 25 93 98
100 100 9 0 5 5 5 5 46 99 74 59 77 65 76 100 100 99 100 100 90 66 96 100 60 26 10 64 100 100 100 99 61 16 100 100 99 62 41 30 25 46 96
88 5 1 5 15 16 5 5 61 100 88 54 100 100 100 100 100 100 100 100 100 100 100 72 64 57 49 99 100 100 100 100 100 86 23 98 98 95 96 76 38 39 82

GFSMA_prec_cloud_012.txt.gz
Cloud_Cover
3 5 4 4 0 0 1 2 50 78 19 17 43 89 47 46 100 100 100 100 100 100 100 100 98 100 99 100 100 100 99 31 77 7 26 17 5 5 6 87 76 100 100
91 97 85 42 10 10 75 19 3 0 0 1 1 3 24 25 100 100 100 100 100 100 100 100 100 100 100 100 100 100 100 99 92 88 97 100 94 7 5 38 41 100 100
87 77 53 5 5 32 23 9 5 15 5 5 5 0 4 1 42 100 100 100 100 100 100 100 100 100 100 100 100 100 100 100 100 89 90 100 97 84 96 94 36 100 100
38 100 34 15 40 69 50 13 18 5 0 0 9 51 5 5 7 94 100 100 100 100 100 100 100 100 100 100 100 100 100 100 100 100 89 97 94 75 98 85 100 97 100
99 94 71 10 38 95 47 24 7 5 5 2 1 0 0 1 57 66 28 98 100 100 100 100 100 100 100 100 100 100 100 100 100 100 80 96 84 10 98 96 100 100 100
31 5 97 100 100 100 99 47 8 5 5 5 5 5 3 1 5 19 68 77 19 96 100 100 100 100 100 100 100 100 100 100 100 100 100 100 19 6 99 100 100 100 100
5 5 5 66 88 96 19 18 5 32 11 34 5 5 5 5 5 4 5 38 99 11 73 100 100 100 100 100 100 100 100 100 99 83 100 89 100 25 99 100 100 100 82
5 49 14 5 5 72 83 21 5 38 16 5 11 5 5 13 5 11 5 6 5 30 18 91 100 100 100 100 100 100 100 100 100 100 100 100 100 100 100 100 100 100 100
14 32 76 66 87 98 95 58 81 100 100 100 74 43 8 4 5 24 6 21 5 12 7 97 94 100 100 100 100 100 100 100 100 100 100 100 100 100 100 100 96 100 100
5 5 43 99 100 100 100 93 81 100 100 100 42 100 88 64 5 18 59 98 74 64 98 92 100 92 100 100 100 100 100 100 100 100 100 100 100 100 100 100 100 100 100
5 5 10 79 89 86 90 100 100 100 100 74 39 70 86 80 68 5 46 81 100 93 100 100 100 100 62 100 100 100 100 100 100 100 100 100 100 100 100 100 100 100 100
22 65 99 100 99 74 76 100 100 100 100 100 89 74 13 93 84 21 1 2 36 100 90 100 100 100 100 40 100 100 100 100 100 100 100 100 100 100 100 100 100 100 100
91 100 100 100 100 100 100 100 99 76 100 100 100 46 66 75 53 7 7 43 4 40 100 100 100 100 100 100 84 100 100 100 100 100 100 100 100 100 100 100 100 100 100
93 75 100 100 100 100 100 100 98 100 100 100 100 100 100 78 100 100 74 12 5 5 73 100 100 100 100 100 100 94 100 100 100 100 100 100 100 100 100 100 100 100 100
100 100 100 100 100 100 100 100 100 100 100 100 100 100 100 100 100 100 100 85 5 7 7 100 100 100 100 100 100 100 91 100 100 100 100 100 100 100 100 100 100 100 100
100 100 100 100 100 100 100 100 100 100 100 100 100 100 100 100 100 100 100 93 10 5 5 100 100 100 100 100 100 100 100 100 99 100 100 100 100 100 100 100 100 100 100
100 100 100 100 100 100 100 100 100 100 100 100 100 100 100 100 99 86 76 86 100 47 5 5 100 100 100 100 100 100 100 100 98 100 100 100 100 100 100 100 100 100 100
95 100 100 100 100 100 100 100 100 100 100 100 100 100 96 99 98 94 50 48 96 100 33 5 5 92 100 100 100 100 100 100 100 100 96 100 100 100 100 100 100 100 100
100 100 100 100 100 100 100 100 100 100 100 100 100 100 100 100 100 100 87 5 5 5 5 5 41 42 99 100 100 100 100 100 96 100 100 94 100 100 100 100 100 100 100
100 100 100 100 100 100 100 100 100 100 100 100 92 54 20 5 5 5 5 5 5 5 5 5 23 91 94 100 100 100 100 100 100 100 100 100 83 99 100 100 100 100 100
100 98 98 78 40 48 98 100 100 99 37 5 5 2 3 1 5 5 5 5 15 5 13 13 42 97 100 100 100 99 100 100 100 99 85 100 100 78 78 100 100 100 100
100 100 100 100 100 100 100 57 7 5 5 5 4 5 5 5 5 5 5 5 5 42 82 100 100 100 96 100 99 92 70 100 100 100 97 41 96 100 100 74 100 100 100
100 100 100 100 100 100 94 5 4 3 5 5 5 5 6 5 5 17 12 7 5 16 18 55 100 99 100 100 98 92 99 98 62 100 100 100 99 100 49 12 5 78 100
100 100 100 100 98 39 3 5 5 5 5 5 6 29 89 100 100 100 100 100 100 96 56 52 92 100 98 90 93 82 99 87 54 5 69 100 100 100 90 22 9 13 60
100 100 98 45 6 5 5 5 5 5 5 58 18 9 48 96 49 93 98 100 100 98 66 13 12 89 100 100 84 99 100 100 98 36 10 89 95 87 65 100 21 5 7
86 53 5 5 5 5 5 5 19 99 93 62 84 77 82 83 76 100 100 100 100 99 100 86 77 95 97 94 100 100 100 100 100 100 5 46 93 89 39 63 64 30 40

GFSMA_prec_cloud_015.txt.gz
Cloud_Cover
64 66 88 100 100 100 100 100 93 49 29 1 2 4 14 20 45 100 100 100 100 100 100 100 100 99 90 100 100 100 82 100 100 100 98 59 92 100 92 10 4 5 80
16 39 68 100 98 88 83 66 74 92 100 100 76 2 4 17 5 16 100 100 100 100 100 100 100 100 100 100 100 100 100 100 100 100 100 100 100 97 76 61 22 51 100
5 5 5 5 7 12 34 17 60 33 5 8 37 33 79 3 6 5 5 30 100 100 100 100 100 100 100 100 100 100 100 100 100 100 100 100 100 98 11 45 96 47 100
5 5 5 5 5 5 5 5 5 5 5 5 5 1 4 14 12 3 1 4 5 45 100 100 100 100 100 100 100 100 100 100 100 100 100 100 100 51 19 29 100 100 100
5 5 5 5 5 5 13 21 24 14 2 1 2 3 1 2 4 4 5 0 0 0 2 35 66 100 100 100 100 100 100 100 100 100 100 91 93 83 92 62 94 100 100
7 5 5 5 5 17 49 85 62 8 3 5 2 0 1 3 0 0 0 0 0 0 0 0 4 5 72 100 100 100 100 100 100 100 100 100 100 100 100 100 98 98 100
5 5 5 5 5 5 5 5 5 4 5 5 3 5 5 5 5 5 5 5 5 0 0 0 0 0 4 2 100 100 100 100 100 100 100 100 100 100 100 100 100 100 34
58 50 14 5 5 5 5 5 5 5 5 5 4 1 4 2 5 17 5 5 10 4 0 0 4 4 1 5 85 100 100 100 100 100 100 100 100 100 100 100 100 100 100
5 5 5 5 5 6 5 5 5 51 82 91 87 71 33 27 9 38 82 94 50 4 0 0 6 33 5 0 18 100 100 100 100 100 100 100 100 100 100 100 100 100 100
76 61 5 41 91 90 83 69 7 5 18 63 87 100 100 100 100 76 100 20 5 5 5 0 6 76 17 5 4 100 100 100 100 100 100 100 100 100 100 100 100 100 100
5 5 6 80 95 100 100 96 82 45 80 96 92 100 100 100 100 77 5 97 71 33 55 59 6 5 17 5 70 17 100 100 100 100 100 100 100 100 100 100 100 100 100
4 2 5 5 67 100 90 100 88 100 98 100 89 100 100 99 65 97 100 7 14 6 85 100 100 78 6 5 42 100 68 100 100 100 100 100 100 100 100 100 100 100 100
0 0 2 5 39 100 100 75 91 100 100 100 100 100 100 100 100 100 57 5 0 6 84 100 100 100 96 5 4 52 100 100 100 100 100 100 100 100 100 100 100 100 100
0 0 0 3 84 100 98 100 100 100 100 100 100 100 92 100 100 100 87 15 3 3 4 37 100 100 100 96 3 5 84 100 100 100 100 100 100 100 100 100 100 100 100
0 1 5 5 71 84 100 100 100 100 100 100 100 100 100 100 62 59 86 70 11 3 5 98 100 100 100 63 20 1 12 100 100 100 100 100 100 100 100 100 100 100 100
5 5 25 100 100 100 100 100 100 100 100 100 100 100 96 50 80 91 66 75 57 5 4 5 99 100 100 100 60 6 31 100 100 100 100 100 100 100 100 100 100 100 100
5 86 92 96 100 100 100 100 100 100 100 100 100 100 100 100 81 76 88 79 42 22 5 4 6 100 100 73 88 61 8 100 100 100 100 100 100 100 100 100 100 100 100
98 100 96 77 100 100 100 100 100 100 100 100 100 100 100 100 100 99 72 14 6 5 5 5 5 33 100 100 100 85 92 100 100 100 100 100 100 100 100 100 100 100 100
100 100 96 80 89 99 99 100 90 71 97 97 100 100 100 100 100 100 100 99 76 5 5 5 33 47 97 100 100 83 96 94 100 100 100 100 100 100 100 100 100 100 100
100 100 100 100 100 100 100 100 100 100 97 99 100 100 100 90 41 9 5 3 5 5 5 5 5 47 70 96 100 100 63 100 100 100 100 100 100 100 100 100 100 100 100
100 100 100 100 100 100 100 74 47 47 96 100 100 32 4 3 5 5 36 46 88 98 100 99 100 100 100 99 83 87 42 31 100 100 100 100 100 100 66 100 100 100 100
100 100 100 100 100 100 100 100 67 96 84 8 5 5 5 5 5 5 5 5 5 92 100 100 100 100 100 100 99 97 61 6 65 100 100 100 100 100 100 85 86 100 100
100 100 100 100 100 100 100 100 92 5 5 5 5 7 15 50 83 98 84 99 89 86 93 100 100 97 79 46 28 85 99 63 20 94 93 63 86 90 100 69 99 78 100
100 100 100 100 100 100 100 82 9 5 5 5 5 6 84 69 73 73 100 100 67 45 78 85 97 99 75 66 86 68 46 66 20 30 83 82 96 45 86 100 89 62 84
100 100 100 100 100 100 99 11 5 5 5 5 11 18 74 97 61 82 100 100 100 100 92 100 98 88 78 74 67 92 100 100 98 68 5 19 78 97 50 98 100 100 100
100 100 100 100 100 93 80 5 5 75 96 99 82 90 100 99 77 79 100 100 100 100 99 100 100 100 96 85 85 100 98 100 100 90 5 12 6 31 66 74 38 81 100

GFSMA_prec_cloud_018.txt.gz
Cloud_Cover
6 10 19 14 16 30 41 11 15 34 42 96 100 100 87 13 5 5 5 0 5 47 100 100 100 100 86 100 100 100 100 100 100 100 100 100 100 100 81 45 98 89 100
5 5 14 6 37 24 8 29 8 69 98 68 94 77 87 79 7 50 5 1 3 17 91 100 100 100 100 89 98 80 100 100 100 100 100 100 100 100 100 100 95 100 100
32 5 7 5 5 5 5 5 5 5 5 10 83 100 93 34 38 5 26 7 4 3 25 100 100 100 100 100 100 100 100 100 100 100 100 100 100 100 100 100 99 100 100
5 5 5 5 5 5 5 5 5 5 5 5 4 4 5 7 18 67 48 16 5 5 5 42 100 100 100 100 100 100 100 85 100 100 100 100 100 100 100 100 100 100 93
0 3 5 5 6 5 5 5 5 5 5 3 4 5 5 5 5 5 5 5 12 5 1 4 20 100 100 100 100 100 100 100 100 100 94 100 100 100 100 100 100 97 99
0 4 4 0 3 5 5 5 7 5 5 5 5 5 5 3 1 2 0 1 3 5 5 3 0 0 42 79 100 100 100 100 100 100 100 100 100 100 100 100 99 95 100
4 2 0 0 0 1 3 1 0 0 0 0 0 3 0 0 3 3 0 1 5 0 4 5 5 5 0 0 4 28 100 100 100 100 100 100 100 100 100 100 100 100 100
3 4 5 5 6 5 5 5 5 5 4 1 0 0 0 4 7 10 5 5 5 4 2 3 5 5 2 0 5 0 3 5 91 100 100 100 100 100 100 100 100 100 100
8 2 26 35 46 30 18 5 5 5 5 5 42 40 21 19 68 42 6 5 35 100 100 100 79 44 5 15 5 4 0 0 0 18 92 100 100 100 100 100 100 100 100
0 0 0 0 0 4 5 18 91 95 90 5 5 99 100 97 98 100 100 100 90 12 11 10 97 100 78 24 24 5 2 0 0 5 0 40 100 100 100 100 100 100 100
0 0 0 0 0 4 4 49 99 100 100 100 68 81 74 100 100 99 97 100 100 100 100 100 45 67 100 100 91 5 5 0 0 0 5 0 49 100 100 100 100 100 100
0 0 0 0 0 0 0 5 50 100 100 100 92 100 86 97 58 100 76 90 100 100 100 100 100 100 87 98 5 33 6 0 0 0 5 4 0 97 100 100 100 100 100
0 0 0 0 0 0 0 0 5 91 87 100 100 100 100 100 100 100 100 55 73 79 100 100 100 100 41 5 5 5 7 5 0 0 5 39 7 72 100 100 100 100 100
5 28 0 0 1 2 5 35 94 100 100 100 100 100 100 100 100 100 100 100 65 8 4 8 90 100 100 99 6 5 5 5 2 0 1 59 55 24 100 100 100 100 100
19 14 12 5 5 24 60 100 100 100 100 100 100 100 100 100 100 100 100 100 99 5 0 0 0 0 4 6 27 32 6 52 6 0 0 5 66 97 100 100 100 100 100
99 100 24 27 37 88 98 100 100 100 100 100 100 100 100 100 100 100 100 100 83 9 5 0 0 3 4 4 8 88 87 35 99 8 0 4 5 15 100 100 100 100 100
80 17 77 100 75 100 74 67 100 100 100 100 100 100 100 100 100 100 100 99 18 5 4 1 0 1 11 16 6 69 100 82 9 8 0 0 48 90 74 100 100 100 100
84 100 99 100 100 100 100 100 100 100 100 100 100 100 100 100 100 100 100 62 5 5 5 5 5 5 4 38 33 87 100 100 42 5 1 0 0 81 100 100 100 100 100
89 100 100 100 100 100 100 100 100 100 100 100 100 100 100 100 95 98 67 34 19 5 5 5 5 5 5 5 85 100 100 100 100 75 96 4 0 0 30 100 100 100 100
100 100 100 100 100 100 100 100 100 100 100 100 100 100 100 100 91 61 22 9 5 5 8 65 56 62 77 25 20 76 100 100 100 62 87 88 4 0 3 23 100 100 100
100 98 100 100 100 100 100 100 96 60 29 45 98 86 42 5 5 6 76 94 95 99 96 100 96 98 86 100 92 5 22 100 100 100 44 60 5 3 5 5 96 100 100
100 100 100 100 100 100 100 100 100 100 100 100 100 100 12 5 5 5 49 78 85 100 100 100 100 95 100 100 100 91 13 5 64 100 100 80 12 5 5 22 98 100 100
100 100 100 100 100 100 100 100 100 100 77 100 97 10 5 5 68 85 79 94 100 100 100 100 100 100 99 98 96 100 67 20 11 39 69 100 84 100 97 77 100 100 100
100 95 100 100 100 100 100 100 100 100 100 100 12 5 18 56 100 100 100 100 94 73 83 99 91 79 69 77 100 96 76 63 53 7 5 94 100 93 31 38 96 100 100
100 100 100 100 100 100 78 64 50 100 100 88 14 91 94 100 100 100 97 99 100 100 100 69 79 85 89 84 100 100 100 100 100 72 5 48 66 69 96 5 56 100 100
76 96 82 51 36 25 26 39 88 92 88 86 100 100 88 97 99 100 100 100 100 100 100 100 100 99 99 89 90 100 100 100 100 100 67 44 9 5 7 73 5 70 100

GFSMA_prec_cloud_024.txt.gz
Cloud_Cover
0 0 0 0 0 0 0 4 4 5 0 0 0 0 0 0 0 0 1 1 2 0 0 0 0 0 4 21 100 100 100 100 100 100 100 100 100 100 100 100 100 100 100
0 0 0 0 0 0 0 0 0 0 0 1 0 0 0 0 0 0 0 0 0 0 0 2 0 0 2 100 100 100 100 100 100 100 100 100 100 100 100 100 100 100 100
0 0 0 0 0 0 0 0 0 0 1 5 4 5 3 0 0 0 2 5 1 0 0 0 0 0 0 5 100 100 100 100 100 100 100 100 100 100 100 100 100 100 100
5 5 5 5 2 0 0 3 3 5 4 5 5 5 5 4 0 0 0 1 5 0 3 0 0 0 0 0 4 71 34 95 100 100 100 100 100 100 100 100 100 100 100
42 6 5 4 4 5 5 5 5 5 2 1 3 5 5 5 5 2 1 1 0 2 5 3 4 0 2 2 5 18 99 95 100 100 100 100 100 100 100 100 100 100 100
7 5 3 0 0 4 6 16 53 22 13 5 5 5 1 3 1 1 0 0 0 0 0 3 5 1 0 0 0 5 7 60 97 100 100 100 100 100 100 100 100 100 100
5 3 3 5 5 14 70 34 11 17 5 5 3 0 0 4 0 0 0 0 0 0 0 0 0 4 4 0 0 0 5 5 72 100 100 100 100 100 100 100 100 100 100
24 8 5 15 39 9 23 32 5 2 0 0 0 4 5 6 26 2 1 0 0 0 0 5 0 0 1 5 3 2 0 1 1 67 100 100 100 100 100 100 100 100 100
72 9 5 5 4 5 5 5 5 5 1 2 41 44 10 76 94 97 20 3 0 0 0 5 4 4 0 0 1 4 5 5 5 3 49 100 100 100 99 100 100 100 100
42 45 46 8 5 4 3 6 23 62 88 91 86 66 65 5 81 100 99 23 5 5 3 0 5 5 5 3 0 0 4 5 5 5 5 5 93 100 100 100 100 100 100
33 83 71 5 7 5 5 5 5 5 5 12 50 98 100 100 100 100 100 100 100 26 5 5 5 73 36 5 5 2 5 5 5 5 5 5 5 17 100 100 100 80 99
5 26 45 40 78 17 5 13 31 60 71 100 100 100 100 93 98 100 100 98 100 100 81 51 63 11 83 54 5 5 5 4 66 19 5 49 5 1 49 60 100 100 100
100 100 100 77 96 79 95 96 100 86 98 100 100 100 100 100 100 100 100 100 100 92 98 100 100 99 19 30 43 18 5 4 1 85 81 11 5 5 4 1 44 100 100
100 97 74 64 92 99 100 100 100 100 100 100 100 100 100 100 100 100 100 100 100 100 100 100 100 100 92 96 99 30 42 4 0 0 3 100 92 5 5 5 1 1 94
65 46 100 100 100 100 100 99 100 100 98 100 100 99 100 100 100 98 100 100 100 100 100 100 100 100 98 94 95 82 61 13 5 0 0 0 2 5 5 5 5 3 0
73 100 100 100 100 100 100 100 100 100 100 100 94 98 100 100 100 100 100 100 100 100 100 100 100 100 100 78 48 5 22 54 3 0 0 0 0 0 1 0 5 85 16
100 100 100 100 100 100 96 100 100 100 100 100 100 100 100 100 100 100 100 100 100 100 100 99 100 100 100 88 94 79 8 5 5 5 5 0 0 0 0 0 0 0 11
100 98 100 100 100 90 100 100 100 100 100 100 100 100 100 100 100 100 100 100 100 100 100 99 100 100 100 100 100 100 85 15 8 2 4 0 0 0 0 0 0 4 0
92 80 81 100 88 62 96 94 98 94 97 100 100 100 100 100 100 100 100 100 100 85 60 35 46 37 5 5 5 5 5 5 5 5 5 0 3 0 0 0 0 0 0
100 100 96 83 74 48 75 99 100 100 98 92 91 86 98 97 100 100 100 100 100 99 75 99 76 36 80 83 93 96 92 97 97 100 79 36 6 11 4 0 0 3 3
100 90 54 7 5 5 5 19 56 81 95 97 100 100 88 48 100 90 82 92 84 73 91 100 100 96 98 100 100 100 100 100 99 100 100 100 100 97 69 10 2 0 0
5 5 5 5 5 5 5 5 5 25 75 53 23 67 99 100 100 100 76 78 85 100 100 100 100 100 100 100 100 100 100 100 100 100 100 100 100 100 100 100 100 85 5
5 5 5 5 5 32 5 5 5 5 5 62 100 100 88 66 85 100 100 100 96 100 100 100 100 98 100 100 100 100 100 100 100 100 100 93 100 99 98 100 100 97 78
5 5 5 9 31 66 5 5 5 9 95 100 100 100 100 98 100 100 99 100 100 100 100 100 100 100 100 100 92 100 100 100 100 99 100 99 99 79 99 99 100 100 86
5 5 7 78 96 96 79 6 20 100 100 100 99 100 100 100 100 100 100 100 100 100 100 100 98 99 92 86 97 100 100 100 100 99 100 100 100 92 98 99 90 74 91
9 89 88 95 99 94 99 100 92 100 100 100 100 100 100 100 97 100 100 100 100 95 100 100 99 100 98 79 100 94 100 100 100 100 100 100 100 100 100 48 49 94 73

GFSMA_prec_cloud_027.txt.gz
Cloud_Cover
0 0 0 0 0 0 0 3 0 0 0 0 1 4 5 5 2 2 1 5 3 0 0 0 0 0 0 0 2 14 100 100 100 100 100 100 100 100 100 100 100 100 100
0 0 1 2 5 4 3 1 0 0 0 0 0 0 0 0 0 2 0 8 5 5 1 0 0 0 4 0 0 1 100 100 100 100 100 100 100 100 100 100 100 100 100
0 1 4 5 22 36 26 5 5 5 5 5 0 0 0 0 0 4 1 2 5 4 5 5 0 0 0 5 1 0 20 87 71 100 100 100 100 100 100 100 100 100 100
5 8 52 43 5 5 5 5 5 5 5 5 4 5 5 3 5 5 0 0 0 5 4 4 8 4 5 1 5 2 5 5 71 100 100 100 100 100 100 100 100 100 100
5 6 39 48 66 7 5 5 5 5 27 78 15 71 63 26 28 29 21 2 0 0 0 5 0 6 26 4 2 5 5 5 86 98 100 100 100 100 100 100 100 100 100
5 5 5 5 5 5 5 26 79 100 96 100 100 96 89 48 7 5 5 4 5 1 0 0 3 0 4 36 9 0 4 15 62 100 100 100 100 100 100 100 100 100 100
5 5 5 5 5 5 5 5 10 24 52 93 75 29 93 100 100 12 0 5 5 3 5 0 0 0 0 1 8 20 4 0 25 68 67 100 100 100 100 100 100 100 100
62 85 95 99 48 5 5 47 34 19 5 5 7 5 7 5 63 6 6 5 5 5 5 3 0 0 1 0 0 4 5 5 0 5 8 85 97 100 100 100 100 100 100
78 13 19 5 5 5 17 6 14 71 90 100 100 61 12 5 36 31 100 95 29 48 39 5 2 1 0 0 0 0 0 5 4 0 4 11 93 100 97 100 100 100 100
21 5 5 5 5 5 5 29 93 67 13 5 37 5 51 93 53 38 77 100 100 99 63 92 90 30 4 0 0 5 0 0 2 4 0 1 6 88 7 93 100 100 100
18 68 100 99 65 5 5 16 55 50 7 5 5 7 5 5 44 88 91 100 100 98 100 100 100 100 100 14 7 2 1 4 0 0 0 0 5 5 94 16 59 100 100
96 49 5 5 19 95 100 87 71 97 53 71 100 99 98 74 100 100 100 100 100 100 100 100 100 100 100 100 100 91 5 4 22 5 0 0 1 5 5 19 69 8 100
6 11 51 89 64 98 93 100 100 100 99 93 90 100 100 100 100 100 100 100 100 100 100 100 100 99 100 100 100 100 74 5 13 98 12 0 0 2 5 5 17 71 91
20 66 99 100 100 100 100 100 100 100 94 86 84 100 100 98 100 99 100 100 100 97 100 100 100 100 100 100 100 100 100 79 54 23 21 5 3 0 5 25 18 5 74
91 100 100 100 100 100 98 100 100 100 100 96 100 100 100 100 100 100 100 100 100 100 99 100 100 100 100 100 90 100 88 90 88 100 97 36 5 4 0 2 34 11 5
100 100 97 99 100 100 100 91 86 100 100 100 100 100 100 100 100 100 100 100 100 100 94 100 100 100 100 100 89 100 9 99 94 100 100 100 31 5 2 0 0 4 6
100 91 63 57 16 80 100 100 93 75 76 98 100 100 100 100 100 100 100 100 100 100 100 100 100 100 100 100 100 88 5 18 95 100 100 100 99 56 5 0 0 0 1
70 80 97 99 100 81 92 91 74 99 100 99 99 100 100 100 100 100 100 100 100 100 100 100 100 100 100 100 80 80 83 68 95 90 100 100 100 100 11 3 0 0 0
82 99 100 93 73 99 92 98 58 94 61 14 5 5 8 5 35 98 100 100 100 100 100 88 100 100 100 100 100 25 66 95 50 84 62 14 8 81 93 4 1 0 0
97 100 100 99 100 100 100 100 93 23 5 5 5 5 5 46 62 73 73 86 100 100 100 100 100 100 94 87 96 92 54 64 37 87 100 99 98 32 5 5 0 0 0
92 96 100 100 82 63 86 10 0 5 5 5 5 5 31 86 22 24 35 92 82 69 98 100 100 100 100 100 45 62 92 74 20 53 42 30 73 100 100 93 78 4 0
100 98 5 5 80 92 96 5 5 2 5 5 29 60 90 100 100 100 86 25 100 100 100 100 98 100 100 100 100 100 100 89 93 99 78 52 66 23 26 80 99 100 42
8 5 5 73 99 100 91 5 5 5 5 62 100 100 100 100 100 100 98 98 99 97 83 83 98 93 99 100 100 100 95 100 100 98 100 93 100 95 99 79 38 5 39
5 5 49 66 98 100 87 5 5 31 95 99 100 100 100 85 91 73 96 100 100 100 100 91 93 82 98 98 100 96 100 100 95 93 99 98 99 89 100 100 100 31 5
21 68 86 71 69 95 100 56 65 99 100 100 100 100 100 93 100 100 100 100 96 96 100 99 88 65 59 46 43 92 91 99 99 92 99 100 97 100 100 95 94 82 5
100 67 58 84 99 97 99 87 40 99 99 100 100 100 100 100 94 92 99 100 84 100 100 100 89 87 97 99 100 99 97 100 94 95 100 100 95 100 84 100 68 7 15

GFSMA_prec_cloud_030.txt.gz
Cloud_Cover
0 0 0 0 0 0 0 0 0 0 0 0 0 0 0 0 0 0 0 5 3 0 1 4 5 2 1 5 2 1 91 76 100 100 100 100 100 100 100 100 100 100 100
0 0 0 0 0 0 0 0 0 0 0 0 0 2 0 3 4 2 0 0 5 5 5 5 1 0 0 0 5 3 0 52 48 99 100 100 100 100 100 100 100 100 100
4 0 0 0 0 0 0 5 3 4 4 0 0 0 0 5 0 6 8 0 0 4 5 5 5 5 0 0 0 4 5 0 9 100 100 100 100 100 100 100 100 100 100
2 3 5 0 4 5 5 2 4 5 4 0 0 0 0 4 4 62 27 5 5 58 6 5 5 5 7 5 0 4 4 5 1 12 100 100 100 100 100 100 100 100 100
5 5 5 5 5 5 5 5 3 3 5 5 3 10 5 14 63 75 87 84 18 3 27 52 5 5 5 3 20 5 4 2 5 0 46 100 100 100 100 100 100 100 100
5 20 5 56 61 5 26 5 5 5 5 5 5 14 94 35 16 28 34 27 82 92 38 15 78 63 4 5 4 5 5 5 3 5 4 77 100 100 100 100 100 100 100
11 5 11 55 28 4 0 0 3 5 5 5 5 5 5 5 5 5 20 26 29 5 8 53 5 6 24 2 0 0 5 5 3 5 5 46 100 100 100 100 100 100 100
5 5 5 2 0 3 2 2 2 5 5 5 5 5 2 5 5 5 14 53 5 12 5 8 7 5 5 5 0 0 0 1 5 1 5 6 45 100 100 100 100 100 100
38 5 27 5 5 5 7 12 3 3 4 5 5 7 16 3 4 16 72 27 5 84 100 100 100 97 28 5 2 0 0 0 0 4 2 5 4 89 35 100 100 100 100
96 96 95 39 5 5 5 5 5 5 1 3 5 4 12 16 52 48 5 5 5 52 34 96 96 94 100 100 24 5 4 0 0 0 0 2 4 3 36 100 100 100 100
100 100 92 8 34 14 7 10 14 14 8 41 55 57 23 11 5 76 13 7 100 62 10 50 99 93 100 100 100 96 88 9 6 5 0 0 0 1 5 40 100 100 100
90 84 36 38 38 100 100 76 22 33 99 92 28 28 62 100 100 100 100 100 100 8 45 54 52 100 100 95 100 99 99 89 26 94 100 3 5 4 0 3 54 100 100
94 100 100 100 100 100 76 61 80 100 83 98 96 84 100 88 100 100 100 100 100 96 98 100 79 100 100 100 100 100 93 100 83 68 94 76 39 5 5 2 1 56 99
100 100 100 94 16 7 100 81 100 100 100 100 41 100 95 83 82 99 100 100 100 87 59 98 100 100 100 100 100 100 100 100 100 95 6 7 88 8 5 26 22 1 5
5 5 5 5 5 5 36 99 96 92 92 97 100 100 100 100 100 83 100 100 100 90 28 97 100 97 100 100 100 100 100 100 100 100 100 5 5 4 4 30 38 21 2
5 5 7 6 21 7 5 5 22 78 48 6 69 32 76 100 100 100 100 90 100 100 98 100 87 96 100 100 100 100 100 77 98 76 86 5 60 5 53 5 5 17 5
1 12 91 22 48 100 86 75 62 23 91 34 95 88 89 93 66 95 100 100 78 99 98 100 97 100 100 90 100 100 100 100 99 100 34 5 5 5 8 83 64 88 19
97 100 97 100 99 100 100 98 11 86 30 66 100 90 94 78 98 17 25 76 92 98 68 33 95 100 100 100 100 100 100 100 91 97 86 99 56 5 5 37 76 82 6
65 59 79 84 96 65 87 76 17 98 79 6 3 0 4 5 24 70 59 57 71 23 49 69 83 79 6 94 100 100 100 94 81 64 58 35 16 5 4 3 4 82 5
5 14 57 80 78 5 5 5 29 5 5 3 0 0 0 4 5 41 72 40 5 22 17 5 37 100 100 66 8 58 73 99 93 93 62 69 97 98 88 21 37 16 4
23 60 46 31 5 5 5 75 6 5 5 0 0 0 1 5 12 84 100 76 30 16 45 6 94 82 30 9 79 27 40 5 5 10 12 5 18 31 16 5 28 8 5
75 100 6 5 45 100 55 5 1 5 4 5 0 1 5 27 25 100 97 76 90 12 49 71 60 100 100 100 100 66 8 5 5 5 5 5 11 5 5 5 5 5 5
100 9 5 6 64 39 5 5 5 5 5 5 12 64 10 10 66 98 79 94 80 95 99 66 37 42 76 93 56 10 27 89 86 40 72 49 5 5 5 5 5 5 5
23 5 5 84 59 5 2 5 5 5 5 5 59 7 14 5 5 42 55 17 30 89 91 100 97 69 97 64 100 100 99 95 100 99 100 87 10 18 50 36 19 5 21
47 40 98 100 12 3 3 65 68 10 5 5 5 22 100 98 93 92 97 70 10 13 82 100 99 99 89 79 88 83 80 92 84 26 56 100 58 64 62 9 5 5 5
70 97 100 100 6 5 67 100 100 99 91 72 6 15 88 100 100 99 91 97 83 70 76 100 100 100 99 98 100 95 63 100 99 100 64 99 47 71 47 5 28 12 16

GFSMA_prec_cloud_033.txt.gz
Cloud_Cover
0 0 0 0 0 0 0 0 0 0 4 2 0 0 0 0 0 0 0 0 0 0 0 0 0 0 4 1 5 4 0 2 100 100 100 81 73 100 100 100 100 100 100
0 3 0 0 0 0 0 0 0 0 0 0 0 0 0 0 0 0 0 0 0 0 0 0 0 0 0 1 5 4 4 0 19 100 100 100 100 100 100 100 100 100 100
4 5 0 4 0 0 1 4 1 0 0 0 0 0 0 0 0 2 0 4 4 1 0 0 0 0 0 0 0 0 3 5 0 8 100 100 100 100 100 100 100 100 100
5 0 5 5 5 5 5 5 5 5 0 0 0 0 0 6 15 36 30 10 6 5 5 3 1 0 0 0 0 0 1 2 5 2 74 100 100 100 100 100 100 100 100
5 5 5 5 5 5 5 4 0 0 0 1 3 5 6 5 18 47 89 100 82 42 96 96 17 5 4 0 0 0 0 0 5 5 0 54 100 100 100 100 100 100 100
5 10 89 59 5 5 5 5 0 0 4 5 3 5 5 5 5 14 38 92 100 89 55 88 87 98 100 81 4 0 0 0 0 1 5 2 53 100 100 100 100 100 100
57 76 11 5 1 4 3 5 5 5 5 20 5 5 5 5 5 8 23 35 80 100 100 100 75 76 86 100 7 5 3 0 0 0 0 5 2 63 100 100 100 100 100
5 5 5 5 5 5 5 13 29 5 5 5 5 5 5 5 5 5 12 30 37 50 71 36 96 100 100 67 84 6 7 5 2 0 0 0 0 0 4 82 77 100 100
5 5 5 5 5 5 5 5 5 5 5 5 10 7 57 26 100 100 100 99 95 11 35 76 83 100 98 79 63 75 100 61 3 0 0 0 0 0 0 5 18 100 100
5 5 5 9 5 5 18 18 5 10 79 98 100 100 99 100 100 76 96 89 91 66 45 9 43 88 100 100 86 100 100 100 30 16 5 0 0 0 0 0 5 66 100
100 100 100 100 100 80 65 100 99 96 100 100 98 8 99 88 50 53 20 3 7 17 5 8 89 99 98 100 100 100 100 100 100 93 5 51 5 0 0 0 0 8 100
100 100 100 70 98 100 81 5 5 5 5 5 57 40 84 48 85 100 96 68 100 10 1 1 6 75 100 100 100 75 100 100 100 100 40 12 12 7 6 0 0 0 82
100 100 69 44 17 5 4 4 5 5 24 6 55 71 100 46 95 100 100 100 100 74 4 2 5 14 44 100 64 100 100 100 100 100 100 100 100 97 81 48 4 0 0
55 14 12 5 76 21 5 5 5 4 5 5 9 35 100 100 100 100 100 100 100 88 5 4 5 68 7 88 100 99 100 100 100 100 100 100 100 100 92 15 5 5 0
34 75 16 74 5 2 5 5 5 5 5 5 5 5 5 6 82 93 100 98 100 100 18 19 20 43 100 45 100 100 100 100 100 100 100 100 100 100 96 61 5 5 0
77 94 56 5 19 51 78 35 5 15 5 6 5 5 16 27 85 100 100 100 92 100 100 10 82 76 100 100 83 99 100 100 100 100 100 100 100 100 100 97 53 5 5
3 5 12 94 100 99 100 100 100 94 98 64 81 85 13 74 66 51 27 68 81 75 60 5 5 48 100 100 100 100 100 100 100 100 100 100 100 100 100 100 59 52 5
5 5 48 99 100 100 100 100 99 99 92 44 28 90 38 99 3 0 2 39 55 39 5 5 5 5 52 100 40 58 100 65 100 100 100 100 99 100 100 100 100 71 51
5 5 52 74 29 82 96 95 67 5 7 63 99 100 86 6 0 0 0 1 1 3 5 5 9 5 5 25 91 48 100 100 96 88 92 36 100 100 86 89 100 100 8
5 10 98 92 29 5 5 3 5 56 37 22 4 3 1 0 0 1 5 5 30 25 5 0 6 21 5 5 17 70 54 89 36 100 100 100 89 5 13 4 70 100 100
5 5 58 58 88 7 5 5 5 5 5 5 5 4 1 4 48 6 100 40 20 57 5 5 5 5 49 50 41 40 16 12 7 64 100 58 5 15 5 54 21 15 100
60 5 5 88 5 0 5 5 5 5 5 5 5 5 5 5 5 69 99 82 100 100 99 100 100 80 46 8 48 6 5 5 33 8 5 31 6 5 24 28 8 88 54
98 14 37 95 5 26 5 5 5 5 5 5 5 5 0 4 5 5 18 76 97 99 100 98 99 15 6 5 89 93 41 14 6 5 5 6 6 5 1 0 0 5 5
100 100 31 28 94 100 5 5 5 5 5 5 5 5 5 5 5 26 57 39 5 5 74 89 92 17 99 64 100 83 73 72 94 95 21 45 5 5 5 5 5 5 5
99 100 98 68 79 10 5 5 5 7 26 5 5 5 12 5 5 92 89 70 50 6 76 98 100 99 92 82 100 100 100 97 99 70 5 78 5 5 5 5 4 1 2
98 100 71 96 6 5 5 7 11 28 43 16 8 90 100 82 84 99 100 99 94 52 5 8 83 81 70 100 100 90 84 100 96 100 100 87 9 24 92 6 5 5 5

GFSMA_prec_cloud_036.txt.gz
Cloud_Cover
0 0 0 0 0 0 0 0 0 0 0 0 0 0 0 0 0 0 0 0 0 0 0 0 0 0 0 0 0 0 1 6 7 100 65 89 100 99 68 100 100 100 100
0 0 0 0 0 0 0 0 0 0 0 0 0 1 0 0 0 0 2 4 0 0 0 0 0 0 0 0 0 0 2 1 11 11 90 96 100 100 100 100 100 100 100
0 1 5 5 1 4 1 2 5 1 5 5 1 5 5 5 5 5 5 5 6 5 1 5 0 0 0 0 0 0 0 0 0 8 8 99 99 100 100 100 100 100 100
5 5 5 5 5 4 5 5 5 5 5 5 5 5 5 5 5 5 5 5 6 5 5 5 4 4 1 0 0 0 0 0 4 0 0 4 30 100 95 100 97 100 100
2 0 1 4 1 5 5 5 5 2 5 5 5 5 5 6 12 66 99 99 100 100 99 96 100 95 37 5 5 1 1 0 0 3 14 0 2 19 100 21 86 99 100
100 40 17 21 27 18 5 5 1 3 5 5 5 5 26 45 17 25 58 96 100 100 100 100 100 100 100 99 50 5 5 5 0 0 1 5 3 4 37 100 10 5 100
100 100 99 68 23 5 5 6 5 5 5 5 5 5 18 5 5 58 24 5 5 32 86 100 100 100 100 100 85 97 5 5 5 0 0 2 5 8 5 5 5 5 78
98 99 43 14 63 84 3 1 0 4 5 5 5 5 5 41 87 95 100 100 100 100 100 100 100 92 100 100 100 100 100 35 60 10 0 20 1 4 5 5 5 5 5
4 3 4 0 1 0 2 4 5 5 4 5 5 38 23 14 17 100 100 70 65 54 12 8 13 58 99 100 100 100 100 100 98 27 65 1 0 0 3 5 5 5 5
4 0 0 0 0 3 5 29 77 24 57 98 5 6 6 6 5 6 17 33 11 17 8 0 1 4 10 91 100 100 100 100 100 98 84 5 2 1 0 0 0 5 5
94 100 100 100 100 99 27 6 6 5 5 5 5 5 7 5 5 7 14 9 33 4 0 0 0 1 0 17 55 100 100 100 100 100 100 92 40 4 0 0 0 0 0
93 98 95 73 31 59 99 54 5 8 5 6 6 30 99 100 100 100 100 99 100 84 3 0 3 13 5 5 77 99 100 95 100 100 100 100 99 98 81 2 0 0 0
12 43 97 100 100 78 11 5 64 99 99 100 82 33 16 93 67 100 100 87 49 53 87 5 1 2 4 5 21 100 98 100 92 98 100 100 100 100 88 19 5 0 0
100 100 92 63 10 5 5 7 6 6 5 5 5 7 5 28 16 83 91 100 100 72 89 6 4 5 1 5 5 18 100 100 100 100 100 100 100 100 100 100 93 5 2
20 5 2 5 5 11 100 39 5 6 32 5 5 13 58 69 10 56 78 93 100 100 98 78 5 5 5 4 6 5 73 100 100 100 100 100 100 100 100 100 100 78 21
1 0 5 5 5 82 99 75 52 90 92 100 100 100 97 67 58 67 99 100 86 90 60 8 5 5 5 5 16 94 98 100 100 100 100 100 100 100 100 100 100 100 100
4 0 0 5 5 5 5 10 14 30 67 77 55 68 100 37 100 91 73 42 28 1 16 5 17 5 5 5 22 79 100 100 100 100 100 100 100 100 100 100 100 100 100
5 5 0 5 4 3 5 5 5 5 5 5 6 90 100 100 64 35 5 5 0 0 1 1 5 2 5 5 5 5 6 100 100 100 100 100 100 100 100 100 100 100 100
5 44 3 9 4 39 5 5 5 5 5 10 100 100 79 28 0 0 2 5 1 1 4 66 17 5 5 2 8 86 11 13 92 100 100 100 100 100 100 100 100 100 100
98 100 100 98 74 95 73 18 4 5 5 5 5 5 5 3 5 15 59 76 44 16 7 5 5 5 5 1 2 50 89 5 6 99 100 100 100 100 100 100 100 100 100
100 100 100 100 100 96 58 2 5 5 5 11 5 5 1 2 5 58 100 100 100 88 66 72 91 89 12 5 5 2 7 100 11 6 5 100 100 31 84 100 100 100 100
100 100 100 100 100 90 0 5 5 6 5 5 5 4 4 3 1 5 5 5 98 100 91 86 95 87 5 5 5 5 5 9 81 75 5 16 77 80 90 100 100 99 99
100 100 100 100 95 5 5 5 5 5 5 5 5 5 5 5 5 5 5 5 20 28 84 99 99 69 18 5 5 9 8 24 11 100 48 78 11 5 51 11 98 8 61
100 100 100 99 20 94 5 5 5 5 5 5 5 5 5 5 5 34 77 91 99 86 58 48 73 14 5 5 76 23 23 71 66 92 90 95 17 5 5 5 0 1 3
100 100 97 82 83 16 5 5 5 11 5 5 5 5 22 50 75 100 100 92 67 100 100 75 42 45 96 97 88 94 94 100 98 99 84 96 52 5 6 6 5 5 0
100 100 71 99 5 5 5 6 37 89 69 39 62 16 12 100 100 100 100 100 100 100 98 87 22 5 5 5 6 12 84 23 93 83 98 67 19 92 65 6 5 5 2

GFSMA_prec_cloud_039.txt.gz
Cloud_Cover
93 5 1 0 0 0 0 0 0 0 0 0 0 3 5 4 5 5 5 4 0 0 0 0 0 0 0 0 0 0 0 0 0 0 0 0 18 100 100 100 100 100 100
88 80 49 0 0 3 4 1 0 0 4 2 0 5 5 5 3 2 4 5 5 4 5 4 5 1 0 0 0 0 0 0 0 0 1 0 2 8 98 100 100 100 100
5 1 2 0 0 5 0 5 5 5 5 5 5 5 5 5 5 5 5 5 5 5 6 82 69 9 5 5 2 0 0 0 0 0 0 0 0 8 36 82 73 100 100
5 0 0 2 5 5 5 5 5 5 5 5 5 5 5 5 5 5 5 5 5 5 5 5 8 61 99 11 3 3 4 0 0 0 0 0 0 0 21 96 40 100 100
0 0 2 1 3 8 12 48 5 5 5 4 5 5 8 29 5 7 6 30 16 10 5 6 31 36 16 18 62 17 5 5 0 0 2 0 0 0 1 23 89 100 100
100 100 88 98 100 100 72 5 5 5 2 2 5 7 8 12 36 71 73 65 68 75 84 78 88 97 100 67 80 82 79 20 5 4 0 5 0 1 0 1 78 48 94
100 100 100 62 5 5 5 71 35 5 5 42 99 100 100 100 100 100 100 100 100 90 99 96 99 100 100 100 100 100 100 100 100 40 5 0 5 4 4 8 50 99 63
3 0 1 16 43 86 97 55 3 5 5 5 5 5 19 69 13 19 43 55 29 72 88 96 100 100 100 100 100 100 100 100 100 100 90 93 5 5 1 1 0 4 17
3 2 1 0 1 2 0 0 0 0 0 0 0 2 4 3 5 5 32 37 40 78 46 50 94 100 100 100 100 100 100 100 100 100 97 100 99 38 4 0 1 4 5
1 4 5 4 1 0 0 2 4 4 5 4 2 5 5 7 5 54 6 5 5 5 4 2 2 1 3 1 40 100 100 74 100 100 100 78 30 100 95 2 1 1 5
99 100 96 58 8 64 95 100 91 7 6 6 5 8 7 5 5 91 95 48 5 5 2 0 0 8 5 5 5 4 7 100 96 95 97 91 50 93 100 100 40 0 0
99 80 98 100 100 86 20 5 5 3 5 10 58 86 100 100 100 100 100 24 98 36 23 2 2 0 0 0 0 3 17 6 93 100 70 100 99 91 100 97 51 47 0
99 80 98 39 7 19 5 5 5 5 5 8 5 18 19 7 42 88 80 86 54 83 99 5 4 10 4 0 0 0 0 0 10 100 100 100 100 100 100 100 93 13 77
5 5 5 5 2 2 4 6 26 5 5 6 19 84 94 97 100 96 87 100 93 97 95 6 5 36 12 5 4 0 0 0 1 26 100 99 100 100 100 100 100 100 100
5 5 2 0 5 5 5 5 5 5 5 16 5 90 100 96 100 94 97 100 100 91 29 5 5 5 5 5 5 5 1 0 5 10 100 100 100 100 100 100 100 100 100
0 0 0 0 0 5 5 5 5 5 4 3 5 6 10 24 48 89 49 100 100 99 50 5 0 0 0 0 3 5 3 5 1 0 89 100 100 100 100 100 100 100 100
3 5 5 13 5 5 3 5 6 5 5 5 2 5 8 100 92 94 40 49 8 44 5 2 2 0 0 0 0 0 0 1 5 5 6 100 100 100 100 100 100 100 100
5 83 99 33 100 100 100 75 89 20 47 5 19 91 76 51 28 31 8 5 5 5 5 5 5 5 38 6 4 0 0 0 0 0 9 100 100 100 100 100 100 100 100
88 5 5 12 84 74 93 100 100 100 98 5 4 5 5 5 27 5 5 5 6 64 96 94 17 19 69 23 5 2 0 0 5 2 0 100 100 100 100 100 100 100 100
36 6 43 100 98 100 100 100 100 98 5 5 5 5 5 5 5 5 5 5 98 100 100 100 99 100 99 16 5 5 3 5 4 21 5 40 100 100 100 99 92 98 100
5 5 93 100 100 100 100 95 30 7 5 5 5 5 5 5 5 34 29 5 20 74 99 100 87 93 92 77 17 5 5 5 5 6 26 5 95 100 84 100 98 100 98
40 73 100 100 100 100 85 79 51 5 5 5 5 5 5 5 5 21 5 5 37 84 94 99 99 95 83 5 8 5 5 13 56 5 5 7 5 100 100 99 100 100 100
76 44 97 100 100 76 36 21 5 5 5 10 24 5 5 28 5 5 5 5 10 8 58 100 100 100 96 8 6 17 5 18 59 5 12 44 16 7 98 100 79 92 94
80 71 26 62 93 100 81 5 5 5 5 5 5 5 5 21 17 100 100 98 80 96 91 91 100 99 86 100 93 38 16 100 99 81 50 100 52 7 5 32 6 5 5
87 56 94 100 97 38 5 8 6 5 5 5 5 5 83 73 86 100 88 100 100 100 86 74 72 96 91 88 94 100 100 100 94 31 48 95 78 7 9 5 5 5 94
86 100 98 74 6 5 5 5 63 31 72 34 7 5 5 99 100 100 100 100 100 100 100 100 100 87 96 8 5 9 5 84 97 23 85 96 11 83 60 11 12 15 18

GFSMA_prec_cloud_042.txt.gz
Cloud_Cover
8 5 4 0 0 1 4 0 4 0 1 0 0 0 0 0 0 0 3 5 5 3 4 3 0 0 0 0 0 0 0 0 0 0 0 0 0 12 81 100 100 100 100
36 74 64 37 7 2 5 5 5 5 5 5 0 0 0 0 0 5 5 5 5 6 5 5 5 5 5 2 0 0 0 0 0 0 0 0 0 0 4 9 100 100 100
47 82 78 100 64 3 5 5 5 5 5 5 5 5 5 5 5 5 5 5 5 5 17 40 6 5 5 5 5 0 0 2 0 0 0 0 0 0 0 5 74 100 100
64 12 16 75 11 0 4 5 56 98 95 81 5 5 5 5 5 5 5 6 5 5 5 5 4 4 5 5 5 5 5 1 4 2 0 0 0 0 0 0 3 32 100
98 95 68 33 71 82 100 97 78 26 15 8 5 5 5 5 5 6 38 54 46 79 45 5 24 21 5 5 5 6 20 5 5 4 5 5 0 0 0 0 0 3 80
47 5 32 58 5 10 66 83 88 94 39 5 5 5 5 5 5 5 5 5 49 54 12 18 18 7 6 5 37 78 16 2 5 5 5 1 2 1 0 0 0 0 5
0 2 0 0 0 6 17 24 4 5 5 5 5 5 5 30 56 100 100 100 77 74 70 71 66 98 100 100 100 100 100 100 94 69 5 6 5 5 5 0 20 7 19
0 0 0 0 0 0 0 1 5 5 5 5 5 5 78 100 100 95 65 74 9 5 5 5 24 29 27 53 32 11 98 100 100 98 88 100 17 5 39 22 4 7 0
5 3 3 0 0 0 0 4 4 5 7 10 7 4 5 5 26 43 6 5 5 4 2 0 2 3 5 18 59 77 73 93 95 100 100 27 63 40 24 6 21 4 0
43 10 28 5 5 3 4 5 5 2 0 3 3 5 5 37 75 83 9 5 5 5 5 0 4 4 4 1 0 0 1 4 18 70 100 100 100 81 7 19 5 5 5
13 5 4 5 56 97 37 18 81 94 19 8 18 62 89 7 5 94 79 100 44 5 5 5 0 0 0 0 3 5 5 1 0 0 65 100 100 88 100 33 32 5 5
6 23 72 84 96 82 11 29 69 33 5 7 18 56 63 86 25 88 96 64 95 5 4 0 1 0 0 0 0 0 2 14 28 4 1 81 96 100 98 11 80 92 15
100 82 36 9 22 40 10 5 1 0 4 6 5 7 19 49 70 100 100 97 91 81 7 6 5 5 5 5 5 4 0 0 2 31 5 5 84 100 99 100 58 57 100
18 92 93 12 5 3 0 2 5 5 5 8 5 12 12 14 56 96 100 100 97 8 16 5 5 5 9 86 90 5 5 1 0 0 0 0 25 87 96 100 93 94 100
9 5 5 3 5 6 7 5 5 20 11 5 13 100 54 27 61 44 41 100 100 95 8 6 2 0 3 2 1 4 5 5 0 0 0 0 5 48 100 100 100 100 100
2 0 5 45 67 41 8 35 99 90 93 83 29 71 5 5 10 76 75 99 100 78 64 2 0 0 3 2 4 3 0 0 0 0 0 0 0 5 96 100 100 100 100
1 5 20 82 5 14 81 100 85 82 96 58 99 77 52 26 10 31 6 5 5 14 5 3 3 3 4 5 5 12 5 4 0 0 0 0 0 4 20 100 100 100 100
4 5 22 83 5 100 100 100 100 100 99 100 100 32 3 5 5 5 5 5 5 5 47 78 51 16 5 4 81 30 4 0 0 0 0 0 0 3 40 30 100 100 100
5 2 0 1 5 100 99 97 100 100 100 51 5 5 5 3 2 5 5 5 5 10 60 91 78 63 6 69 89 90 7 1 0 0 0 0 5 3 32 100 100 100 100
0 2 5 13 94 92 100 100 100 100 12 5 5 5 5 5 5 7 30 46 36 5 38 47 39 75 58 5 98 93 73 5 0 0 0 0 0 5 5 97 96 100 100
4 5 79 88 100 100 99 100 100 5 5 5 5 5 5 14 93 100 100 99 100 73 99 99 100 96 94 92 79 99 93 26 5 5 2 0 0 0 5 33 100 100 100
33 83 100 67 7 88 87 100 82 5 5 7 29 5 5 5 5 100 98 91 99 100 100 100 100 100 92 64 8 95 100 77 39 5 5 5 5 5 4 6 100 100 100
66 68 20 5 13 44 5 70 6 5 5 5 5 5 5 40 25 23 5 49 35 96 100 100 100 100 98 78 93 98 48 54 60 5 30 15 5 5 5 5 26 100 100
95 11 72 5 5 8 83 6 5 5 5 5 5 5 48 36 9 100 95 79 100 100 100 100 100 100 92 72 100 83 86 74 27 93 100 93 5 5 5 5 5 5 6
99 89 5 5 14 20 5 5 5 5 5 5 5 5 80 77 85 100 100 86 85 100 100 100 100 100 100 100 100 100 98 100 100 66 18 96 14 5 5 5 5 5 30
93 72 81 86 30 78 5 5 6 5 33 11 5 5 6 98 100 100 98 100 100 100 100 100 100 100 100 100 100 94 77 100 100 100 44 53 52 88 8 36 26 5 5

GFSMA_prec_cloud_045.txt.gz
Cloud_Cover
78 70 5 5 5 5 3 5 18 35 5 9 3 0 0 0 0 0 0 0 0 0 0 0 0 0 0 0 0 3 3 0 0 0 0 0 0 0 0 79 100 100 100
100 100 29 24 4 3 10 5 4 4 5 5 5 2 4 1 0 0 0 0 0 0 3 2 0 2 5 5 3 4 5 5 4 0 0 0 0 0 0 3 82 100 100
100 100 100 99 88 88 5 20 5 4 9 7 8 99 10 5 0 0 0 0 3 5 5 5 5 5 0 1 5 5 5 4 5 5 4 0 0 0 0 0 19 83 100
100 100 100 100 100 100 87 67 51 3 21 3 5 4 5 5 5 5 5 5 5 5 5 5 5 5 5 0 0 9 37 8 5 0 1 5 1 0 0 0 0 3 89
100 100 77 33 26 95 52 6 3 6 10 22 12 6 85 73 52 5 10 54 54 20 45 43 24 6 6 5 5 4 2 100 90 16 5 0 2 1 0 0 0 0 1
78 42 15 0 0 0 0 4 5 63 48 13 53 97 100 100 90 20 5 7 30 37 6 13 30 74 93 72 59 5 5 97 100 100 97 22 4 3 0 0 0 0 0
0 0 0 0 0 2 5 5 5 5 23 16 5 5 5 5 5 5 5 5 5 5 5 32 91 100 100 100 100 98 18 27 84 100 100 100 82 2 5 0 0 0 0
3 4 5 4 0 2 4 2 3 2 5 14 8 5 5 5 5 5 5 5 5 5 13 18 21 6 5 5 12 37 89 58 5 5 87 100 100 28 5 5 1 5 0
91 39 1 0 0 0 0 3 11 31 6 5 5 2 4 4 5 3 5 4 2 5 5 5 5 6 5 5 5 5 23 11 5 5 49 100 100 100 58 27 1 1 4
5 5 5 5 5 22 60 90 39 5 1 5 3 30 50 98 100 22 5 3 3 5 5 5 5 5 5 4 2 0 1 1 1 4 4 61 100 94 95 65 11 10 5
5 5 5 12 74 10 5 5 5 5 5 2 5 10 19 21 61 87 71 83 96 55 5 5 5 5 5 5 2 0 0 0 0 5 3 0 5 100 100 100 100 92 98
5 5 5 5 5 4 3 2 0 0 2 5 5 19 71 88 97 100 77 56 67 75 78 13 5 5 5 5 2 0 0 0 0 0 0 4 5 59 100 100 100 96 100
5 5 3 2 4 1 2 5 5 5 5 5 14 12 6 33 28 83 66 100 94 51 100 97 82 13 5 2 3 3 2 0 0 0 0 0 0 3 18 100 95 100 98
1 5 5 4 5 5 65 5 4 5 5 9 7 5 5 60 90 100 100 100 97 26 33 90 95 97 5 5 0 1 5 5 5 1 0 0 0 0 0 16 100 100 96
5 6 5 5 5 6 5 0 4 3 30 19 15 95 9 5 14 6 9 29 76 53 6 98 71 89 54 6 5 4 0 4 2 4 0 0 0 0 0 0 50 100 100
33 55 5 4 5 5 5 4 38 5 84 94 60 5 8 11 5 5 5 5 15 32 5 5 5 5 5 5 5 5 1 5 0 0 0 0 0 0 0 0 4 85 100
5 5 2 5 4 5 5 5 63 99 100 96 70 77 24 4 5 5 5 5 5 5 5 5 5 15 57 59 68 26 5 5 5 4 0 0 0 0 0 0 1 5 99
3 5 0 5 4 82 50 79 100 49 74 100 77 5 5 5 5 5 5 5 5 6 40 52 40 56 100 100 100 100 95 100 99 25 1 0 4 3 1 13 5 5 100
5 5 9 34 54 100 100 98 100 100 91 81 53 5 5 5 5 17 60 76 100 100 100 100 99 100 100 100 100 100 100 100 100 26 4 0 0 4 5 13 100 26 86
13 25 6 31 86 100 100 100 100 97 98 63 23 5 5 43 74 91 99 100 100 100 100 100 100 100 100 100 100 100 100 100 100 100 40 1 0 0 5 5 11 27 89
34 39 91 100 97 28 79 93 98 89 32 5 15 5 8 40 58 56 68 100 100 100 100 100 100 100 100 100 100 100 100 100 100 100 99 5 5 4 0 0 5 5 89
21 47 47 22 5 42 13 5 5 5 5 5 4 0 0 5 6 88 98 100 100 100 100 100 100 100 100 100 100 100 100 100 100 100 100 98 72 53 6 5 5 6 23
7 6 9 32 9 5 5 5 5 5 5 5 1 0 3 12 83 100 100 99 91 87 100 100 100 100 100 100 100 100 100 100 100 100 100 100 100 90 28 5 0 30 84
99 100 86 5 5 5 5 5 5 5 5 5 5 5 41 99 100 100 100 100 100 100 100 100 100 100 100 100 100 100 100 100 100 99 100 99 98 98 94 68 5 4 6
97 100 100 98 44 26 5 5 5 5 5 5 32 78 99 100 100 100 100 100 100 100 100 100 100 94 100 100 100 100 100 100 100 100 100 100 88 100 99 5 5 5 5
5 5 65 82 66 14 5 5 5 95 95 99 99 96 100 98 100 100 100 100 100 100 100 100 100 100 96 100 100 100 100 100 100 100 98 100 100 98 95 60 18 5 5

GFSMA_prec_cloud_048.txt.gz
Cloud_Cover
90 64 100 100 100 80 5 0 5 31 12 18 2 0 0 0 0 0 0 0 0 0 0 0 0 0 0 0 0 1 0 0 0 0 0 0 0 0 0 34 100 100 100
100 100 100 100 75 24 67 71 67 98 7 0 5 0 4 4 3 0 0 0 0 0 0 0 0 4 4 0 1 11 5 5 2 0 0 0 0 0 0 0 7 99 100
100 100 100 100 100 100 100 100 100 79 5 0 3 0 3 0 0 0 0 0 0 3 5 5 5 5 5 5 5 0 6 5 5 5 2 0 0 0 0 0 0 64 100
100 100 100 100 100 100 100 100 100 19 9 0 0 0 0 3 2 5 1 2 0 0 1 3 3 5 5 5 5 0 0 11 99 99 19 2 4 0 0 0 0 1 95
100 100 100 100 100 100 100 100 64 0 0 0 5 2 5 5 5 5 5 5 5 5 5 5 5 5 5 5 5 5 5 0 100 96 100 78 73 37 1 2 0 0 0
100 100 99 100 100 100 25 98 6 4 5 5 5 5 22 11 5 5 5 5 5 5 5 8 35 30 5 5 5 5 5 5 74 42 100 100 100 99 24 7 1 0 0
8 5 5 60 7 26 5 0 0 0 0 2 5 3 1 4 16 6 5 5 14 20 8 5 4 5 5 5 5 24 5 5 5 5 5 56 100 100 99 26 8 3 0
100 100 24 5 5 5 0 0 0 1 5 5 5 5 5 5 5 94 74 64 33 19 5 5 6 42 87 99 55 8 4 5 5 5 4 5 87 100 100 100 80 25 3
100 6 2 5 4 2 2 5 20 55 62 93 52 5 5 2 4 0 48 40 41 5 5 5 5 7 5 5 6 31 23 87 34 5 5 5 5 8 76 92 100 100 68
1 0 5 5 5 16 90 100 100 82 11 5 2 5 29 45 24 4 5 10 8 30 5 5 34 86 84 82 83 31 5 0 5 81 62 5 5 5 5 78 100 100 100
3 5 5 56 41 70 74 35 6 5 5 5 6 72 98 86 98 100 91 49 81 99 100 92 90 100 100 99 100 100 14 0 0 0 0 13 79 5 5 14 100 100 99
5 5 5 5 5 5 6 20 8 10 7 26 65 86 84 93 100 100 100 83 100 92 100 98 100 28 53 99 100 60 9 3 0 0 0 2 0 3 5 2 12 100 100
5 5 5 6 51 23 6 16 56 91 69 87 100 77 97 100 100 100 100 100 99 20 25 97 100 100 100 62 99 86 5 1 0 0 0 0 0 0 0 0 2 50 100
17 28 5 5 5 6 83 93 54 49 84 83 70 100 99 100 96 100 87 82 68 68 91 95 100 100 100 100 90 11 5 5 5 3 0 0 0 0 0 0 0 2 86
5 5 6 87 5 23 48 65 66 75 99 59 100 100 82 99 100 100 100 100 100 88 61 78 91 90 89 100 100 55 46 5 5 0 0 0 0 0 0 0 0 0 11
5 6 21 5 5 5 55 55 68 76 93 82 83 92 97 99 100 100 100 100 100 100 84 35 40 14 61 96 100 99 100 28 5 2 1 0 0 0 0 0 0 0 0
5 40 4 5 5 5 25 14 51 76 66 99 96 87 99 100 100 100 100 100 100 100 100 66 99 89 87 100 100 100 100 100 100 92 11 14 2 0 0 0 0 0 0
5 5 5 5 5 5 28 17 57 44 79 100 100 100 100 100 100 100 100 100 100 100 100 100 99 100 100 100 100 100 100 100 100 100 100 88 4 0 0 0 0 5 5
96 41 5 5 56 71 76 98 100 95 100 100 100 100 100 89 88 100 100 100 100 100 100 100 100 100 100 100 100 100 100 100 100 100 26 7 8 1 0 0 0 1 5
53 5 5 35 97 99 83 98 77 96 100 100 99 100 74 74 95 68 40 58 76 100 100 100 100 100 100 100 100 100 100 100 100 100 100 53 46 2 0 0 0 0 4
6 14 35 100 78 85 98 100 100 94 100 98 64 28 5 5 0 6 6 30 98 100 100 100 100 100 100 100 100 100 100 100 100 100 93 100 100 100 94 42 2 0 2
81 100 81 98 100 100 5 5 5 84 80 6 5 5 5 5 5 5 80 82 50 100 100 100 100 100 100 100 100 100 100 100 100 100 100 100 99 86 100 100 100 20 5
96 94 100 100 100 100 5 5 5 8 24 5 5 5 5 12 84 100 100 67 90 98 100 100 100 100 100 100 100 100 100 100 100 100 100 100 100 100 100 100 33 4 5
100 100 100 100 100 99 5 5 5 17 50 76 79 82 81 81 100 72 100 100 100 100 100 100 100 100 100 100 100 100 100 100 100 100 100 100 100 99 100 100 54 4 3
100 100 98 100 100 100 8 5 5 67 98 92 100 100 97 96 100 42 100 100 100 100 100 100 99 91 100 96 93 100 100 100 100 100 100 100 99 95 99 100 41 22 0
100 100 94 97 87 98 47 5 5 98 100 97 100 100 100 62 16 98 100 100 100 100 100 100 100 100 100 100 88 100 100 100 100 100 100 100 100 100 100 99 96 94 38

GFSMA_prec_cloud_051.txt.gz
Cloud_Cover
100 100 100 90 100 39 100 100 100 88 74 14 54 100 100 14 13 2 0 0 0 0 0 0 0 0 0 0 3 8 0 0 0 0 0 0 0 0 0 66 100 100 100
100 42 57 95 100 81 81 96 98 94 100 100 100 100 100 67 30 3 0 0 0 0 0 0 0 0 0 0 0 0 4 2 0 1 16 0 0 1 0 0 100 100 100
100 100 99 100 100 100 100 100 100 100 100 67 18 5 6 4 1 0 2 0 5 3 0 5 4 0 0 0 0 0 0 11 4 66 87 19 0 0 0 1 7 100 100
100 100 100 100 100 100 100 100 100 100 100 95 85 5 5 5 0 0 0 0 5 1 0 1 5 2 0 2 4 4 0 0 4 100 100 100 75 85 54 15 3 18 97
100 100 100 100 100 100 100 77 99 56 5 5 14 14 5 5 5 1 1 3 8 40 4 2 2 2 0 0 3 5 4 3 4 99 100 100 100 100 100 100 43 3 0
100 100 93 84 98 100 100 100 100 23 10 7 16 26 12 5 5 5 5 6 27 94 64 18 6 4 2 0 0 0 4 5 5 10 10 61 100 100 100 100 100 91 1
82 100 90 99 100 0 3 4 3 5 3 0 0 5 5 5 5 72 100 100 100 100 78 64 56 95 14 5 24 22 4 0 2 5 5 5 7 92 100 100 100 100 100
99 71 99 47 5 3 0 4 5 5 10 24 66 40 42 79 96 5 56 55 80 44 87 98 77 79 88 88 16 94 17 5 0 1 2 5 5 5 2 8 88 100 100
100 100 41 2 0 0 1 5 5 45 96 90 56 10 5 5 5 6 0 8 99 83 39 9 56 66 84 100 96 100 100 92 4 2 3 1 2 5 9 2 6 91 100
42 12 5 2 5 5 5 5 5 5 5 5 5 6 5 50 98 68 69 22 5 59 100 100 92 97 82 93 100 51 3 23 64 0 1 5 0 0 1 5 5 35 100
6 4 4 5 5 5 5 5 9 93 86 90 99 73 12 78 88 91 90 87 20 7 5 21 7 23 64 5 22 58 100 98 29 5 0 5 5 4 0 0 3 7 43
5 5 5 5 5 6 82 86 64 98 68 67 72 68 78 90 100 81 66 49 92 10 100 65 12 4 8 37 90 22 8 5 5 4 0 5 5 5 5 3 3 2 5
2 5 5 5 5 5 6 33 65 96 74 98 94 89 99 94 97 93 85 80 86 44 22 57 81 86 100 76 72 97 9 3 1 2 0 5 5 5 5 4 4 4 3
4 5 5 5 5 5 9 60 5 95 70 58 52 84 89 100 94 99 86 90 5 84 88 59 42 100 86 80 100 57 50 12 100 25 0 5 5 5 5 5 1 5 5
5 8 5 5 5 5 5 11 54 81 77 94 90 40 96 94 91 100 92 97 98 26 38 52 14 66 83 100 98 50 9 4 0 0 0 0 0 5 5 5 0 0 5
5 8 5 5 5 5 5 5 91 99 90 89 97 56 99 100 81 68 82 100 93 96 36 48 12 76 50 95 99 99 5 69 5 5 5 5 5 5 3 0 0 1 0
5 5 5 5 5 5 5 76 100 100 99 94 52 89 95 100 99 100 100 86 100 100 38 11 11 91 97 52 86 67 24 49 11 5 48 91 74 100 65 5 0 0 0
5 5 5 5 5 5 5 53 97 94 46 99 100 100 87 100 100 100 100 100 100 100 72 58 38 90 86 65 71 65 53 100 83 96 80 95 90 81 14 5 0 0 0
8 5 6 20 5 8 21 14 33 62 76 78 93 96 98 100 100 83 52 12 16 5 10 47 47 98 96 99 64 93 94 100 100 98 25 26 38 26 19 6 0 0 0
62 41 27 24 5 99 57 78 75 97 100 96 94 100 100 71 18 5 4 5 13 67 82 89 94 100 100 100 96 99 100 100 100 100 87 87 90 92 42 4 2 0 0
60 8 49 58 100 73 99 91 76 91 90 99 100 94 54 37 4 0 2 5 98 100 100 100 100 100 100 100 100 100 100 100 100 100 42 87 80 82 96 86 51 5 0
6 66 84 98 100 100 61 65 12 20 89 100 99 51 60 43 97 5 39 69 68 44 100 100 100 100 100 100 100 100 100 100 95 100 100 98 100 100 76 30 100 100 90
28 69 94 85 56 97 27 96 93 65 34 84 100 98 91 87 89 61 55 21 91 100 100 99 96 99 100 100 100 100 86 100 100 98 100 45 100 100 100 85 84 98 6
50 93 86 99 39 100 83 100 50 5 45 100 100 100 100 98 100 5 12 47 100 100 100 100 100 100 100 100 94 89 74 55 86 97 100 99 100 99 100 39 2 5 5
99 100 70 91 93 100 71 23 6 14 90 94 100 100 98 99 92 5 5 85 100 100 100 100 100 62 64 65 59 92 92 100 100 100 100 100 99 94 100 24 17 16 5
100 90 19 100 100 94 72 6 6 24 98 100 98 99 92 5 5 5 5 98 100 100 85 99 100 100 100 100 100 96 99 100 99 100 100 100 100 100 100 100 9 4 5

GFSMA_prec_cloud_054.txt.gz
Cloud_Cover
100 100 100 100 100 100 95 82 37 11 2 5 5 3 96 33 100 98 47 0 1 0 0 0 0 0 0 0 1 0 0 0 0 0 9 1 0 0 0 0 64 100 100
100 100 99 100 73 100 55 26 82 100 100 100 100 100 100 100 100 100 100 0 0 0 1 0 5 2 0 0 0 0 1 2 0 20 46 18 5 1 0 0 0 86 100
100 100 100 93 69 100 98 99 100 100 100 100 100 100 100 62 5 43 5 0 0 0 0 0 0 80 9 0 5 5 2 0 0 28 100 98 6 96 88 96 47 1 96
100 100 100 96 36 99 100 98 98 99 88 5 5 87 99 8 5 5 5 0 0 0 0 3 0 2 0 2 2 5 5 0 13 19 100 100 100 97 99 100 100 100 45
100 100 99 100 100 71 100 100 99 55 99 50 3 5 5 5 66 31 10 5 5 4 12 63 49 1 0 0 0 0 4 50 45 19 97 100 100 100 100 100 100 98 100
32 87 58 53 71 74 86 100 79 42 1 0 0 1 3 1 0 3 4 37 88 98 100 100 93 7 5 5 2 0 0 13 25 5 17 9 56 91 97 100 100 100 100
5 5 5 5 5 5 0 0 0 0 2 5 5 0 0 4 5 5 5 5 6 81 100 99 100 100 44 62 17 5 11 0 0 4 2 5 5 55 15 14 5 36 100
6 6 28 4 5 5 4 0 0 4 3 0 0 5 5 5 5 5 5 3 65 100 94 76 93 84 61 98 97 89 46 5 4 1 3 5 5 5 22 5 4 2 61
5 5 5 5 5 5 0 0 0 2 0 4 2 3 5 5 4 3 5 2 5 30 92 98 99 79 39 84 75 85 5 5 5 5 0 5 5 5 6 18 5 5 5
6 5 5 5 5 0 0 3 1 0 0 5 5 4 3 5 5 5 5 1 3 5 5 5 46 49 49 84 56 2 18 20 17 36 5 1 5 5 5 8 36 5 5
8 5 4 5 5 5 5 5 82 79 7 5 5 5 5 5 5 39 5 5 5 60 20 5 4 1 0 4 0 1 9 5 5 3 3 3 5 5 5 5 11 47 5
80 70 11 5 5 5 4 4 10 2 5 5 80 75 35 40 74 98 75 23 22 0 4 4 0 0 0 10 67 48 61 84 33 8 5 4 5 5 5 16 13 70 15
100 100 54 54 5 5 5 5 4 81 18 5 34 100 92 50 100 100 100 45 5 0 0 0 0 0 1 85 100 62 16 10 25 30 32 5 4 2 5 5 5 5 5
46 8 41 7 5 5 5 5 6 40 9 4 27 100 98 98 100 95 100 100 12 0 0 0 0 0 5 7 9 57 100 82 5 5 5 5 0 0 1 5 5 5 5
95 5 5 5 5 5 5 5 5 10 86 8 31 100 100 93 100 93 82 99 93 5 2 0 0 0 0 3 5 5 5 5 0 0 0 0 0 0 1 5 50 3 4
5 5 5 5 5 5 5 5 5 5 12 5 85 88 62 70 96 100 83 53 11 36 4 5 0 0 0 1 2 2 2 5 5 2 0 0 2 18 0 28 53 7 0
5 5 5 5 5 5 5 5 31 89 22 5 17 10 12 44 84 89 94 23 40 40 94 5 5 5 5 5 4 0 0 0 0 0 0 4 5 5 4 19 100 61 5
5 5 5 5 5 5 6 5 5 5 5 5 5 57 88 100 97 100 45 40 69 6 5 5 1 0 3 4 5 2 0 0 0 0 0 4 3 5 5 32 18 66 1
5 5 5 19 25 62 73 20 7 25 35 40 86 59 97 70 14 79 6 4 0 0 0 3 1 0 5 5 5 3 4 5 5 5 7 83 75 97 100 100 100 59 5
55 68 93 75 85 40 98 67 88 50 5 5 69 100 100 99 21 5 5 0 0 1 3 5 4 5 5 4 5 5 71 47 11 5 5 5 5 5 77 97 79 82 4
96 95 100 88 78 68 30 83 70 72 6 76 100 100 100 47 5 2 4 2 5 5 5 5 5 5 8 67 63 39 72 42 5 7 6 5 5 5 29 26 86 100 100
88 70 99 98 100 98 100 90 100 98 56 96 100 89 5 5 58 64 5 5 5 5 5 88 97 100 77 82 100 100 94 38 5 48 87 4 5 5 53 100 100 98 100
100 100 100 92 100 100 100 75 100 99 85 98 72 5 5 5 5 5 5 4 0 0 37 99 99 100 100 88 75 51 28 31 15 5 24 22 83 5 65 39 100 99 66
100 99 100 100 100 94 18 66 100 80 91 62 5 5 14 39 5 5 0 0 0 4 11 90 100 92 60 21 88 74 47 91 24 14 100 99 54 5 5 5 56 91 96
100 100 100 100 85 55 24 79 22 47 41 32 77 61 70 99 5 5 5 5 5 4 25 80 17 6 5 72 97 99 84 100 74 66 90 100 67 16 23 40 69 6 5
100 100 100 55 5 37 66 5 85 6 19 96 100 98 99 100 15 5 5 5 5 8 5 1 5 5 50 72 100 100 100 100 100 23 100 26 85 100 93 100 100 100 38

GFSMA_prec_cloud_057.txt.gz
Cloud_Cover
100 100 100 100 100 100 100 100 100 85 31 58 23 4 16 100 100 100 100 90 100 100 82 100 82 1 5 0 0 0 0 0 2 60 7 31 53 62 61 22 0 87 100
100 100 100 100 100 100 99 68 96 66 100 85 85 100 100 34 20 5 17 3 3 4 11 17 0 0 0 0 0 0 0 0 19 60 100 69 31 100 100 100 96 71 100
100 100 100 100 99 83 36 97 52 95 100 57 51 100 100 100 100 100 26 0 0 0 0 0 0 2 0 0 0 0 0 0 26 20 100 100 100 81 100 100 100 100 100
100 100 100 95 30 5 3 4 16 15 1 0 0 1 6 2 1 0 0 0 0 0 0 1 2 5 5 5 0 0 0 1 5 88 97 96 88 99 100 100 100 100 100
46 38 42 9 5 5 4 0 0 0 0 0 0 0 0 0 0 0 0 0 0 4 68 96 72 88 100 52 33 2 0 6 18 3 5 3 4 2 14 60 40 24 100
40 5 5 5 4 5 2 0 0 0 0 0 0 0 0 0 0 0 0 0 3 71 96 97 46 25 86 94 8 14 83 33 0 0 7 5 5 4 0 5 5 1 4
5 5 5 5 0 0 0 0 0 0 0 0 0 0 0 0 0 0 0 0 1 24 100 100 85 91 90 68 56 27 23 5 5 5 4 5 5 5 5 2 3 5 5
5 5 5 4 0 0 2 3 1 0 0 0 0 0 0 0 0 0 0 0 5 5 78 100 100 79 87 99 84 63 36 5 5 5 1 0 3 5 5 5 0 1 5
5 5 5 5 4 5 5 5 4 0 0 0 0 0 0 4 2 5 5 5 6 5 5 5 50 82 100 92 100 90 59 23 5 2 3 3 4 5 5 5 5 5 0
4 0 5 5 5 50 84 96 1 0 0 0 4 5 4 4 5 11 78 100 98 70 5 5 0 1 1 4 15 5 1 1 5 34 5 5 5 5 5 5 5 6 7
90 62 6 5 57 15 4 0 0 0 5 5 5 5 6 29 18 5 5 5 5 5 4 2 5 5 4 2 2 0 1 16 5 5 5 68 5 5 5 5 5 5 97
97 69 10 5 5 4 4 1 0 1 0 5 5 5 13 28 23 65 33 5 5 5 5 4 4 6 3 0 0 0 2 4 0 5 5 3 5 23 7 5 5 5 5
75 98 38 5 5 5 5 5 5 5 5 6 5 5 5 5 98 100 100 89 6 4 0 5 32 5 0 0 0 5 5 5 5 10 5 5 4 1 2 5 5 5 5
81 81 7 5 5 5 5 5 5 5 4 1 5 9 47 54 48 100 100 99 24 5 0 0 0 0 0 3 0 0 1 4 5 5 5 5 5 0 5 5 5 5 70
99 5 33 5 5 5 5 5 5 5 5 5 5 5 68 11 29 89 100 97 98 38 5 0 0 0 5 5 0 0 0 0 0 0 2 5 4 0 3 5 5 5 90
6 97 6 24 12 6 69 5 5 5 5 5 7 5 5 94 100 62 6 87 100 98 21 5 5 5 5 5 3 2 3 0 0 0 0 0 0 2 0 0 0 2 5
25 41 69 55 64 92 90 7 5 5 6 26 90 97 6 8 81 94 99 100 83 100 61 5 1 0 4 2 0 0 0 0 0 0 0 0 0 0 0 3 1 0 0
5 5 46 69 87 93 94 45 31 62 93 86 60 31 81 14 97 93 78 79 94 10 5 5 0 0 0 0 0 0 0 0 0 0 0 0 5 69 29 14 5 12 5
62 82 65 83 100 54 11 92 100 100 100 100 80 47 5 48 33 5 5 5 5 0 0 0 0 0 0 0 0 0 0 0 0 2 5 5 0 0 0 14 95 94 100
100 100 100 100 100 55 92 100 100 100 100 100 81 5 45 50 5 5 5 5 0 0 1 5 1 3 5 1 5 5 4 4 5 1 3 5 4 1 0 0 3 88 76
100 100 100 100 100 100 100 100 100 100 100 83 88 42 13 54 5 5 5 5 5 5 5 2 5 29 55 10 48 29 100 55 4 5 4 0 4 0 0 1 3 5 16
100 98 93 100 100 100 100 100 100 77 74 100 100 99 5 5 5 5 19 71 5 5 0 5 5 97 44 85 100 73 37 5 8 58 5 5 4 5 5 3 4 5 96
97 95 93 100 100 100 100 100 99 26 47 100 92 55 18 5 82 60 72 40 5 0 0 5 5 36 99 93 51 24 5 67 96 9 67 75 46 5 5 5 0 5 5
100 100 100 100 100 100 100 48 41 15 97 25 6 5 5 35 100 100 100 100 5 0 0 4 100 77 42 5 88 100 87 92 62 26 100 96 7 5 5 5 5 5 5
100 100 100 100 100 90 13 5 9 100 34 66 7 5 5 15 100 87 100 43 4 2 3 5 1 4 5 9 100 100 96 100 64 14 60 13 12 6 5 5 31 5 5
100 100 100 96 5 14 43 8 90 98 97 78 5 5 6 82 83 99 100 32 6 4 5 5 5 2 5 5 70 99 100 100 98 94 5 93 6 45 74 63 99 100 100

GFSMA_prec_cloud_060.txt.gz
Cloud_Cover
100 100 100 100 100 100 100 100 100 100 100 100 90 89 32 75 100 85 2 0 8 8 34 56 22 9 4 1 0 0 0 0 14 72 32 88 94 56 100 100 100 100 100
100 100 100 100 100 100 100 100 100 100 70 20 5 5 2 0 0 0 0 0 0 0 0 0 2 1 0 2 2 0 0 0 0 1 57 4 52 23 100 100 100 100 100
100 100 100 100 100 100 100 100 73 19 22 5 5 4 0 0 0 0 0 0 0 0 0 0 0 5 5 5 5 5 0 0 0 0 0 0 0 4 4 41 37 74 100
100 100 100 100 100 22 14 6 5 5 5 4 0 0 0 0 0 0 0 0 0 0 0 66 94 54 97 80 5 7 11 4 0 0 0 0 1 0 0 0 0 26 23
100 94 95 77 99 56 50 20 5 3 0 0 0 0 0 0 0 0 0 0 0 0 2 5 6 40 100 95 43 23 22 5 4 0 0 0 2 0 0 0 0 0 8
100 100 100 100 93 13 5 4 0 0 0 0 0 0 0 0 0 0 0 0 4 1 3 42 59 86 99 100 94 25 79 19 12 24 4 2 0 0 0 0 0 0 1
14 5 2 5 19 4 0 0 0 0 0 5 0 0 0 0 0 0 5 5 5 2 3 65 79 99 98 100 100 100 100 59 5 5 5 4 0 0 3 5 5 3 0
87 23 52 6 5 4 1 3 5 5 21 3 0 0 0 0 0 0 0 0 1 5 2 1 25 74 82 84 94 98 70 92 85 45 3 4 5 5 5 5 5 5 5
15 2 5 1 1 0 5 5 5 3 0 1 0 0 0 0 2 12 45 70 31 16 6 5 5 4 1 0 2 2 0 1 0 1 0 3 5 5 5 5 5 5 5
4 0 1 2 4 5 5 5 5 4 0 0 0 0 2 4 5 37 90 73 98 99 61 9 5 3 0 0 0 0 2 3 2 5 5 5 5 5 5 9 21 5 5
5 5 5 5 5 5 5 3 0 0 0 0 0 1 5 7 6 5 17 23 6 5 5 5 0 0 5 2 0 0 0 0 0 4 2 5 80 100 98 97 100 94 89
90 99 79 73 27 22 5 0 0 1 5 0 2 7 49 5 5 5 28 82 81 5 5 5 65 25 3 5 9 9 3 0 0 4 11 8 6 72 82 77 62 95 100
83 56 100 100 69 5 5 5 5 5 3 1 5 5 5 5 5 5 22 46 100 96 13 20 32 1 0 0 0 1 0 0 0 5 5 5 20 5 5 5 5 83 100
100 64 100 99 86 5 5 5 67 5 5 5 5 5 5 5 5 5 17 100 100 64 4 5 5 5 4 4 0 5 1 0 0 0 0 0 0 2 5 5 5 16 71
100 100 98 100 6 5 5 56 61 5 5 5 5 5 5 5 5 9 7 70 72 52 5 5 6 9 5 3 5 5 5 5 0 0 0 0 0 0 5 5 5 5 5
98 94 99 30 6 10 78 97 12 15 5 6 13 9 5 77 98 100 99 100 98 97 90 90 31 6 5 3 2 2 2 1 0 0 0 0 0 2 5 5 5 5 5
88 100 61 54 76 98 100 78 76 46 55 69 50 66 93 100 100 100 100 100 100 88 86 6 19 1 0 0 0 0 0 0 0 0 0 0 1 16 26 72 68 5 5
86 100 5 8 86 35 42 33 65 100 100 99 100 100 100 100 100 45 5 5 5 6 5 0 0 0 0 0 0 0 0 0 0 0 4 5 5 9 8 20 5 5 5
49 5 38 69 60 73 88 94 95 77 91 100 100 100 100 100 36 5 5 5 5 5 5 5 1 0 0 0 0 0 0 1 2 5 5 4 2 0 0 4 5 2 0
13 90 61 84 100 99 95 100 100 100 100 100 100 100 100 34 5 6 14 15 14 7 48 42 5 0 3 5 5 5 47 5 5 0 0 1 0 2 5 4 0 0 0
80 92 94 98 100 100 100 100 100 100 96 100 97 96 100 99 91 81 54 10 68 100 97 5 5 5 8 12 20 85 58 5 5 0 0 2 4 0 0 4 4 5 3
94 86 100 100 100 100 100 100 100 100 100 5 48 93 100 100 100 5 5 97 100 100 96 12 5 5 5 93 84 5 5 83 96 5 11 5 6 5 5 5 5 5 5
96 100 100 89 100 100 100 100 100 36 5 5 68 68 70 39 37 15 87 100 100 53 5 5 7 10 95 10 8 21 57 100 99 17 99 88 5 5 5 5 5 5 5
100 100 100 100 100 100 83 24 5 5 24 50 88 66 92 95 16 43 92 99 100 78 50 5 5 8 5 28 80 97 100 96 86 8 32 96 6 5 5 3 5 5 5
100 100 100 100 100 11 5 5 9 18 80 98 81 100 94 74 5 82 77 100 100 96 46 5 5 5 5 5 9 82 41 100 93 65 5 99 6 8 5 5 5 25 38
84 66 100 34 5 5 54 11 32 5 18 87 100 72 35 4 5 5 54 100 100 100 84 5 5 5 3 3 0 5 86 100 100 90 5 94 59 92 65 6 23 5 24

GFSMA_prec_cloud_063.txt.gz
Cloud_Cover
100 44 100 100 100 100 100 100 100 100 100 100 100 100 15 21 32 22 5 0 0 0 0 0 0 0 0 0 1 0 0 0 2 3 2 1 5 3 62 87 100 92 100
100 100 89 66 80 99 100 100 100 100 98 67 36 8 65 77 93 18 0 0 0 0 0 0 0 1 2 3 5 5 3 0 0 0 0 0 0 0 2 0 0 0 56
62 96 97 100 100 100 100 100 94 99 100 93 90 16 88 6 0 0 0 0 0 0 0 0 0 5 5 5 6 5 8 5 1 0 0 0 0 0 0 0 4 5 0
100 100 98 100 100 100 100 100 100 82 35 60 17 5 0 0 0 0 0 0 0 0 0 0 5 5 5 6 42 100 58 5 5 3 1 0 0 0 0 0 0 1 5
100 100 93 100 100 100 100 74 56 26 56 51 3 0 0 0 0 0 0 0 0 0 1 5 19 32 12 100 82 44 67 98 6 6 5 0 0 0 0 0 0 0 0
100 95 96 100 100 100 100 99 27 5 3 0 0 0 0 0 1 0 0 0 0 0 0 0 2 8 71 24 5 5 20 7 6 18 26 5 3 0 0 0 0 0 5
100 100 100 100 60 5 5 5 2 0 0 0 0 0 0 0 0 0 0 0 0 0 0 0 4 5 5 5 70 39 5 12 100 100 98 84 75 5 4 5 5 5 5
100 100 62 5 28 5 2 0 0 0 0 0 0 0 0 0 0 0 0 0 5 5 7 5 5 0 0 2 3 0 0 5 5 31 5 18 5 33 14 5 5 5 5
44 5 22 4 0 0 1 1 4 31 12 3 0 0 0 0 0 0 0 5 58 100 45 5 7 21 14 4 3 3 0 0 1 5 12 69 75 50 90 100 49 5 5
46 4 5 1 4 3 6 74 78 77 5 0 0 0 0 0 0 3 2 5 21 30 37 12 18 5 5 1 0 0 0 0 0 0 4 20 76 99 90 99 100 99 44
2 1 6 12 7 7 82 92 74 73 3 5 5 5 5 2 3 5 8 5 5 5 5 5 6 62 5 5 2 0 0 0 0 0 2 73 100 100 100 100 99 100 100
14 79 97 100 100 100 82 5 9 61 6 5 5 5 5 5 5 5 32 5 16 24 5 38 100 99 55 4 5 1 0 0 0 0 5 20 75 97 100 100 100 90 100
89 98 70 100 100 99 40 5 42 5 5 5 5 58 38 5 5 5 5 7 10 15 94 5 97 38 5 9 2 2 0 0 0 0 0 0 1 5 7 5 40 58 94
100 99 100 100 72 29 89 62 100 19 5 38 75 56 41 10 5 6 64 91 87 96 95 9 8 34 66 7 65 20 4 0 0 0 0 0 0 0 5 5 5 5 5
100 100 100 100 87 79 88 52 71 85 42 5 8 7 27 64 100 100 87 100 100 68 42 92 100 70 93 98 19 5 4 0 0 0 0 0 0 5 5 5 5 5 5
100 100 100 100 93 12 85 88 61 62 69 78 48 29 77 82 94 97 100 100 100 99 90 47 100 89 38 5 2 0 0 0 0 0 0 0 0 2 5 5 11 6 30
100 100 100 90 8 92 90 93 98 49 61 93 79 67 94 100 100 100 100 89 87 70 44 6 5 4 0 0 0 0 0 0 0 0 3 2 5 7 20 30 19 5 5
46 100 74 48 6 85 100 89 80 48 89 99 100 100 100 100 100 100 52 5 5 5 16 5 5 3 5 5 2 0 0 0 2 1 5 5 5 5 5 5 4 4 5
46 28 93 95 51 92 55 82 86 87 83 98 100 100 100 89 13 56 67 20 74 100 94 5 5 5 5 25 5 3 2 5 5 7 5 0 4 2 5 5 5 5 5
100 77 88 89 91 86 98 98 97 99 100 100 100 54 5 58 65 89 100 100 94 100 29 5 5 12 53 53 5 5 35 5 4 3 0 2 3 1 5 5 5 3 2
94 100 76 97 96 100 100 100 100 100 84 10 5 5 5 5 74 100 100 100 100 11 11 12 90 89 66 5 14 56 43 5 5 4 4 3 5 5 5 5 5 5 5
73 69 78 99 100 100 100 100 72 18 5 5 5 5 70 8 19 91 64 80 5 11 77 71 100 82 100 7 38 8 72 100 96 8 18 33 5 5 5 5 5 5 5
99 100 100 98 99 99 79 54 23 5 5 5 5 20 37 64 5 8 71 42 53 86 40 62 92 93 84 10 32 77 92 100 100 24 72 98 5 5 5 5 5 5 5
100 100 100 100 100 93 21 5 4 5 5 5 5 100 100 98 78 84 75 28 64 56 37 43 17 5 5 5 74 73 94 50 48 5 5 96 5 5 5 5 5 5 5
100 100 100 100 78 13 22 5 6 20 14 6 9 96 100 100 75 18 5 8 17 83 27 32 5 5 5 5 5 14 6 81 94 52 5 93 10 5 5 5 5 5 5
83 100 50 6 71 71 5 5 20 86 100 71 12 77 100 97 87 72 5 5 12 88 85 75 46 5 5 5 5 5 31 85 97 69 37 32 6 76 56 5 7 5 5

GFSMA_prec_cloud_066.txt.gz
Cloud_Cover
100 100 100 100 86 82 100 100 94 6 5 5 34 65 88 53 5 2 5 5 5 0 0 0 0 12 18 0 0 0 0 0 0 0 0 0 0 0 0 2 1 0 0
100 100 100 100 100 100 100 86 75 60 97 6 43 6 5 5 8 8 11 4 0 0 0 10 12 28 22 0 0 3 5 5 0 0 0 0 0 0 0 0 0 0 0
100 88 57 98 25 24 97 100 93 98 64 8 44 9 77 15 41 7 0 0 0 0 0 0 0 2 0 5 5 3 4 4 2 0 0 0 0 0 0 0 0 0 0
86 61 70 95 61 100 100 97 60 82 65 57 31 5 15 33 2 0 0 0 0 0 0 0 0 2 5 5 5 12 28 66 5 5 5 4 0 0 0 0 0 0 0
13 76 73 74 99 73 62 100 100 100 36 5 10 5 0 0 0 0 0 0 0 0 0 0 0 0 4 5 5 5 11 52 4 5 5 5 6 0 0 0 0 0 0
84 5 81 100 100 43 74 100 74 14 6 5 1 0 0 0 0 0 0 0 0 0 0 0 0 0 0 0 0 0 5 96 94 100 97 100 71 41 0 1 0 2 2
100 100 100 100 100 71 99 53 42 5 1 0 0 3 1 0 0 0 0 0 0 0 0 0 0 0 0 0 0 2 5 48 100 100 100 40 100 96 5 28 3 5 5
100 100 96 84 90 46 71 66 4 1 0 4 5 5 5 1 0 0 0 0 0 0 0 0 5 5 1 0 0 0 0 0 1 5 19 85 98 100 33 85 99 35 2
100 97 60 72 80 67 5 5 4 5 5 5 5 5 12 2 0 2 5 1 0 0 0 0 1 5 5 5 5 1 2 2 2 0 5 8 83 96 99 98 84 96 97
88 72 99 75 8 18 5 5 4 5 36 4 5 5 5 2 5 5 5 5 5 4 5 5 5 5 5 5 5 5 3 3 2 0 0 5 100 85 100 98 100 100 85
83 36 26 66 18 6 32 22 44 5 5 5 5 5 5 4 5 5 9 5 4 2 5 5 5 5 69 5 5 5 5 5 4 0 0 5 15 100 93 100 100 92 68
34 90 69 99 85 60 81 99 67 5 49 5 5 5 5 5 5 6 35 8 8 5 5 15 6 5 5 10 30 78 35 4 0 0 0 0 5 7 66 90 75 81 98
94 92 58 93 100 100 100 87 57 47 5 5 5 5 5 5 22 19 18 17 27 5 5 29 25 59 90 89 18 72 82 59 5 5 0 1 5 5 5 5 5 5 5
9 100 100 100 100 100 100 100 76 8 5 5 5 9 89 96 62 82 82 74 99 91 27 100 49 49 63 52 33 6 5 23 81 3 0 5 5 5 5 5 5 5 5
76 76 100 99 100 100 99 94 29 64 5 5 6 11 79 63 82 96 91 74 92 94 100 5 98 100 100 100 99 64 2 0 0 0 0 0 0 5 5 5 5 5 5
100 100 91 100 90 94 22 98 100 96 55 38 55 64 84 71 80 72 90 84 22 51 84 5 5 5 5 5 5 0 0 5 5 5 5 2 5 5 5 5 9 55 82
100 100 97 16 100 100 86 83 31 63 72 98 75 65 92 72 100 54 5 5 6 100 100 6 5 5 5 3 0 3 5 5 5 5 5 5 5 27 42 95 95 100 100
100 14 30 99 38 66 63 84 92 100 71 84 100 97 100 35 5 5 5 5 7 56 54 5 5 5 4 5 4 5 23 52 5 5 5 58 36 6 5 5 5 5 5
11 51 100 90 83 85 88 89 80 84 100 93 100 70 5 5 5 5 46 95 60 100 79 49 5 5 4 5 8 50 7 5 5 2 0 4 5 5 5 5 5 5 5
94 88 100 100 100 100 97 78 95 90 100 100 92 5 5 5 5 5 69 90 100 100 93 17 8 5 5 15 5 8 52 5 5 2 0 2 4 5 5 5 5 5 5
100 100 99 95 94 100 72 71 71 96 95 21 5 5 5 5 39 76 79 80 97 86 53 62 5 5 23 49 18 24 42 5 5 4 5 4 5 5 5 5 5 5 5
98 90 78 97 100 99 63 61 76 70 5 5 5 5 5 5 26 60 13 5 5 77 74 12 5 5 26 60 5 33 63 99 94 5 5 6 5 5 5 5 5 5 5
68 80 93 66 71 100 100 73 7 5 5 6 5 5 5 5 85 70 28 6 22 75 76 82 24 47 49 65 69 97 96 100 96 13 15 47 5 5 5 5 5 5 5
100 100 96 84 100 87 40 6 7 5 30 6 5 5 5 14 74 95 79 45 5 15 50 100 53 5 5 13 64 71 8 45 5 5 5 88 5 5 5 3 5 5 5
97 48 51 61 5 96 16 5 5 55 12 7 5 5 5 5 56 93 81 5 5 5 53 72 12 5 34 32 22 25 5 10 85 31 5 96 36 5 5 3 5 5 5
87 75 47 5 32 13 5 5 53 45 94 100 100 11 5 5 5 99 84 26 63 37 35 56 5 5 5 5 5 5 5 45 83 44 5 5 11 89 42 5 5 5 5

GFSMA_prec_cloud_069.txt.gz
Cloud_Cover
100 100 100 100 95 100 30 97 100 84 16 13 11 5 5 7 7 19 5 5 2 5 0 0 6 7 8 0 0 0 0 0 0 0 0 0 0 0 0 0 0 0 0
100 100 83 100 90 10 84 100 98 50 99 10 23 65 17 69 48 5 5 5 2 0 0 1 2 19 16 0 0 0 0 0 0 0 0 0 0 0 0 0 0 0 0
100 78 8 61 27 70 39 35 5 77 22 35 98 12 62 25 5 22 5 0 0 0 0 0 0 1 1 2 3 2 5 5 5 2 0 0 0 0 0 0 0 0 0
100 100 100 94 90 87 5 44 17 28 100 99 21 91 99 52 5 5 2 0 0 0 0 0 0 0 5 5 5 5 10 27 50 5 0 5 0 0 0 0 0 0 0
100 100 100 98 6 5 39 62 97 100 98 91 58 26 5 5 4 0 0 0 0 0 0 0 0 0 0 0 0 2 28 33 22 9 5 5 0 5 4 0 0 0 0
100 93 58 8 81 100 100 99 52 14 18 25 5 5 5 1 0 0 0 0 0 0 0 0 0 0 0 0 0 0 4 7 79 93 31 38 33 51 6 4 0 1 5
100 66 86 42 76 100 100 96 6 29 55 34 5 2 0 2 0 0 0 0 0 0 0 0 0 0 0 0 0 5 0 1 5 10 88 100 78 58 46 10 79 3 0
100 100 89 100 95 43 65 42 24 59 5 3 3 3 0 0 0 0 0 0 0 0 0 0 0 0 0 0 0 0 0 0 0 5 5 5 6 79 45 6 24 100 100
52 65 100 100 58 35 40 47 23 5 5 5 4 57 0 0 0 0 0 2 2 5 2 0 0 0 1 4 5 5 5 4 4 2 0 2 5 7 43 56 17 74 66
73 76 55 34 38 9 5 33 8 5 5 5 8 2 0 1 3 5 5 5 5 4 3 2 2 4 5 5 9 22 7 5 5 4 5 4 4 5 95 95 96 11 81
21 51 26 5 42 92 100 100 31 70 39 6 5 5 5 5 5 5 5 5 5 5 5 5 4 5 5 5 5 6 82 97 10 5 5 1 5 10 60 96 29 62 64
61 6 5 19 77 68 100 100 100 71 67 50 17 5 5 5 5 5 5 4 5 5 12 19 5 5 2 5 7 96 98 14 89 99 91 15 5 5 51 79 99 100 100
6 5 5 29 52 72 100 100 87 71 40 28 5 5 5 5 5 5 5 1 5 5 24 90 35 3 1 4 5 5 5 17 17 14 7 5 5 5 5 5 6 14 25
5 23 76 16 100 100 99 83 47 6 8 5 5 5 5 5 5 5 4 5 15 5 14 80 23 4 4 5 5 6 5 5 5 5 0 0 4 5 5 5 5 5 5
81 72 66 100 100 100 51 5 24 5 5 6 29 5 5 5 5 5 5 5 10 5 4 40 68 15 6 5 5 2 0 0 0 0 0 0 0 4 5 5 5 5 5
91 99 100 100 100 95 6 5 5 5 40 42 5 5 5 5 5 5 4 5 5 13 20 16 97 79 64 5 5 4 0 0 0 2 2 5 5 5 5 5 11 27 62
100 100 100 100 76 18 86 16 5 39 61 6 5 5 5 5 5 5 5 5 5 47 58 77 93 39 5 5 5 4 0 0 5 5 5 5 5 5 42 96 98 72 70
100 100 100 100 26 59 5 57 39 5 5 5 5 5 5 5 5 5 5 5 74 90 97 94 100 66 5 5 5 4 1 5 5 5 5 5 5 5 6 10 8 5 5
97 100 86 62 27 52 58 6 6 5 5 5 5 5 5 5 5 5 5 46 93 76 94 83 100 68 6 5 5 5 4 5 5 6 4 0 5 5 5 5 5 42 35
100 100 72 90 82 72 12 5 5 5 5 5 5 5 5 5 5 5 36 85 66 100 100 100 95 97 90 42 5 5 5 34 36 14 0 3 4 5 5 5 5 5 5
62 66 62 81 71 51 48 5 5 5 5 11 21 5 5 5 5 5 30 81 100 100 100 98 100 100 100 100 58 5 5 16 78 5 5 45 5 5 5 5 5 5 5
58 100 64 92 100 94 57 5 6 15 39 19 5 5 5 5 5 5 5 88 96 94 99 100 100 100 98 100 60 5 5 61 11 28 5 5 5 5 11 5 3 5 5
93 81 100 75 49 34 5 6 28 15 39 28 6 5 5 5 5 5 5 80 8 54 19 97 86 96 96 99 8 8 79 95 73 6 5 63 5 7 33 5 5 5 5
72 71 34 5 9 5 5 24 5 5 38 5 5 5 5 5 5 5 7 84 85 27 5 29 33 98 99 45 5 82 100 98 98 90 51 95 26 33 33 5 1 5 5
19 5 29 39 5 13 24 11 5 5 5 5 5 6 5 5 5 5 11 90 81 68 24 5 9 56 5 5 6 95 100 100 100 100 84 99 64 42 45 5 5 5 5
59 30 10 5 30 58 24 6 5 5 8 7 5 5 5 5 5 6 77 94 100 54 89 47 59 91 77 26 31 59 100 100 100 97 86 98 79 98 85 58 87 70 59

GFSMA_prec_cloud_072.txt.gz
Cloud_Cover
83 100 100 100 100 92 82 53 38 8 6 5 8 11 5 4 5 11 12 5 5 5 5 5 5 4 0 0 0 0 0 0 0 0 0 0 0 0 0 0 0 0 0
100 100 99 100 65 44 98 63 48 5 14 55 96 6 19 11 65 6 5 5 5 5 2 3 14 12 12 0 0 0 0 0 0 0 0 0 0 0 0 0 0 0 0
100 100 100 70 76 96 95 99 99 100 100 100 100 5 27 7 5 5 5 5 5 5 0 0 0 0 0 0 1 1 19 4 5 5 0 0 0 0 0 0 0 0 0
73 58 51 71 76 45 100 100 100 67 84 25 5 43 7 5 5 6 5 5 2 0 0 0 0 0 0 0 0 0 1 5 91 5 5 1 5 1 0 0 0 0 0
88 100 86 100 100 100 96 90 78 64 97 82 95 5 5 5 20 5 4 0 0 0 0 0 0 0 0 0 0 0 2 5 40 79 34 5 21 17 5 5 2 0 0
97 86 93 100 80 74 92 100 100 51 74 100 73 13 5 5 5 2 0 0 0 0 0 0 0 0 0 0 0 0 0 1 5 52 96 88 31 99 92 82 26 4 0
100 94 100 100 100 100 100 100 9 9 90 22 3 5 5 5 0 0 0 0 0 0 0 0 0 0 0 3 5 5 4 0 0 0 1 6 26 100 55 100 66 2 1
100 85 86 100 100 100 86 25 20 17 12 5 5 5 4 0 1 2 4 1 5 2 3 5 5 5 5 5 0 0 0 0 0 0 1 4 2 5 5 68 73 90 70
100 100 100 100 100 72 66 6 11 29 5 14 5 5 5 5 0 0 2 5 5 5 5 5 5 5 5 2 3 5 5 0 0 2 1 5 5 5 5 5 59 5 87
91 92 100 100 100 94 53 5 56 40 96 25 5 5 5 3 0 1 5 6 33 5 5 5 5 5 5 5 5 5 4 5 5 5 5 5 5 5 5 6 100 93 76
99 100 100 100 100 97 13 54 5 18 100 77 7 5 0 2 5 7 59 5 3 5 5 5 5 5 5 5 5 7 5 5 5 5 5 5 5 5 6 58 19 24 98
100 100 100 100 100 100 69 86 100 100 90 15 28 0 5 5 5 5 5 2 3 0 0 5 4 5 48 5 5 0 2 5 5 5 5 5 5 5 5 86 100 100 100
100 100 100 100 100 60 99 100 100 100 79 8 5 5 5 5 5 5 3 0 0 0 0 5 33 64 78 67 5 3 5 5 5 5 5 4 5 0 1 5 22 72 76
100 100 100 99 8 29 100 100 100 100 99 7 5 5 5 5 5 5 1 0 2 0 0 5 90 99 96 83 93 9 1 55 3 0 0 0 0 0 1 5 5 5 5
100 100 95 12 74 95 100 100 93 60 88 7 5 5 5 5 5 5 5 5 5 5 1 2 5 95 94 100 100 94 10 5 0 0 0 0 0 1 5 5 5 5 5
90 73 99 100 100 100 100 73 8 5 5 5 5 5 5 5 5 5 5 5 5 5 8 5 5 81 100 98 100 38 22 5 0 0 0 0 5 5 5 5 7 27 91
98 100 100 100 100 100 73 24 9 5 5 5 5 5 5 5 5 6 5 32 57 84 72 5 61 90 90 100 100 100 100 5 0 0 0 0 5 5 5 5 5 16 17
100 100 100 100 100 99 69 69 78 5 5 5 5 5 5 5 10 48 63 56 78 94 100 99 91 99 96 100 100 100 100 5 0 0 0 0 5 5 5 5 5 5 5
100 100 100 100 100 100 90 66 79 64 27 5 5 14 5 5 5 5 5 59 80 100 100 100 77 99 100 100 100 100 100 16 3 0 0 0 5 2 5 5 5 5 10
100 100 100 100 100 100 53 56 95 69 23 52 73 5 5 5 5 5 5 34 67 96 84 100 100 98 100 100 100 100 100 92 5 3 3 5 5 0 2 1 5 5 5
100 100 100 99 78 73 48 9 7 61 63 65 5 5 5 5 5 5 5 5 6 76 100 100 100 99 100 100 100 100 100 83 5 5 5 5 54 6 5 52 74 72 10
100 92 100 100 100 100 100 79 100 78 41 5 5 5 5 5 5 5 5 5 5 10 89 100 100 100 100 100 100 100 100 99 5 60 53 5 42 12 73 83 87 1 0
98 99 100 100 100 100 66 66 44 69 31 5 5 6 5 5 10 79 82 51 17 6 65 78 99 100 100 100 100 100 100 100 94 89 78 41 95 99 100 100 97 5 5
100 100 100 100 100 51 11 80 87 41 5 8 17 5 5 14 59 22 23 90 99 100 98 54 92 100 100 100 100 100 100 100 99 98 100 100 99 100 100 98 38 5 5
100 100 100 98 6 26 100 92 8 5 5 35 13 12 6 60 77 54 12 75 86 100 100 84 28 77 59 95 100 100 98 100 100 99 100 99 100 97 100 100 100 85 5
100 100 96 7 46 72 20 5 6 8 23 26 13 5 63 93 84 84 98 84 97 98 100 100 98 19 53 86 89 100 100 100 100 100 100 95 100 98 100 100 100 97 100

GFSMA_prec_cloud_075.txt.gz
Cloud_Cover
100 100 98 80 91 91 99 100 100 82 13 62 100 100 99 82 100 99 22 3 2 5 5 4 11 12 1 0 0 0 0 0 0 0 0 0 0 0 0 0 0 0 0
100 100 100 100 100 100 100 100 95 25 11 39 13 99 100 100 27 7 5 22 51 4 3 0 9 9 0 0 0 0 0 0 0 0 0 0 0 0 0 0 0 0 0
100 100 100 100 100 100 100 100 100 57 24 69 100 100 68 45 38 66 45 5 5 2 0 0 0 0 0 0 0 0 0 41 5 5 5 0 0 0 0 0 0 0 0
100 100 100 100 100 99 98 96 74 65 71 100 44 18 94 100 94 5 5 2 0 0 5 0 0 0 0 0 0 0 0 2 32 14 2 14 6 5 5 5 5 5 0
100 100 100 100 79 52 90 88 39 100 90 95 100 100 97 6 5 4 4 0 0 0 0 0 0 0 0 0 0 0 0 0 0 30 66 50 62 95 100 100 54 27 5
100 100 100 99 11 44 89 77 70 95 100 100 100 54 5 3 4 0 5 3 3 0 0 0 0 0 0 0 0 3 0 0 0 5 6 23 100 74 52 22 70 83 6
100 100 100 100 98 69 100 97 89 100 100 100 47 28 5 6 2 0 2 0 1 3 5 4 5 4 0 0 5 3 3 0 1 4 4 4 3 17 16 5 24 5 5
100 100 91 84 100 100 100 93 49 42 34 14 5 5 5 5 5 5 0 0 4 5 5 5 5 5 5 5 5 0 5 0 0 1 4 5 5 5 5 5 5 14 16
93 100 100 100 100 100 95 99 96 91 94 55 16 5 5 5 4 0 0 0 3 3 4 5 5 9 6 5 5 5 5 4 0 0 0 5 5 5 5 5 5 5 88
100 100 100 98 100 61 45 93 100 100 100 100 97 97 12 4 1 0 0 0 5 47 65 5 5 5 5 5 5 5 4 0 0 0 0 1 5 5 5 5 5 37 83
100 100 100 100 100 100 100 100 100 100 100 100 91 19 44 11 5 5 5 5 5 5 5 0 5 5 5 5 9 26 0 0 0 0 0 5 1 5 5 5 5 25 59
100 100 100 100 100 100 100 100 100 100 100 100 94 76 97 27 4 5 5 5 5 5 5 0 0 5 3 5 31 5 4 0 0 0 5 5 5 3 2 4 5 5 81
100 100 100 100 100 100 100 100 100 100 100 100 100 93 52 2 5 5 5 5 5 5 0 0 0 5 13 40 34 5 4 0 0 0 0 0 0 0 0 0 1 5 5
100 100 100 100 100 100 100 100 100 100 100 100 71 18 5 5 5 5 5 5 3 0 0 0 5 15 75 92 45 5 5 5 25 5 3 0 0 0 0 1 5 5 5
100 100 96 100 100 100 100 100 100 100 100 99 89 44 7 7 5 5 5 5 8 5 5 3 5 5 17 63 90 5 6 91 69 5 3 0 0 0 5 5 5 5 5
100 100 100 100 100 100 100 100 100 99 100 100 79 35 93 98 5 5 5 5 11 18 5 4 5 33 76 76 100 84 68 21 6 24 5 0 0 0 4 5 5 5 5
100 100 100 98 100 100 100 100 100 100 100 100 100 100 100 11 5 5 5 5 2 34 44 5 83 23 68 8 96 100 78 96 63 99 12 1 0 0 0 5 5 5 5
100 100 100 100 100 100 100 100 100 98 98 93 100 98 19 5 5 5 5 5 5 10 86 8 4 5 75 61 58 92 53 100 88 100 98 5 0 0 0 0 2 5 5
100 100 100 100 100 100 100 100 100 100 71 98 84 21 7 10 20 5 6 5 5 10 27 32 12 10 78 6 65 97 41 81 63 100 60 5 0 0 0 0 0 0 1
100 100 100 100 100 100 100 100 100 100 100 90 100 100 100 59 52 27 5 5 12 55 56 67 26 97 20 5 44 68 79 100 92 100 68 59 7 34 5 5 3 3 4
100 100 100 100 100 100 100 99 100 100 100 100 100 100 69 69 14 5 5 5 5 5 5 45 15 96 5 15 82 97 100 77 100 78 6 74 85 99 65 64 52 90 41
100 100 100 100 100 100 100 100 100 100 100 100 100 81 25 15 5 7 98 78 5 5 5 5 5 5 5 98 100 98 69 100 84 97 22 21 95 88 79 57 100 15 5
100 100 100 96 96 100 100 100 100 100 100 100 99 87 8 20 33 5 5 76 93 91 92 100 44 5 5 86 100 87 27 85 97 96 99 26 40 69 100 100 98 77 5
100 96 90 100 100 100 100 100 100 100 100 100 49 6 17 56 35 82 83 23 15 7 98 69 70 64 87 78 99 98 100 92 31 85 100 18 86 79 100 84 9 58 52
100 100 100 100 100 100 100 100 100 93 93 80 61 61 22 5 5 5 8 58 5 5 71 100 12 83 97 100 80 99 67 99 36 92 100 93 87 68 70 25 61 91 71
100 100 100 100 100 100 93 87 100 100 57 78 7 5 5 5 5 5 5 7 89 71 49 100 88 22 92 71 54 71 88 97 67 67 100 84 100 100 58 12 86 7 49

GFSMA_prec_cloud_078.txt.gz
Cloud_Cover
100 100 100 100 100 100 97 99 79 100 67 99 100 47 53 45 70 58 99 100 38 5 23 100 19 18 0 0 0 0 0 0 0 0 0 0 0 0 0 0 0 0 0
100 100 100 100 100 100 100 100 99 73 100 99 100 100 100 100 21 100 100 5 74 96 51 3 0 5 0 0 0 0 0 3 0 0 0 0 0 0 0 0 0 0 0
100 100 100 100 100 100 100 100 100 100 100 100 64 79 84 50 82 9 70 99 18 16 5 0 0 0 0 0 0 0 0 0 0 13 4 1 7 25 5 5 5 5 5
100 100 100 100 100 100 88 95 71 97 62 61 100 53 78 96 29 31 25 5 5 5 4 0 0 0 0 0 0 0 0 0 0 0 6 10 10 14 41 100 100 43 5
100 100 100 99 99 100 100 100 100 92 95 41 76 100 100 100 68 5 5 5 2 0 0 0 0 0 0 0 0 0 0 0 0 1 0 27 48 27 80 63 43 58 62
100 100 100 100 100 100 100 97 94 78 74 99 100 100 100 94 75 6 5 5 5 0 0 0 0 0 0 0 0 0 0 0 0 1 4 3 12 27 4 92 52 24 9
100 100 100 100 100 100 100 72 44 100 79 98 100 100 100 98 33 5 5 4 2 0 0 0 0 0 0 0 2 2 0 0 0 0 4 5 5 5 5 5 5 7 70
100 100 100 100 100 95 96 100 97 61 95 100 100 57 99 34 98 99 44 18 30 82 7 0 4 2 0 0 1 2 4 5 5 5 2 4 4 5 5 5 5 5 5
100 100 96 100 100 98 69 68 100 100 84 59 94 100 100 99 85 11 29 8 5 2 0 0 5 0 4 5 5 5 5 5 5 0 0 2 5 5 5 5 5 5 5
100 100 100 100 75 100 100 100 100 100 100 81 100 100 100 100 100 100 98 9 2 5 5 5 0 4 3 4 5 5 5 3 0 0 0 0 5 5 5 5 5 5 5
98 100 100 100 100 99 100 100 100 100 100 100 100 100 99 94 64 100 100 84 31 73 5 4 0 0 0 5 5 5 0 0 0 0 0 0 5 5 5 5 5 5 5
100 100 100 100 100 88 100 100 100 100 100 100 100 100 100 100 100 100 58 1 0 0 0 4 1 5 4 2 5 4 5 0 0 0 0 0 0 0 5 5 5 5 5
100 100 100 100 100 100 100 100 100 100 100 100 100 100 100 100 89 95 59 5 5 4 5 10 5 4 0 0 5 5 5 2 0 0 0 0 0 0 4 4 4 5 5
100 100 100 98 100 100 100 100 100 100 100 100 100 100 100 100 100 96 100 25 5 6 5 5 5 4 0 1 5 5 5 10 5 2 0 0 0 0 0 0 5 5 5
100 100 100 100 100 100 100 100 100 100 100 100 100 100 100 100 100 100 90 5 1 6 53 5 5 0 0 0 0 1 5 5 5 8 5 1 0 2 0 0 4 5 5
94 100 100 100 100 100 100 100 100 100 100 100 100 100 100 100 100 100 100 7 74 31 5 5 5 5 0 0 5 16 100 94 5 11 76 24 4 5 4 0 0 0 5
100 100 100 100 100 100 100 100 100 100 100 100 100 100 100 98 100 99 97 100 57 33 5 5 5 5 5 5 4 5 70 71 100 5 94 100 2 5 5 0 0 0 4
91 100 100 100 100 100 100 100 100 100 100 100 100 100 100 100 100 100 100 55 94 97 36 5 5 50 64 96 99 100 43 67 63 4 100 74 1 12 0 0 0 0 0
100 100 99 98 100 100 100 100 100 100 100 100 100 100 100 100 100 100 100 100 100 94 46 96 5 5 17 72 100 54 8 92 4 59 100 63 67 5 5 0 4 5 5
100 100 100 100 100 100 100 100 100 100 100 100 100 100 100 100 100 100 100 100 61 33 14 5 5 5 52 16 5 5 3 5 86 89 60 10 44 29 8 21 31 5 20
100 99 100 100 100 100 100 100 100 100 100 100 100 100 100 100 100 100 71 73 98 40 37 11 41 5 15 3 4 3 5 46 55 94 100 27 41 5 5 95 37 5 44
100 100 100 100 100 99 100 100 98 100 100 100 100 100 100 100 100 100 100 93 33 8 16 72 98 81 41 91 35 5 78 100 96 24 100 21 8 5 67 58 51 90 94
100 100 100 100 95 100 99 92 100 100 100 100 100 97 100 100 100 100 93 82 44 70 70 99 99 82 66 38 98 5 5 95 75 5 6 5 53 5 5 6 30 99 5
100 100 100 100 100 80 42 89 100 63 100 100 100 100 100 100 100 90 20 17 65 16 19 98 95 73 72 6 100 32 16 30 5 5 5 5 42 5 20 97 84 26 5
100 100 79 76 82 11 37 99 95 98 100 100 100 100 100 100 66 45 34 16 5 7 5 5 17 8 22 11 100 88 79 94 5 57 5 5 5 34 93 89 92 6 32
100 70 92 61 59 80 100 96 53 62 58 100 100 100 100 60 58 42 8 5 5 5 5 10 5 42 64 97 100 73 96 26 52 16 31 27 5 64 31 100 81 5 51

GFSMA_prec_cloud_081.txt.gz
Cloud_Cover
100 100 100 100 100 100 100 100 100 100 93 94 93 100 67 78 5 10 64 90 45 28 34 57 22 28 9 0 0 0 0 2 0 0 0 0 0 0 0 0 0 0 0
97 100 100 100 100 100 100 100 100 100 98 100 100 100 94 72 100 53 8 5 5 14 9 28 5 5 3 0 0 0 0 1 0 49 2 0 7 1 1 0 1 4 4
100 100 100 100 100 100 100 100 100 100 100 100 100 100 100 82 10 5 5 44 92 99 70 5 5 5 5 0 0 0 0 1 8 1 3 5 54 58 14 6 96 56 8
100 100 100 100 100 100 100 100 100 100 100 100 100 94 99 54 43 83 95 100 65 98 5 6 5 4 4 0 0 0 0 0 0 0 6 96 88 16 5 24 36 10 12
100 100 100 100 100 100 100 100 100 100 100 100 100 100 100 71 76 100 100 100 82 58 33 5 5 5 1 0 0 0 0 0 0 0 0 1 14 69 41 68 10 83 76
96 100 96 100 100 100 99 100 100 83 92 100 76 95 35 94 100 100 96 98 100 14 27 6 6 5 2 4 4 6 4 4 0 0 0 0 1 2 0 2 5 5 68
100 100 100 100 100 100 99 95 100 81 91 67 93 100 100 100 100 94 68 7 48 100 100 100 49 91 94 100 5 9 5 4 5 2 0 0 2 5 5 5 5 5 5
100 100 100 100 100 100 100 100 100 100 93 100 100 100 100 100 100 99 100 100 100 100 100 96 17 88 100 97 0 0 0 0 0 0 0 1 5 5 5 5 5 5 16
100 100 100 100 100 100 88 100 100 100 100 100 100 97 100 99 29 89 100 100 97 93 76 98 100 100 91 4 2 5 5 3 0 3 4 2 0 0 5 5 5 5 5
95 100 100 99 100 100 100 100 100 100 88 100 100 97 96 86 49 100 68 42 96 85 92 67 35 18 5 5 5 1 1 5 5 0 0 0 0 0 2 5 5 5 5
100 100 100 100 100 100 100 100 100 100 100 99 66 100 100 100 100 100 100 100 76 85 63 13 5 5 5 0 0 0 0 0 0 0 0 0 0 0 1 5 5 5 5
100 100 100 100 100 100 100 100 100 96 100 100 99 87 99 100 100 100 100 100 100 100 100 100 22 2 4 0 0 0 0 0 0 2 1 0 0 4 0 5 4 4 5
100 98 100 100 100 100 97 99 100 100 100 100 100 100 100 100 100 97 92 90 58 95 100 100 100 75 43 6 2 0 0 0 0 2 5 5 5 2 5 4 0 0 0
100 97 100 98 100 100 100 100 100 100 100 100 100 100 100 100 100 100 68 60 68 89 100 68 98 100 50 5 5 5 5 0 0 1 5 5 5 5 0 5 12 3 0
100 99 57 99 100 100 99 97 100 100 100 100 100 100 100 100 100 100 100 58 73 74 100 100 100 98 99 100 29 5 4 3 0 3 5 5 5 30 44 8 21 3 0
87 96 98 77 100 100 100 100 100 100 100 100 100 100 100 100 100 100 100 100 100 100 57 100 100 100 97 50 5 5 5 3 5 5 11 5 5 78 72 85 30 0 0
100 100 100 100 100 99 99 73 100 100 100 100 100 100 100 100 100 100 100 100 100 100 100 100 100 98 53 27 82 12 61 92 100 100 96 100 75 93 36 19 0 0 0
100 100 100 74 74 100 100 43 100 100 100 100 100 100 100 100 100 100 100 100 100 100 89 63 94 55 72 100 70 12 25 100 100 100 100 99 38 95 95 4 0 2 1
100 100 100 100 100 100 97 100 100 100 100 100 100 100 100 100 100 100 99 49 6 31 76 31 17 5 6 77 88 100 63 7 5 5 2 1 5 100 37 5 11 5 5
100 97 63 100 100 100 100 100 100 100 100 100 90 98 63 43 75 10 5 33 83 98 100 100 76 5 5 5 11 7 5 44 5 0 5 6 59 100 63 84 89 38 5
93 100 90 100 100 100 100 100 93 100 55 20 31 27 5 5 5 5 5 5 5 7 18 71 12 9 72 39 48 5 85 29 3 3 5 54 100 100 19 77 52 6 5
100 100 100 100 100 100 100 100 100 86 97 98 90 39 5 5 5 5 5 6 97 15 41 5 6 5 5 7 77 100 98 100 51 5 5 5 9 5 3 5 5 5 5
100 100 100 100 100 100 100 96 20 95 97 91 64 5 51 47 39 6 65 86 76 85 82 5 5 44 64 35 81 87 59 65 10 79 93 77 22 3 4 5 4 5 81
100 100 100 100 100 95 42 63 84 87 98 96 95 98 92 99 90 77 95 100 100 100 14 5 5 5 5 5 14 52 9 43 24 67 13 10 5 5 1 5 4 13 88
100 100 100 93 55 86 99 94 96 100 99 100 100 100 100 100 100 100 96 100 100 92 22 5 5 5 5 5 32 100 100 100 92 50 68 37 5 5 5 3 4 97 46
100 100 100 84 99 96 94 98 100 100 100 99 100 100 100 100 100 100 100 100 88 11 5 5 36 89 6 5 50 100 98 100 100 73 75 95 75 8 5 5 5 87 78

GFSMA_prec_cloud_084.txt.gz
Cloud_Cover
100 100 100 99 98 100 100 75 73 99 100 100 100 100 100 88 88 88 98 49 59 99 79 8 17 25 12 89 81 15 5 2 0 7 0 0 2 0 0 0 0 2 0
73 92 100 78 89 96 86 94 100 100 95 80 98 100 100 88 91 100 100 100 71 97 85 26 80 94 100 67 5 3 3 2 0 50 0 0 6 32 18 34 6 98 51
100 100 98 99 97 99 100 100 100 100 100 100 100 100 100 100 100 100 100 100 100 12 6 72 100 92 24 5 5 5 5 0 0 0 2 22 100 18 2 4 4 1 9
97 100 100 100 100 100 100 100 100 100 100 100 100 96 100 83 72 100 100 47 96 89 99 100 57 11 5 5 5 5 5 5 5 5 5 5 3 78 85 95 62 5 9
95 88 64 100 99 87 99 98 78 86 99 94 63 93 72 96 100 100 100 100 45 100 93 7 6 8 50 26 14 7 5 5 5 6 5 4 0 1 0 1 5 5 5
99 80 9 84 48 52 76 96 100 100 29 22 74 72 100 94 94 86 81 100 64 18 39 56 57 100 98 98 86 95 86 87 72 9 5 0 0 0 1 3 5 5 5
95 52 50 67 43 81 99 100 100 100 100 98 95 98 100 88 100 100 99 100 100 100 96 67 100 100 100 100 100 100 57 100 98 22 5 5 0 0 0 0 2 5 5
100 100 100 99 100 96 100 100 100 100 61 96 100 99 100 100 100 100 97 98 24 26 15 75 100 100 100 94 28 66 100 54 32 8 4 0 0 0 0 0 5 5 5
100 100 100 100 100 100 96 100 95 100 100 100 100 100 100 100 100 100 99 100 100 100 100 100 100 99 100 100 100 100 90 86 88 2 0 0 0 0 0 0 2 5 5
100 100 100 100 100 100 100 100 100 100 100 100 100 100 100 100 100 100 87 97 100 42 66 100 97 100 100 100 94 33 59 62 1 0 0 0 0 0 0 0 0 4 5
100 100 100 100 100 94 100 77 54 100 99 100 100 100 100 99 63 100 100 70 58 53 83 90 100 23 12 5 5 22 2 2 5 2 3 5 5 0 0 0 1 5 5
100 100 100 100 100 100 100 100 100 100 100 100 100 100 100 100 100 100 100 100 100 100 100 100 72 8 5 5 5 5 4 4 3 5 5 2 0 5 4 2 5 5 5
100 100 100 98 77 80 82 91 97 73 93 100 100 100 100 100 100 99 100 100 100 98 100 100 89 5 6 18 5 2 4 5 5 5 5 5 4 2 5 5 5 5 5
42 73 93 88 100 100 97 100 100 100 98 100 100 100 100 100 100 100 100 100 99 100 100 100 100 100 100 91 8 5 47 97 24 5 5 5 4 5 5 0 5 5 5
56 60 54 100 99 100 100 100 100 93 99 96 100 100 100 100 100 100 100 100 100 92 92 100 100 100 86 100 72 77 39 5 6 5 5 19 12 10 10 5 6 5 5
13 97 100 100 100 100 97 100 83 100 81 100 100 100 100 100 100 100 100 95 63 100 100 100 100 100 64 50 27 48 43 82 35 96 95 6 41 98 100 100 100 16 11
100 100 100 100 100 100 48 100 93 100 100 100 100 100 100 100 100 100 100 100 100 79 61 99 94 94 18 5 14 30 44 53 72 100 68 49 100 28 84 58 93 5 9
100 100 100 100 100 84 97 98 100 100 58 94 100 100 100 100 100 100 100 82 74 16 9 61 76 5 5 8 6 63 29 69 28 5 5 6 39 17 0 45 73 94 81
100 100 100 100 100 100 100 100 98 100 100 100 100 100 100 90 100 71 18 32 10 5 5 3 5 5 5 43 12 5 5 5 5 5 5 6 78 1 2 6 98 99 98
100 100 100 100 100 100 100 99 97 100 100 100 100 100 100 88 7 13 64 10 5 5 5 21 5 8 53 91 8 5 5 5 5 5 5 96 5 6 5 100 100 100 100
100 100 100 100 100 100 100 100 100 100 100 100 100 100 68 68 70 50 5 5 19 58 98 100 84 35 80 14 6 5 5 7 5 5 5 50 100 95 5 22 61 33 19
100 100 100 100 100 100 100 100 100 100 100 100 100 96 100 100 82 5 61 90 100 99 99 73 5 5 5 7 28 75 100 68 76 30 6 5 5 5 5 77 62 61 100
100 100 100 100 100 100 100 100 100 100 100 100 80 98 100 99 79 89 76 83 100 100 83 9 6 83 100 100 100 82 11 34 90 57 88 6 84 5 5 14 5 4 0
100 100 100 100 100 100 100 100 100 100 94 89 96 100 100 100 100 93 73 86 100 100 100 91 97 100 100 100 60 17 56 98 81 94 100 98 55 6 5 5 5 5 2
100 100 100 100 100 100 86 100 100 81 96 100 82 97 96 95 98 82 96 100 100 100 100 100 100 100 100 100 100 83 100 100 100 100 100 100 97 98 50 52 100 17 5
100 100 100 100 100 100 100 100 100 100 100 100 99 83 82 85 100 100 100 100 91 81 100 100 100 100 100 100 100 100 100 100 100 100 100 100 100 100 32 41 95 78 5

GFSMA_prec_cloud_087.txt.gz
Cloud_Cover
100 100 100 99 100 100 44 34 31 88 100 96 45 66 77 98 96 13 99 99 63 45 93 100 64 34 94 24 24 10 5 5 8 56 5 3 22 6 9 4 2 64 49
100 100 100 99 100 100 93 15 9 18 79 99 100 100 97 86 93 85 100 100 100 100 100 100 99 100 100 71 5 5 12 5 39 49 5 5 67 5 3 3 2 1 0
100 100 100 100 98 98 100 93 12 52 90 100 100 100 99 98 100 100 100 100 100 92 100 100 100 100 45 7 5 5 5 38 5 54 38 11 5 86 93 5 1 0 5
100 100 100 94 100 100 100 100 96 100 100 100 99 100 100 95 72 100 56 46 90 62 68 100 62 39 5 15 5 90 14 73 65 90 90 8 12 22 5 5 5 5 5
100 100 100 100 100 100 69 94 100 100 100 95 61 64 82 94 100 97 99 92 40 70 100 100 25 5 6 34 95 8 71 85 100 81 55 22 5 5 28 5 5 5 2
100 100 100 99 94 83 58 87 100 100 100 100 100 52 92 100 100 92 81 96 100 100 100 98 100 93 93 20 42 72 91 100 38 28 5 5 51 36 5 5 4 0 2
96 77 96 65 86 74 100 100 100 100 100 100 100 100 100 100 100 78 100 100 100 100 100 100 100 26 86 100 88 100 99 10 5 5 95 5 5 4 5 0 0 0 0
100 100 92 100 100 100 100 100 100 100 100 100 100 100 100 100 100 100 100 100 100 100 82 48 38 83 91 99 75 31 98 100 60 97 100 26 5 5 0 0 0 0 0
100 100 100 100 100 100 100 100 100 100 100 100 100 100 100 100 100 100 100 83 100 86 67 99 100 100 81 69 65 77 99 100 100 100 34 5 5 5 0 2 2 0 0
100 100 100 100 100 100 100 100 100 98 100 93 63 96 100 100 100 100 100 100 75 46 92 87 68 45 5 41 100 100 100 100 100 100 97 100 95 5 5 1 5 0 0
100 100 100 100 100 100 100 100 99 100 100 100 100 100 100 100 100 95 95 99 95 21 18 46 13 13 6 6 71 97 100 100 100 99 74 59 5 5 5 3 5 5 5
100 100 100 100 100 100 100 100 100 100 100 100 85 100 100 100 100 100 98 100 96 32 68 98 99 91 100 100 100 100 71 17 56 5 5 5 5 5 4 5 5 5 5
100 100 100 100 100 100 20 22 32 95 100 100 100 100 100 100 100 100 100 100 100 100 100 100 100 100 100 100 78 84 100 56 10 21 8 5 2 5 5 5 5 5 7
72 61 67 84 82 33 37 100 97 100 100 100 100 100 100 100 100 100 100 100 100 100 100 100 100 100 100 100 100 79 5 5 5 12 5 5 5 5 5 5 5 51 71
85 81 56 23 62 100 100 98 45 43 94 51 100 100 98 100 100 100 100 100 100 100 100 100 100 100 100 91 6 2 1 5 5 5 5 74 5 8 9 6 5 5 5
5 66 81 98 87 100 86 100 59 68 96 95 99 99 76 99 100 92 100 100 100 100 100 100 93 25 5 5 3 4 5 18 40 82 5 83 93 99 96 5 23 72 4
5 67 81 100 100 100 100 100 92 100 96 100 100 100 100 100 100 100 100 100 100 100 93 6 5 5 5 49 83 82 41 48 84 100 100 100 100 100 8 5 5 4 0
52 100 100 100 100 100 100 100 100 100 100 100 100 100 100 100 100 100 100 100 100 100 41 5 5 39 81 92 100 100 100 100 100 100 100 100 100 14 5 5 5 5 0
100 100 100 100 100 100 100 100 100 100 100 100 100 100 100 100 100 100 100 100 100 51 5 5 5 9 80 100 100 100 98 100 97 54 100 100 93 5 5 8 100 6 5
100 100 100 100 100 100 100 100 100 100 100 100 100 100 100 100 100 100 100 100 18 6 15 15 11 9 22 80 52 83 72 18 5 41 100 64 14 5 5 24 5 5 5
100 100 100 100 100 100 100 100 100 100 100 100 100 100 100 100 100 100 100 40 61 85 84 51 10 6 65 99 98 80 11 11 23 77 68 90 14 5 5 38 31 6 54
100 100 100 100 100 100 100 100 100 100 100 100 100 100 100 100 97 100 100 100 100 98 97 58 78 90 100 100 99 87 7 5 24 97 73 9 57 28 8 5 5 87 56
100 100 100 100 100 100 100 100 100 100 100 100 100 100 100 100 87 82 100 100 100 100 76 66 59 98 99 99 86 44 13 23 70 86 98 27 83 36 32 68 100 89 98
100 100 100 100 100 100 100 100 100 100 100 100 100 100 100 100 94 100 100 95 97 100 98 55 45 100 70 67 71 36 95 100 100 100 100 100 67 49 100 97 100 100 15
100 100 100 100 100 100 100 100 100 100 100 100 100 90 100 100 100 99 100 98 100 100 100 100 100 99 100 100 100 95 100 100 100 91 100 100 100 100 100 74 98 98 66
100 100 100 100 100 100 100 100 100 100 100 100 100 100 100 100 100 100 100 100 100 100 100 100 100 100 100 100 100 100 100 100 100 100 100 100 100 99 97 8 100 100 100

GFSMA_prec_cloud_090.txt.gz
Cloud_Cover
97 100 96 80 95 44 58 98 100 100 95 99 100 100 100 100 99 91 100 100 100 100 100 100 100 100 100 100 100 100 100 100 68 12 12 38 7 5 5 5 4 42 50
100 100 100 100 100 70 99 100 98 100 96 94 100 100 100 100 100 100 100 100 100 100 100 100 100 100 65 97 100 48 78 17 6 52 9 89 74 22 28 35 73 12 0
100 100 100 100 100 100 56 99 83 80 100 88 91 100 100 100 100 100 100 100 100 100 100 62 48 79 98 91 45 32 21 7 79 37 98 54 98 27 75 97 5 5 0
100 94 100 100 100 96 99 100 84 100 98 87 90 100 90 98 100 100 100 100 100 100 100 100 100 100 41 99 100 100 98 100 100 99 39 49 94 92 97 30 5 5 4
100 98 95 100 100 100 100 99 100 100 100 100 100 100 100 100 100 100 100 100 100 100 100 100 100 100 100 100 100 100 100 100 100 80 91 88 23 17 53 5 2 5 5
100 100 100 100 100 100 96 96 100 100 100 100 100 100 100 100 100 100 100 100 100 100 100 100 100 100 100 100 100 100 99 100 64 56 6 5 9 5 5 5 2 0 2
100 100 100 100 100 100 99 100 100 100 100 100 100 100 100 100 100 100 100 100 100 100 100 100 100 100 100 100 100 48 10 13 16 5 5 5 78 5 5 7 26 5 91
100 100 100 100 100 100 100 100 100 96 100 100 100 100 100 100 100 100 100 100 100 100 100 100 100 100 89 48 14 5 33 5 5 11 30 74 8 74 100 100 94 54 5
100 100 100 100 100 100 100 100 100 100 100 100 98 100 100 100 99 100 100 100 100 100 100 100 90 100 49 52 34 14 42 88 89 98 63 100 100 100 100 43 25 5 2
100 100 100 100 100 100 100 100 100 100 100 100 100 100 100 100 100 100 100 49 100 100 96 90 80 92 74 95 96 100 100 100 100 100 100 100 100 100 100 61 33 5 5
100 100 100 100 100 100 100 100 100 100 100 100 100 100 98 100 100 60 100 94 46 79 76 98 100 100 100 100 100 100 100 100 100 100 100 100 100 76 8 30 65 21 14
100 100 100 100 100 100 100 100 100 100 100 100 94 100 100 75 100 94 100 100 100 98 96 100 100 100 100 100 100 100 100 100 100 95 57 5 1 0 4 10 32 88 100
100 100 100 100 100 100 100 100 100 100 100 100 90 100 100 62 100 97 100 95 100 100 100 100 100 100 100 100 100 100 100 52 5 5 5 3 0 2 5 5 5 9 65
100 100 100 100 100 100 89 92 92 100 100 100 52 50 43 98 100 100 90 100 100 100 100 100 100 100 100 100 99 12 7 5 5 5 5 5 5 5 5 5 5 5 6
100 100 100 100 100 98 99 58 100 100 100 91 68 47 47 84 100 99 98 100 100 100 100 100 100 100 100 100 78 7 10 7 97 81 5 5 5 5 5 5 5 5 5
67 64 60 38 69 88 100 96 100 100 100 100 99 100 100 94 100 100 100 100 100 91 97 100 100 100 100 100 80 23 5 5 5 5 5 7 17 6 49 18 47 22 46
5 5 43 74 70 100 98 100 100 100 100 100 100 100 100 100 100 100 100 100 100 87 99 100 100 100 98 78 99 33 80 32 42 66 93 100 99 72 95 100 100 97 34
35 95 95 85 100 100 100 100 100 100 100 100 100 100 100 100 100 100 100 100 100 100 100 100 100 100 93 92 78 100 100 100 90 100 100 100 100 100 82 53 94 5 5
100 96 100 100 100 100 100 100 100 100 100 100 100 100 100 100 100 100 100 100 100 100 100 100 100 90 25 100 100 100 100 100 100 100 100 100 100 100 100 100 81 5 5
100 100 100 100 100 100 100 100 100 100 100 100 100 100 100 100 100 100 100 100 100 100 100 100 96 62 76 100 100 98 94 100 81 100 100 100 100 100 100 90 14 9 7
96 100 99 100 100 100 100 100 100 100 100 100 100 100 100 100 100 100 100 100 100 100 100 100 83 85 100 100 97 64 53 26 19 97 100 100 100 100 100 89 97 96 60
100 100 100 100 100 100 100 100 100 100 100 100 100 100 100 100 100 100 100 100 100 100 100 100 100 100 100 100 100 100 90 52 14 98 68 92 100 100 100 84 100 98 99
100 100 100 100 100 100 100 100 100 100 100 100 100 100 100 100 100 100 100 100 100 100 100 100 100 100 100 100 100 100 100 87 100 100 91 100 99 98 97 100 99 100 100
100 100 100 100 100 100 100 100 100 100 100 100 100 100 100 100 100 100 100 100 100 100 100 100 100 100 100 100 100 98 99 100 100 100 100 90 98 68 79 100 100 100 100
100 100 100 100 100 100 100 100 100 100 100 100 100 100 100 100 100 100 100 100 100 100 100 100 100 100 100 100 100 100 100 100 100 95 85 88 91 82 100 100 100 100 39
100 100 100 100 100 100 100 100 100 100 100 100 100 100 100 100 100 100 100 100 100 100 100 100 100 100 100 100 100 100 100 100 100 98 100 98 100 100 100 100 98 10 12

GFSMA_prec_cloud_093.txt.gz
Cloud_Cover
100 100 98 98 84 96 84 100 100 94 98 76 53 94 41 96 80 34 98 100 100 100 100 100 100 100 100 100 100 100 100 100 100 100 100 84 42 58 74 99 39 5 44
100 100 99 100 100 96 99 100 98 92 82 60 77 28 28 73 100 100 100 100 100 100 100 100 100 100 100 100 100 100 100 100 100 100 100 100 100 100 98 21 6 5 41
98 100 100 100 100 99 90 100 100 98 88 60 99 87 87 73 87 100 100 86 100 100 100 100 100 100 100 100 100 100 93 100 100 100 100 100 100 100 100 100 82 5 5
100 100 100 100 100 100 97 94 100 98 86 81 99 98 90 99 100 100 100 100 100 100 100 100 100 100 100 99 93 44 100 100 100 100 100 95 76 99 95 34 17 5 5
100 100 100 100 100 100 98 100 100 100 99 49 78 98 96 96 100 100 100 100 100 100 100 100 100 100 98 100 100 100 100 100 100 100 97 72 30 73 38 14 12 5 5
100 100 100 100 100 95 100 89 99 100 78 68 100 90 99 100 100 100 100 100 100 100 100 100 100 100 100 100 100 100 100 100 98 100 100 96 95 37 14 7 5 5 75
100 100 100 100 100 100 100 95 94 90 91 100 100 100 100 100 100 100 100 100 100 100 100 100 100 100 100 100 79 60 100 100 100 100 99 17 5 5 5 7 100 100 14
100 100 100 100 99 99 100 100 100 100 100 100 100 100 100 100 100 100 100 100 100 100 100 100 60 10 38 100 100 97 100 88 96 46 72 94 4 5 28 100 100 70 2
100 100 100 100 100 100 100 100 100 100 100 100 100 100 100 100 100 100 100 100 100 97 11 44 41 71 58 66 46 38 8 5 5 5 8 89 77 100 100 79 5 7 1
100 100 100 100 100 100 100 100 100 100 100 100 100 100 100 100 100 100 100 100 93 64 79 77 93 98 61 87 61 57 88 99 100 77 100 100 100 100 23 12 53 95 100
100 100 100 100 100 100 100 100 100 100 100 100 100 100 100 100 100 84 13 69 40 64 100 98 100 76 91 100 97 100 100 100 100 100 100 97 12 5 5 5 5 9 90
100 100 100 100 100 100 100 100 100 100 100 100 100 100 100 100 63 100 100 100 100 100 87 78 100 100 100 100 100 90 100 100 97 73 15 5 5 5 5 5 5 5 88
100 100 100 100 100 100 100 100 100 100 100 100 100 73 78 100 100 100 98 96 80 99 100 100 100 100 100 100 100 100 100 100 95 99 10 11 27 54 6 5 5 23 5
100 100 100 100 100 100 100 100 100 99 100 79 89 83 100 100 100 100 86 83 100 100 100 100 100 100 100 100 100 100 100 100 96 10 5 43 40 5 8 72 7 28 58
100 100 100 100 100 100 98 98 100 100 100 97 61 61 98 100 82 100 100 74 100 100 100 100 95 62 25 100 100 100 100 100 22 20 6 40 40 10 5 6 17 41 5
100 100 100 100 100 100 100 100 100 100 95 100 100 100 100 100 100 100 100 100 100 100 100 84 72 68 23 61 87 99 100 100 100 100 100 100 99 85 99 10 69 8 5
98 68 9 6 44 37 80 95 93 91 100 100 100 98 100 100 100 100 100 100 100 100 95 100 100 71 92 60 100 100 100 100 100 100 93 68 80 35 10 39 60 35 5
98 64 16 14 80 100 100 100 100 100 100 100 100 100 100 100 100 100 100 100 100 100 100 100 100 100 100 100 100 100 100 100 100 100 100 100 98 71 26 93 100 100 94
19 5 7 52 48 100 100 100 100 100 100 100 100 100 100 100 100 100 100 100 100 100 100 100 100 100 100 100 100 100 100 100 100 100 100 100 100 100 100 100 100 100 67
5 5 5 33 82 100 100 100 100 100 100 100 100 99 100 100 100 100 100 100 100 100 100 100 100 100 100 100 100 90 100 100 100 100 100 100 100 100 100 100 90 96 100
37 92 47 93 94 100 98 100 100 100 100 100 100 100 100 100 100 100 100 100 100 100 100 100 100 100 100 100 100 100 100 100 100 100 100 100 100 100 100 100 100 100 100
84 99 100 100 100 100 100 100 100 100 100 100 100 100 100 100 100 100 100 100 100 100 100 100 100 100 100 100 100 100 100 100 100 100 100 100 100 100 100 100 100 100 100
71 79 99 100 100 100 100 100 100 100 100 100 100 100 100 100 100 100 100 100 100 100 100 100 100 100 100 100 100 100 100 87 100 100 99 79 100 100 100 100 100 100 100
100 100 100 100 100 100 100 100 100 100 100 100 100 100 100 100 100 100 100 100 100 100 100 100 100 100 100 100 100 100 100 97 91 100 100 100 100 100 100 100 100 100 100
100 100 100 100 100 100 100 100 100 100 100 100 100 100 100 100 100 100 100 100 100 100 100 100 100 100 100 100 100 100 100 100 100 100 100 100 100 100 100 100 100 100 100
100 100 100 100 100 100 100 100 100 100 100 100 100 100 100 100 100 100 100 100 100 100 100 100 100 100 100 100 100 100 100 100 100 100 100 100 100 100 100 100 100 100 100

GFSMA_prec_cloud_096.txt.gz
Cloud_Cover
100 100 100 97 100 34 92 36 100 100 100 100 100 100 100 58 61 70 70 92 100 32 6 83 77 81 80 29 88 100 100 100 100 100 100 100 100 100 100 100 100 100 100
100 100 100 100 100 86 100 53 44 100 100 100 100 100 59 75 78 98 20 5 59 21 8 91 83 92 100 100 100 100 100 100 100 100 99 100 100 100 100 100 100 88 63
100 100 100 99 98 87 81 100 100 96 100 100 92 89 90 39 73 5 12 93 30 94 100 100 100 100 100 100 100 100 100 100 97 56 99 100 100 100 100 93 11 31 5
100 100 100 100 98 90 100 72 100 91 81 79 99 74 87 58 66 93 68 98 100 100 100 100 100 100 100 100 100 100 100 100 100 100 100 100 100 100 64 6 32 5 4
100 100 100 96 86 100 100 100 100 86 78 92 75 99 18 81 99 84 100 100 100 100 100 100 100 100 100 100 100 100 100 100 100 100 100 50 92 90 96 7 5 5 5
100 100 96 100 100 100 100 100 90 78 92 81 87 75 67 91 100 100 95 96 100 100 100 100 100 100 100 100 100 100 100 100 27 6 70 90 69 89 14 5 5 5 3
100 100 100 100 100 100 100 100 97 84 71 92 97 96 88 100 100 100 100 100 100 100 100 100 100 100 100 100 100 47 28 46 49 23 10 23 5 5 6 6 5 50 91
100 100 100 100 100 75 100 100 100 100 100 99 100 97 100 100 100 100 100 100 100 100 100 100 100 100 100 94 95 100 86 97 82 88 38 42 3 2 5 2 2 85 100
100 100 100 100 100 100 98 100 100 93 93 100 100 100 100 100 100 100 100 100 100 100 100 100 100 86 96 66 100 97 97 6 5 12 8 23 67 77 99 100 100 75 5
100 100 100 100 100 100 100 100 100 99 100 100 100 100 100 100 100 100 100 100 100 100 100 76 41 81 100 100 88 40 7 42 5 5 5 6 47 7 43 38 95 93 100
100 100 100 100 100 100 100 100 100 100 100 100 100 100 100 100 100 100 94 100 95 100 71 65 88 100 98 37 48 100 100 100 65 5 5 5 7 47 9 10 5 10 28
100 100 100 100 100 100 100 100 100 100 100 100 100 100 100 100 100 100 98 100 100 100 96 98 100 100 98 87 96 100 100 100 52 14 58 18 100 100 100 99 100 91 8
100 100 100 100 100 100 100 100 100 100 100 100 100 100 100 100 100 100 97 98 100 100 91 85 25 95 100 100 100 85 100 100 98 85 100 57 28 74 100 100 100 90 100
100 100 100 100 100 100 100 100 100 100 100 100 100 100 100 100 100 100 100 100 100 100 44 96 88 100 100 100 93 100 93 100 22 86 93 7 100 100 93 86 100 100 100
100 100 100 100 100 100 100 100 100 100 100 100 100 96 81 42 96 100 100 100 100 100 100 100 100 100 100 100 97 16 73 53 11 5 5 20 99 100 100 100 100 100 100
100 100 100 100 100 100 100 100 100 100 96 98 46 100 87 98 100 100 100 100 100 100 100 100 100 100 100 100 66 16 8 81 21 10 100 100 100 100 100 100 94 88 22
100 100 100 100 100 100 100 86 22 90 96 94 100 100 100 100 99 100 100 100 100 100 100 100 100 100 100 100 79 96 73 51 77 100 100 93 100 100 100 100 68 9 5
100 59 99 30 27 7 9 21 86 88 100 100 100 100 100 99 100 100 100 100 100 100 100 100 100 100 100 100 100 100 100 100 100 100 100 100 69 90 100 26 13 97 100
15 20 13 15 5 5 55 7 9 37 94 99 100 100 98 100 100 100 100 100 100 100 100 100 100 100 100 99 100 100 100 100 100 100 100 100 100 96 100 100 100 61 15
50 12 5 5 5 5 5 27 85 87 100 95 92 86 93 100 100 100 100 100 100 100 100 100 100 100 100 100 100 100 100 100 100 100 100 100 100 100 100 100 100 99 93
85 81 33 5 20 46 28 49 61 84 100 100 100 100 100 100 100 100 100 100 100 100 100 100 100 100 100 100 100 100 100 100 100 100 100 100 100 100 100 100 100 97 94
0 0 1 18 19 49 100 100 100 100 100 100 100 100 100 100 100 100 100 100 100 100 100 100 100 100 100 100 100 100 100 100 100 100 100 100 100 100 100 100 100 100 100
86 56 80 100 100 100 100 100 100 100 100 100 100 100 100 100 100 100 100 100 100 100 100 100 100 100 100 100 100 100 100 100 100 100 100 100 100 100 100 100 100 100 100
100 100 100 100 100 100 100 100 100 100 100 100 100 100 100 100 100 100 100 100 100 100 100 100 100 100 100 100 100 100 100 100 100 100 100 100 100 100 100 100 100 100 100
100 100 100 100 100 100 100 100 100 100 100 100 100 100 100 100 100 100 100 100 100 100 100 100 100 100 100 100 100 100 100 100 100 100 100 100 100 100 100 100 100 100 100
100 100 100 100 100 100 100 100 100 100 100 100 100 100 100 100 100 100 100 100 100 100 100 100 100 100 100 100 100 100 100 100 100 100 100 100 100 100 100 100 100 100 100

GFSMA_prec_cloud_099.txt.gz
Cloud_Cover
100 100 100 100 100 100 100 100 100 100 100 87 99 100 100 35 100 100 100 85 34 67 92 20 57 19 100 90 100 100 100 77 90 92 100 100 100 100 100 69 69 91 93
100 100 100 100 100 100 100 100 100 100 96 100 93 100 98 100 100 100 63 13 6 15 88 61 20 79 99 99 100 100 100 100 93 100 100 100 23 75 100 100 100 100 100
100 100 100 100 100 100 100 100 76 86 99 100 74 100 100 46 100 96 100 99 95 5 5 76 98 100 100 100 100 100 89 100 100 100 100 100 100 100 100 100 100 100 79
100 100 100 100 100 100 100 100 91 100 100 100 88 100 100 100 100 100 100 57 34 30 66 100 100 100 100 100 100 100 100 100 100 100 100 99 94 100 100 100 64 5 5
100 100 100 97 100 100 100 99 100 99 97 100 98 97 100 100 100 70 62 19 31 95 100 100 100 100 100 100 100 100 100 100 100 100 100 100 57 37 5 4 5 5 5
100 100 100 100 100 100 100 100 100 100 100 98 89 94 75 36 5 86 29 27 99 100 100 100 100 100 100 100 100 100 100 100 100 99 86 50 9 5 5 5 15 5 39
100 100 100 100 100 100 100 100 100 100 100 98 100 96 50 100 89 77 45 99 100 100 100 100 100 100 100 100 100 100 100 100 100 100 10 98 48 39 6 6 5 5 5
100 100 100 100 100 100 100 100 100 100 75 100 87 100 78 90 94 100 100 100 100 100 100 100 100 100 100 100 100 100 100 57 100 100 10 45 41 10 37 38 5 2 0
100 100 100 100 100 100 100 100 100 98 100 96 100 100 94 100 100 100 100 100 100 100 100 100 100 100 100 100 100 68 88 100 88 7 50 78 60 21 3 2 0 0 0
100 100 100 100 100 100 100 100 100 100 100 100 100 100 99 100 100 100 100 100 100 100 100 100 100 100 100 74 29 76 98 72 55 30 94 6 5 24 99 99 94 92 99
100 100 100 100 100 100 100 100 100 100 100 100 100 100 100 100 100 100 100 100 100 100 100 100 99 99 100 12 84 80 97 74 19 42 100 87 5 5 99 86 82 83 100
100 100 100 100 100 100 100 100 100 100 100 100 100 100 100 100 100 100 100 100 100 100 100 100 100 100 100 65 78 95 63 44 61 94 100 100 87 34 40 65 47 100 90
100 100 100 100 100 100 100 100 100 100 100 100 100 100 100 100 100 100 100 100 100 100 100 94 100 100 100 100 87 39 100 100 100 100 100 100 100 100 100 100 39 92 100
100 100 100 100 100 100 100 100 100 100 100 100 100 100 100 100 100 100 100 100 48 19 21 96 95 100 100 100 100 100 100 100 100 100 100 100 100 100 100 100 70 10 9
100 100 100 100 100 100 100 100 100 100 100 100 100 100 100 100 100 100 100 77 59 50 48 82 100 100 100 100 100 100 100 100 100 100 100 100 100 99 100 6 40 100 100
100 100 100 100 100 100 100 100 100 100 100 100 100 100 100 100 98 51 87 100 99 93 94 95 98 75 100 100 100 100 100 100 100 100 100 100 100 90 100 51 86 89 100
100 100 100 100 100 100 100 100 100 100 100 100 84 93 83 97 92 94 100 100 100 100 100 100 100 98 100 100 100 100 100 100 100 100 100 100 100 100 100 100 100 100 100
100 100 100 100 100 100 100 100 100 100 100 98 100 8 56 93 100 100 100 100 100 100 100 100 100 100 100 100 100 100 100 100 100 100 100 100 100 100 100 100 100 100 100
100 100 100 100 100 100 100 100 86 29 4 5 41 69 64 82 100 99 100 100 100 100 100 100 100 100 100 100 100 100 100 100 100 100 100 100 100 100 100 100 100 100 100
60 54 59 64 44 32 44 41 73 26 3 5 77 97 89 91 100 100 100 100 97 100 100 100 100 100 100 100 100 100 100 100 100 100 100 100 100 100 100 100 100 100 100
28 35 30 29 58 77 60 30 49 48 89 100 100 100 100 100 100 100 100 100 100 100 100 100 100 100 100 100 100 100 100 100 100 100 100 100 100 100 100 100 100 100 100
85 88 100 96 100 100 100 100 100 100 100 100 100 100 100 100 100 100 100 100 100 100 100 100 100 100 100 100 100 100 100 100 100 100 100 100 100 100 100 100 100 100 100
100 100 100 100 100 100 100 98 100 100 100 100 100 100 100 100 100 100 100 100 100 100 100 100 100 100 100 100 100 100 100 100 100 100 100 100 100 100 100 100 100 100 100
100 100 100 100 100 100 100 100 100 100 100 100 100 100 100 100 100 100 100 100 100 100 100 100 100 100 100 100 100 100 100 100 100 100 100 100 100 100 100 100 100 100 100
100 100 100 100 100 100 100 100 100 100 100 100 100 100 100 100 100 100 98 100 100 100 100 100 100 100 100 100 100 100 100 100 100 100 100 100 100 100 100 100 100 100 100
100 100 100 100 100 100 100 100 100 100 100 100 100 100 100 100 100 100 100 100 100 100 96 100 100 100 100 100 100 100 100 100 100 100 100 100 100 100 100 84 100 100 100

GFSMA_prec_cloud_102.txt.gz
Cloud_Cover
78 63 74 99 76 100 100 100 100 100 100 100 100 100 100 99 87 100 100 62 100 100 100 54 61 48 94 91 88 92 89 100 78 48 100 100 100 100 100 100 100 88 65
99 100 99 96 98 52 100 100 100 100 100 100 100 100 100 100 100 100 100 100 100 100 67 100 100 100 33 83 100 100 100 100 98 33 100 100 100 99 100 100 100 100 100
100 99 100 100 100 85 100 100 100 100 100 100 100 100 100 100 100 100 100 100 100 100 89 91 99 94 8 100 100 100 100 100 100 90 98 100 100 100 100 100 100 27 17
94 100 100 96 100 100 100 100 100 100 100 100 100 100 100 100 100 100 100 100 100 100 100 98 93 82 100 100 100 100 100 100 100 100 100 86 100 100 100 100 54 18 7
100 100 100 100 100 100 97 99 100 100 100 100 98 96 100 96 100 100 100 91 100 12 70 43 100 90 84 100 100 100 100 100 100 100 100 100 100 100 100 100 60 51 5
100 100 100 100 100 100 100 100 100 100 100 100 99 100 100 97 100 100 100 100 98 60 34 100 100 100 100 100 100 100 100 100 100 100 100 100 100 100 100 25 5 5 68
100 100 100 100 100 100 100 100 100 100 100 87 100 100 100 54 94 100 99 11 5 14 74 99 100 100 100 100 100 100 100 100 100 100 100 100 100 13 5 12 5 6 100
100 100 100 100 100 100 100 100 100 98 100 100 100 100 100 98 20 73 9 21 6 96 100 100 100 100 100 100 100 100 100 100 100 100 99 36 5 28 5 5 84 5 4
100 100 100 100 100 100 100 100 94 100 100 100 98 100 100 100 90 41 30 81 100 100 100 100 100 100 100 100 100 100 100 100 97 16 5 10 39 12 5 22 5 5 8
100 100 100 100 100 100 100 100 100 100 100 100 100 100 92 83 70 90 100 100 100 100 100 100 100 100 100 100 100 100 97 22 5 70 100 100 71 6 18 12 29 92 48
100 100 100 100 100 100 100 100 100 100 100 100 100 100 78 84 98 100 100 100 100 100 100 100 100 100 100 100 100 100 99 94 100 58 91 100 100 100 34 100 100 100 100
100 100 100 100 100 100 100 100 100 100 100 100 100 97 100 100 100 100 100 100 100 100 100 100 100 100 100 100 92 42 87 100 98 100 100 100 100 100 78 100 100 100 100
100 100 100 100 100 100 100 100 100 100 100 100 100 100 100 100 100 100 100 100 100 100 100 100 100 100 100 99 61 59 92 92 100 74 93 100 100 100 100 100 100 100 100
100 100 100 100 100 100 100 100 100 100 100 100 100 100 100 100 100 100 100 100 100 100 100 100 100 96 85 97 99 99 98 99 100 100 100 100 100 100 100 100 100 100 100
100 100 100 100 100 100 100 100 100 100 100 100 100 100 100 100 100 100 100 100 100 100 100 100 100 78 100 68 93 100 100 100 100 100 100 100 100 100 100 100 100 100 100
100 100 100 100 100 100 100 100 100 100 100 100 100 100 100 100 100 100 100 100 100 93 98 96 55 98 99 94 100 100 100 100 100 100 100 100 100 100 100 100 100 100 100
100 100 100 100 100 100 100 100 100 100 100 100 100 100 100 100 100 100 100 100 81 68 86 100 92 100 100 53 100 100 100 100 100 100 100 100 100 100 100 100 100 100 100
100 100 100 100 100 100 100 100 100 100 100 100 100 100 100 100 100 100 100 93 53 94 100 100 100 100 100 100 100 100 100 100 100 95 99 100 100 100 100 100 100 100 100
100 100 100 100 100 100 100 100 100 100 100 100 100 100 100 100 93 100 98 100 100 100 100 100 100 100 100 100 100 100 100 100 100 100 100 100 100 100 100 100 100 100 100
100 100 100 100 100 100 100 100 100 100 100 100 100 100 100 93 98 83 100 100 100 100 100 100 100 100 100 100 100 100 100 100 100 100 100 100 100 100 100 100 100 100 100
100 100 100 100 100 100 100 100 100 100 100 100 100 90 99 100 100 100 100 100 100 100 98 100 100 100 100 100 100 100 100 100 100 100 100 100 100 100 100 100 100 100 100
96 100 100 100 100 100 100 100 100 100 100 100 100 100 100 100 100 95 100 100 87 100 99 100 100 100 100 100 100 100 100 100 100 100 100 100 100 100 100 100 100 100 100
100 100 100 100 100 100 100 100 100 100 100 100 100 100 100 100 100 100 100 100 90 100 99 100 99 100 100 100 100 100 100 100 100 100 100 100 86 100 100 100 100 100 100
100 100 100 100 100 100 100 100 100 100 100 100 100 100 100 100 100 100 99 100 94 100 78 97 96 100 100 100 100 100 100 100 100 100 100 100 100 100 100 100 100 100 100
100 100 100 100 100 100 100 100 100 100 100 100 100 100 100 100 100 100 100 100 95 96 97 52 77 86 91 100 100 100 100 100 100 100 100 100 100 98 66 62 89 100 100
100 100 100 100 100 100 100 100 100 100 100 100 100 100 100 100 100 99 62 54 93 52 84 100 100 100 100 100 100 100 100 100 100 100 100 100 77 99 52 5 57 100 100

GFSMA_prec_cloud_105.txt.gz
Cloud_Cover
100 100 71 92 11 72 100 100 99 100 100 100 100 100 100 100 100 100 100 39 53 100 99 100 100 100 100 66 98 11 18 80 69 94 96 37 89 27 27 6 5 66 43
100 100 98 100 66 68 76 84 100 100 100 100 100 100 100 100 100 100 100 100 100 100 100 100 74 95 100 100 97 42 99 100 71 99 65 96 91 48 49 52 68 84 100
100 98 86 85 98 74 100 100 100 100 100 100 100 100 100 100 100 100 100 100 100 100 100 100 100 100 100 75 100 56 100 91 98 100 100 93 88 99 99 96 100 100 100
100 89 41 72 100 83 100 48 100 100 95 100 100 100 100 100 100 100 100 100 100 100 100 100 100 97 100 81 92 100 98 100 98 78 100 100 100 100 100 100 100 100 100
100 100 82 76 100 100 100 100 100 100 100 100 100 100 100 100 100 89 100 100 100 100 100 100 100 100 91 68 98 54 97 100 100 82 100 100 100 100 100 100 100 100 100
98 96 80 88 95 99 100 100 100 100 100 99 100 100 100 100 100 98 85 98 100 100 100 100 54 53 9 96 63 97 100 100 100 100 100 100 100 100 100 100 100 90 5
100 100 100 100 78 100 100 100 100 100 100 100 100 100 100 100 100 100 100 100 8 51 5 91 26 5 39 100 46 100 100 100 100 100 100 100 100 100 100 78 48 5 6
100 100 100 100 100 100 100 100 100 100 100 100 94 97 90 100 97 100 100 100 100 88 96 27 64 89 74 100 85 100 100 100 100 100 100 100 100 100 11 7 5 4 5
100 100 100 100 100 100 100 100 100 100 100 100 100 100 98 100 42 100 100 98 86 100 89 88 55 100 100 100 96 100 100 100 100 100 100 100 94 10 5 5 50 20 33
100 100 100 100 100 100 100 100 100 100 100 97 100 100 100 100 88 78 74 98 54 98 52 88 100 100 97 99 100 100 100 100 100 100 100 99 52 99 65 80 14 28 6
100 100 100 100 100 100 100 100 100 100 100 100 100 100 100 100 100 96 92 45 18 98 99 100 100 100 100 100 100 100 100 100 100 100 16 6 12 70 75 95 92 99 92
100 100 100 100 100 100 100 100 100 100 100 100 100 100 100 98 99 88 27 5 96 100 100 100 100 100 100 100 100 100 100 100 100 97 100 100 100 100 100 95 100 100 100
100 100 100 100 100 100 100 100 100 100 100 100 100 100 100 98 79 71 88 97 100 100 100 100 100 100 100 100 100 100 100 100 100 100 100 100 100 100 100 100 100 100 100
100 100 100 100 100 100 100 100 100 100 100 100 100 100 100 100 100 100 100 100 100 100 100 100 100 100 100 100 100 100 99 86 92 100 100 100 100 100 100 100 100 100 100
100 100 100 100 100 100 100 100 100 100 100 100 100 100 100 100 100 100 100 100 100 100 100 100 100 100 100 100 100 98 37 100 100 100 100 90 100 100 100 100 100 100 100
100 100 100 100 100 100 100 100 100 100 100 100 100 100 100 100 100 100 100 100 100 100 100 100 100 100 100 65 96 79 97 93 100 100 99 100 54 93 100 100 100 100 100
100 100 100 100 100 100 100 100 100 100 100 100 100 100 100 100 100 100 100 100 100 100 100 100 100 100 98 86 79 100 100 100 100 99 52 48 34 77 82 100 100 100 100
100 100 100 100 100 100 100 100 100 100 100 100 100 100 100 100 100 100 100 100 100 100 100 100 100 100 100 100 99 98 100 76 97 67 100 92 100 100 100 100 100 100 100
100 100 100 100 100 100 100 100 100 100 100 100 100 100 100 100 100 100 100 100 100 100 100 100 100 100 100 100 100 100 100 100 100 100 100 100 100 100 100 100 100 100 100
100 100 100 100 100 100 100 100 100 100 100 100 100 100 100 100 100 100 100 100 100 100 96 100 97 100 90 98 100 100 100 100 100 100 100 100 100 100 100 100 100 100 100
100 100 100 100 100 100 100 100 100 100 100 100 100 100 100 100 100 100 100 100 100 100 100 100 100 100 81 99 100 95 97 100 100 100 100 100 100 100 100 100 100 100 100
100 100 100 100 100 100 100 100 100 100 100 100 100 100 100 100 100 100 100 100 100 100 100 100 100 100 100 100 100 100 100 100 100 100 100 100 98 100 100 100 100 100 100
100 100 100 100 100 100 100 100 100 100 100 100 100 100 100 100 100 100 100 100 100 100 100 100 100 100 100 100 100 85 74 100 100 81 99 100 94 44 95 100 100 100 100
100 100 100 100 100 100 100 100 100 100 100 100 100 100 100 100 100 100 100 100 100 100 100 58 100 98 42 93 86 92 94 46 67 79 67 62 49 87 100 100 100 100 100
100 100 100 100 100 100 100 100 100 100 100 100 100 100 100 100 100 100 100 100 100 93 97 9 39 69 94 95 99 54 34 39 51 21 98 100 99 100 100 100 100 100 75
100 100 100 100 100 100 100 100 100 100 100 100 100 100 100 100 100 100 100 100 99 76 38 20 27 49 96 99 96 78 77 100 100 80 58 82 25 66 60 6 4 1 0

GFSMA_prec_cloud_108.txt.gz
Cloud_Cover
100 100 100 100 99 91 88 86 96 100 97 100 88 33 100 100 100 100 100 100 100 72 85 100 100 29 94 82 100 99 55 23 98 71 100 53 28 65 50 11 12 15 95
100 100 100 78 100 72 46 80 80 75 100 100 11 100 90 36 100 100 100 100 100 100 99 100 94 100 100 96 48 32 100 98 100 24 75 38 100 100 84 65 93 98 100
100 100 94 77 100 5 74 81 66 100 99 100 100 77 100 100 100 100 100 100 100 94 100 100 100 100 100 98 46 95 95 100 45 7 5 17 100 100 100 99 100 100 100
100 100 95 100 68 6 14 80 62 88 100 100 99 46 56 100 100 100 100 100 100 99 99 100 100 100 100 100 100 77 88 100 92 77 86 91 44 10 100 100 100 100 100
100 100 100 100 97 100 96 90 95 100 56 100 100 100 96 100 100 100 100 100 100 100 100 100 100 100 100 100 100 100 100 85 65 68 8 29 81 86 100 100 100 100 100
100 100 98 100 77 51 100 59 94 100 100 100 100 100 100 100 100 100 100 100 100 100 100 100 100 96 40 27 77 35 68 94 98 55 93 100 100 100 100 100 100 100 100
100 100 97 100 63 82 100 100 100 100 100 100 100 100 100 100 100 100 100 100 100 100 100 100 100 22 5 5 5 49 83 84 91 77 95 100 100 100 100 100 100 100 100
100 100 92 99 99 43 100 97 100 100 98 100 100 100 100 100 100 100 100 100 99 100 100 100 100 51 6 38 100 95 96 65 100 100 100 100 100 100 100 100 100 61 5
100 100 100 100 100 100 100 99 100 100 100 100 100 100 100 100 100 100 100 100 100 99 88 97 25 8 24 34 89 44 17 5 100 100 100 100 100 100 100 100 97 100 87
100 100 100 100 100 100 100 100 100 100 100 100 100 100 100 98 98 100 100 100 100 97 98 42 94 34 77 38 60 81 32 100 100 100 100 100 100 100 100 95 85 99 100
100 100 100 100 100 100 100 100 100 100 100 100 100 100 100 100 100 100 100 100 100 100 100 98 57 82 89 67 55 91 99 100 100 100 100 100 100 98 100 100 100 100 100
100 100 100 100 100 100 100 100 100 100 100 100 100 100 100 100 100 100 100 100 100 100 99 100 100 100 94 74 100 100 100 100 100 100 100 100 94 100 100 100 100 100 100
100 100 100 100 100 100 100 100 100 100 100 100 100 100 100 100 100 100 100 100 100 100 96 100 100 100 100 100 100 100 100 100 100 100 100 100 92 100 100 100 100 100 100
100 100 100 100 100 100 100 100 100 100 100 100 100 100 100 100 100 100 100 100 100 100 100 100 86 100 99 100 100 100 100 100 100 100 100 100 100 100 100 100 100 100 100
100 100 100 100 100 100 100 100 100 100 100 100 100 100 100 100 100 100 100 100 100 100 100 100 100 100 98 100 100 100 100 100 100 100 100 93 89 100 100 100 100 100 100
100 100 100 100 100 100 100 100 100 100 100 100 100 100 100 100 100 100 100 100 100 100 100 100 100 100 100 100 100 100 100 100 100 100 100 74 95 100 100 100 100 100 100
100 100 100 100 100 100 100 100 100 100 100 100 100 100 100 100 100 100 100 100 100 100 100 100 100 100 100 100 100 100 100 100 81 100 100 100 100 100 100 100 100 100 100
100 100 100 100 100 100 100 100 100 100 100 100 100 100 100 100 100 100 100 100 100 100 100 100 100 100 100 100 100 100 100 100 100 100 100 100 100 84 99 100 100 100 100
100 100 100 100 100 100 100 100 100 100 100 100 100 100 100 100 100 100 100 100 100 100 100 100 100 100 100 100 100 100 52 100 100 100 100 100 100 100 100 100 100 100 100
100 100 100 100 100 100 100 100 100 100 100 100 100 100 100 100 100 100 100 100 100 100 100 100 100 100 100 100 100 100 96 100 85 100 70 53 97 100 100 100 100 100 100
100 100 100 100 100 100 100 100 100 100 100 100 100 100 100 100 100 100 100 100 100 100 100 100 100 100 100 100 100 100 100 54 98 100 58 75 83 65 91 91 62 70 94
99 100 100 100 100 100 100 100 100 100 100 100 100 100 100 100 100 100 100 100 100 100 100 100 100 100 100 100 100 100 100 99 96 11 63 30 84 60 16 8 6 86 49
51 86 100 100 100 100 100 100 100 100 100 100 100 100 100 100 100 100 100 100 100 100 100 100 100 100 100 100 100 100 100 100 100 92 49 6 57 99 100 99 8 28 88
80 100 100 100 100 100 100 100 100 100 100 100 100 100 100 100 100 100 100 100 100 100 100 100 100 100 100 100 100 100 100 96 46 61 88 96 68 45 62 9 5 72 5
100 100 100 100 100 100 100 100 100 100 100 100 100 100 100 100 100 100 100 100 100 99 100 100 100 100 100 100 57 7 50 45 47 50 91 15 5 57 4 2 4 5 0
100 100 100 100 100 100 100 100 100 100 100 100 100 100 100 100 100 100 100 100 99 100 98 100 47 5 5 5 5 7 38 39 35 21 20 4 5 5 5 0 3 3 5

GFSMA_prec_cloud_111.txt.gz
Cloud_Cover
100 100 100 100 64 93 87 92 100 99 85 100 100 100 100 99 84 93 98 100 100 94 100 100 90 91 100 100 80 100 85 22 5 5 54 68 46 80 96 35 45 91 99
100 100 100 100 70 40 31 100 99 99 100 97 100 87 83 18 58 100 100 100 100 100 100 99 59 100 100 99 41 55 5 6 14 99 38 37 16 74 98 92 68 38 9
100 100 100 100 83 74 5 48 23 77 88 95 61 100 86 62 99 100 100 100 100 16 37 18 82 100 51 30 5 8 98 13 31 11 96 100 100 100 95 60 15 3 5
100 100 100 100 73 57 66 35 56 88 99 38 85 100 37 90 62 67 100 100 89 5 37 17 32 45 85 68 59 100 100 100 93 83 49 41 100 98 94 98 32 47 100
100 100 100 96 56 72 58 59 44 100 94 84 100 100 95 27 50 100 100 100 100 100 100 100 100 99 100 100 100 100 100 87 97 84 99 100 99 100 28 88 100 100 100
100 100 100 100 73 100 100 100 20 100 100 89 100 99 99 63 92 91 100 100 100 100 100 100 100 100 100 100 100 96 96 91 100 53 100 100 99 50 44 88 100 100 100
100 100 100 100 94 100 100 100 93 82 90 100 100 100 100 89 100 100 100 100 100 98 100 100 100 100 100 100 100 100 100 100 100 100 100 98 15 16 93 100 100 100 54
100 100 100 100 100 98 97 57 30 96 62 100 100 100 100 98 100 100 100 84 100 100 93 100 100 100 100 100 100 89 100 97 95 28 40 41 48 44 100 100 100 100 100
100 100 100 100 100 100 97 74 76 75 100 100 100 100 100 100 100 100 100 100 100 100 100 100 100 100 92 37 89 62 5 31 43 93 49 35 54 100 100 100 100 100 100
100 100 100 92 100 100 100 92 100 100 100 100 83 100 100 100 100 100 100 100 100 100 100 100 100 100 100 59 100 78 6 57 61 72 53 13 19 100 100 100 100 100 100
100 100 100 100 100 100 100 100 100 100 99 100 100 100 100 100 100 100 100 100 100 100 100 100 100 100 76 10 83 100 99 70 99 84 92 100 100 100 100 100 100 100 100
100 100 100 100 100 100 100 100 98 100 100 100 100 100 100 100 100 100 100 100 100 100 100 100 100 100 84 90 84 100 100 100 99 79 100 100 100 100 100 100 100 100 100
100 100 100 100 100 100 100 100 100 100 100 100 100 100 100 100 100 100 100 100 100 100 100 100 100 100 88 41 88 100 100 96 100 92 98 100 100 100 100 100 100 100 100
100 100 100 100 100 100 100 100 100 100 100 100 100 100 100 100 100 100 100 100 100 100 100 100 100 100 100 86 100 98 98 100 100 100 100 100 100 100 100 100 100 100 100
100 100 100 100 100 100 100 100 100 100 100 100 100 100 100 100 100 100 100 100 100 100 100 100 100 100 100 100 100 100 100 100 100 100 100 100 100 100 100 100 100 99 100
100 100 100 100 100 100 100 100 100 100 100 100 100 100 100 100 100 100 100 100 100 100 100 100 100 100 98 100 100 100 100 100 100 100 100 100 100 100 100 100 100 100 100
100 100 100 100 100 100 100 100 100 100 100 100 100 100 100 100 100 100 100 100 100 100 100 100 100 95 100 100 100 100 100 100 100 100 100 100 100 100 100 100 100 99 100
100 100 100 100 100 100 100 100 100 100 100 100 100 100 100 100 100 100 100 100 100 100 100 100 100 100 100 100 100 100 100 100 100 100 100 100 100 100 100 100 100 100 100
100 100 100 100 100 100 100 100 100 100 100 100 100 100 100 100 100 100 100 100 100 100 100 100 100 100 100 100 100 100 100 100 100 100 100 100 100 100 100 100 100 100 100
100 100 100 100 100 100 100 100 100 100 100 100 100 100 100 100 100 100 100 100 100 100 100 100 100 100 100 100 100 100 100 100 100 100 100 100 100 100 100 100 100 99 100
100 100 100 100 100 100 100 100 100 100 100 100 100 100 100 100 100 100 100 100 100 100 100 100 100 100 100 100 100 100 100 100 100 100 100 100 100 100 56 81 100 100 100
87 98 100 100 100 100 100 100 100 100 100 100 100 100 100 100 100 100 100 100 100 100 100 100 100 100 100 100 100 100 100 100 97 100 100 100 100 100 100 100 70 92 25
100 100 100 100 100 100 100 100 100 100 100 100 100 100 100 100 100 100 100 100 100 100 100 100 100 100 100 100 100 100 100 100 100 100 100 100 100 99 60 14 5 14 90
100 100 100 100 100 100 100 100 100 100 100 100 100 100 100 100 100 100 100 100 100 100 100 100 100 99 96 100 100 100 100 100 100 48 45 92 26 59 35 6 5 26 5
100 100 100 100 100 100 100 100 100 100 100 100 100 100 100 100 100 100 100 100 100 100 100 100 100 100 100 100 100 100 100 64 48 65 47 5 5 5 5 5 2 3 0
100 100 100 100 100 100 100 100 100 100 100 100 100 100 100 100 100 100 100 100 100 79 100 100 94 100 100 100 28 28 22 62 61 19 5 28 20 66 81 8 3 0 0

GFSMA_prec_cloud_114.txt.gz
Cloud_Cover
100 100 100 100 97 100 100 100 98 50 71 73 100 96 100 100 96 100 98 100 100 100 100 100 100 100 100 100 100 100 100 99 23 7 81 15 19 89 15 30 100 100 48
100 100 100 100 100 100 100 100 99 100 83 66 82 97 100 100 84 69 70 100 100 100 100 92 100 100 100 100 100 100 88 86 86 16 71 14 55 25 6 63 56 48 92
100 100 100 100 100 100 97 99 98 100 100 100 65 65 43 46 98 70 100 100 100 100 99 100 99 100 100 100 100 100 85 95 85 100 93 67 100 64 92 100 100 100 100
100 100 100 100 100 100 100 100 40 100 100 69 39 74 10 61 49 46 64 40 58 99 97 100 100 97 100 100 82 98 74 72 100 100 99 100 70 97 100 100 100 100 53
100 100 100 100 100 100 92 100 94 100 85 14 100 54 82 37 40 40 10 97 100 100 100 100 91 100 44 37 86 94 100 100 100 100 100 60 65 67 66 100 100 30 48
100 100 100 100 100 100 98 93 80 100 18 6 15 84 91 78 100 36 5 14 100 100 100 100 100 100 100 100 100 100 100 100 100 99 96 100 87 21 96 100 99 84 100
100 100 100 100 100 100 100 100 100 100 91 5 24 96 99 100 100 46 14 52 100 100 100 100 100 100 100 100 100 100 100 100 100 100 100 100 24 5 89 100 51 100 100
100 100 100 100 100 100 100 100 100 100 99 97 5 54 95 91 100 90 42 36 96 100 100 100 100 100 100 100 100 100 100 100 38 84 70 98 18 54 93 100 93 100 100
100 100 100 100 100 100 100 100 100 100 99 100 96 49 100 100 100 70 67 63 100 100 100 100 100 100 100 100 100 100 100 100 88 93 100 5 16 98 100 100 100 100 88
100 100 100 100 100 100 100 100 100 99 95 65 96 100 100 100 99 100 74 72 100 100 100 100 100 100 100 100 100 100 77 64 98 100 100 97 71 100 100 100 100 100 100
100 100 100 100 100 100 100 100 100 94 100 100 100 100 100 100 100 100 99 84 100 100 100 100 100 100 100 100 100 100 89 86 90 100 100 100 100 100 100 100 100 100 100
100 100 100 100 100 100 100 100 100 100 100 100 100 100 100 97 100 82 97 100 100 100 100 100 100 100 100 100 100 100 100 98 100 100 100 100 100 100 100 100 100 100 100
100 100 100 100 100 100 100 100 100 99 100 100 100 100 100 100 100 100 100 100 100 100 100 100 100 100 100 100 100 100 100 100 100 100 100 100 98 49 100 63 100 100 100
100 100 100 100 100 100 100 100 100 100 100 100 100 100 100 100 100 100 100 100 100 100 100 100 100 100 100 100 100 100 100 100 100 100 100 96 54 100 100 100 100 100 100
100 100 100 100 100 100 100 100 100 100 100 100 100 100 100 100 100 100 100 100 100 100 100 100 100 100 100 100 100 100 100 100 100 100 100 100 100 100 100 100 100 100 100
100 100 100 100 100 100 100 100 100 100 100 100 100 100 100 100 100 100 100 100 100 100 100 100 100 100 100 100 100 100 100 100 100 100 100 100 100 100 100 100 100 100 100
100 100 100 100 100 100 100 100 100 100 100 100 100 100 100 100 100 100 100 100 100 100 100 100 100 100 100 100 100 100 100 100 100 100 100 100 100 100 100 100 100 100 100
100 100 100 100 100 100 100 100 100 100 100 100 100 100 100 100 100 100 100 100 100 100 100 100 100 100 100 100 100 100 100 100 100 100 100 100 100 100 100 100 100 100 100
100 100 100 100 100 100 100 100 100 100 100 100 100 100 100 100 100 100 100 100 100 100 100 100 100 100 100 100 100 100 100 100 100 100 100 100 100 100 100 100 100 100 87
100 100 100 100 100 100 100 100 100 100 100 100 100 100 100 100 100 100 100 100 100 100 100 100 100 100 100 100 100 100 100 100 100 100 100 100 100 100 100 100 100 100 100
100 100 100 100 100 100 100 100 100 100 100 100 100 100 100 100 100 100 100 100 100 100 100 100 100 100 100 100 100 100 100 100 100 100 100 100 98 100 100 100 90 100 100
100 100 100 100 100 100 100 100 100 100 100 100 100 100 100 100 100 100 100 100 100 100 100 100 100 100 100 100 100 100 100 100 100 82 100 100 100 100 100 100 100 100 100
100 100 100 100 100 100 100 100 100 100 100 100 100 100 100 100 100 100 100 100 100 100 100 100 100 100 100 100 99 99 92 97 45 47 100 100 100 100 100 100 100 100 99
100 100 100 100 100 100 100 100 100 100 100 100 100 100 100 100 100 100 100 100 100 100 100 100 100 100 100 100 90 96 99 100 100 82 34 97 94 100 85 15 7 5 5
100 100 100 100 100 100 100 100 100 100 100 100 100 100 100 100 100 100 100 100 100 100 100 100 100 100 100 100 87 98 100 98 79 92 70 20 5 13 7 21 5 5 5
100 100 100 100 100 100 100 100 100 100 100 100 100 100 100 100 100 100 100 100 100 100 100 100 100 100 100 100 100 100 100 100 99 98 100 100 100 100 98 15 3 5 5

GFSMA_prec_cloud_117.txt.gz
Cloud_Cover
100 100 100 100 97 100 99 100 95 97 91 90 86 85 85 97 72 99 100 100 100 97 97 100 100 100 100 100 100 100 100 100 100 100 100 100 73 69 23 5 81 100 89
100 100 100 100 100 100 100 90 100 100 100 100 13 80 82 94 98 99 100 100 100 99 97 100 100 100 100 100 100 100 100 100 100 100 90 28 77 74 62 53 100 87 100
100 100 100 100 100 100 100 100 98 95 100 98 50 62 66 100 79 85 99 100 100 100 100 100 100 93 100 100 100 100 100 100 100 100 87 98 100 99 90 100 100 99 100
100 100 100 100 100 100 100 100 99 100 100 100 51 64 95 99 70 41 57 84 67 88 94 100 57 62 85 87 100 100 100 100 100 100 100 100 100 100 100 100 96 93 100
100 100 100 100 100 100 100 100 100 99 100 100 85 73 97 99 74 90 54 13 78 7 12 81 88 84 76 100 92 100 100 100 100 100 100 100 100 100 100 100 93 100 5
100 100 100 100 100 100 100 100 100 48 100 100 70 88 98 30 26 91 25 5 77 68 70 83 100 84 100 100 100 98 91 100 100 100 100 100 100 97 97 100 100 99 6
100 100 100 100 100 100 100 100 93 98 100 100 80 85 74 13 51 74 100 28 98 91 71 97 100 100 100 100 100 100 100 100 100 100 100 100 100 100 81 100 100 50 65
100 100 100 100 100 100 100 100 99 92 100 83 95 100 100 74 57 90 84 81 77 93 56 64 91 100 100 93 100 100 100 100 100 100 100 100 100 95 100 100 100 48 8
100 100 100 100 100 100 100 100 100 100 100 86 99 100 83 84 100 100 87 75 100 74 83 76 100 100 100 100 100 100 100 100 100 100 100 79 38 33 42 64 98 100 100
100 100 100 100 100 100 100 100 100 100 100 100 98 99 79 98 95 100 99 86 100 100 99 100 100 89 100 100 100 100 100 100 100 100 95 38 16 92 100 100 100 100 84
100 100 100 100 100 100 100 100 100 100 100 100 100 100 100 100 83 96 100 100 100 100 100 100 100 99 100 100 100 100 100 100 99 100 100 100 100 100 100 100 100 100 100
100 100 100 100 100 100 100 100 100 100 100 100 100 100 99 99 100 100 100 100 100 99 100 96 100 100 100 100 100 100 100 100 100 100 100 100 99 67 100 100 100 100 100
100 100 100 100 100 100 100 100 100 100 100 100 100 100 100 100 100 100 97 100 99 100 94 99 97 100 100 100 100 100 100 100 100 100 100 100 98 100 100 100 100 100 100
100 100 100 100 100 100 100 100 100 100 100 100 100 100 97 100 100 100 100 100 100 100 100 100 100 100 100 100 100 100 100 100 100 100 100 100 100 100 100 100 100 100 100
100 100 100 100 100 100 100 100 100 100 100 100 100 100 100 100 100 100 100 100 100 100 100 100 100 100 100 100 100 100 100 100 100 100 100 100 100 100 100 100 100 100 100
100 100 100 100 100 100 100 100 100 100 100 100 100 100 100 100 100 100 100 100 100 100 100 100 100 100 100 100 100 100 100 100 100 100 100 100 100 100 100 100 100 100 100
100 100 100 100 100 100 100 100 100 100 100 100 100 100 100 100 100 100 100 100 100 100 100 100 100 100 100 100 100 100 100 100 100 100 100 100 100 100 100 100 100 100 100
100 100 100 100 100 100 100 100 100 100 100 100 100 100 100 100 100 100 100 100 100 100 100 100 100 100 100 100 100 100 100 100 100 100 100 100 100 100 100 100 100 100 100
100 100 100 100 100 100 100 100 100 100 100 100 100 100 100 100 100 100 100 100 100 100 100 100 100 100 100 100 100 100 100 100 100 100 100 100 100 100 100 100 100 100 100
100 100 100 100 100 100 100 100 100 100 100 100 100 100 100 100 100 100 100 100 100 100 100 100 100 100 100 100 100 100 100 100 100 100 100 100 100 100 100 100 98 98 80
100 100 100 100 100 100 100 100 100 100 100 100 100 100 100 100 100 100 100 100 100 100 100 100 100 100 100 100 100 100 100 100 100 100 100 100 100 88 79 95 81 100 73
100 100 100 100 100 100 100 100 100 100 100 100 100 100 100 100 100 100 100 100 100 100 100 100 100 100 100 100 100 100 100 100 100 100 100 100 54 99 95 100 77 24 5
100 100 100 100 100 100 100 100 100 100 100 100 100 100 100 100 100 100 100 100 100 100 100 100 100 100 100 100 100 100 100 96 87 79 100 100 100 99 100 100 100 100 86
100 100 100 100 100 100 100 100 100 100 100 100 100 100 100 100 100 100 100 100 100 100 100 100 100 100 100 100 100 100 99 100 93 58 100 100 100 100 100 100 100 100 98
100 100 100 100 100 100 100 100 100 100 100 100 100 100 100 100 100 100 100 100 100 100 100 100 100 100 100 100 100 100 100 100 100 100 97 100 100 100 82 100 100 100 100
100 100 100 100 100 100 100 100 100 100 100 100 100 100 100 100 100 100 100 100 100 100 100 100 100 100 100 100 100 100 100 100 100 100 100 100 100 100 100 100 100 100 100

GFSMA_prec_cloud_120.txt.gz
Cloud_Cover
100 100 100 72 100 100 100 100 100 99 71 81 100 95 36 25 58 100 100 100 100 91 100 100 100 100 100 100 100 100 100 100 100 100 100 100 100 100 77 92 90 99 28
96 100 100 98 100 100 100 100 100 98 50 65 100 52 48 54 100 94 27 100 100 98 100 100 100 100 100 100 100 100 100 100 100 100 100 100 100 87 100 90 100 98 94
82 100 100 100 100 100 100 100 100 100 100 99 99 99 100 63 100 75 83 100 100 100 100 100 100 100 100 100 100 100 100 100 100 100 100 100 100 100 99 99 98 100 100
92 98 100 100 100 100 100 100 97 97 100 100 100 98 30 100 87 72 83 97 98 100 100 100 100 100 92 49 82 98 100 100 100 100 100 100 100 100 92 100 100 100 100
100 100 100 100 100 100 100 100 100 100 100 100 100 97 61 94 100 100 100 98 76 93 76 100 100 75 80 80 40 97 100 100 100 100 100 100 100 100 100 100 100 100 100
100 100 100 100 100 100 100 100 100 100 100 100 100 100 95 100 100 100 85 100 99 72 63 93 93 77 34 94 100 100 100 100 100 100 100 100 100 100 100 100 100 100 100
100 100 100 100 100 100 100 100 100 100 100 94 100 100 100 97 90 100 100 96 71 92 52 64 98 100 100 100 100 100 100 100 100 100 100 100 100 100 100 100 100 100 100
95 93 100 100 100 100 100 100 100 100 100 100 100 73 100 99 100 99 100 100 48 79 86 100 76 81 60 97 100 100 100 100 100 100 100 100 100 100 100 100 100 100 100
99 100 100 100 100 100 100 100 100 100 100 100 100 100 100 98 99 100 99 97 59 88 34 98 99 97 99 100 100 100 100 100 100 100 100 100 100 100 100 100 100 85 100
84 98 100 100 100 100 100 100 100 100 97 90 100 100 100 95 82 100 98 83 55 70 66 97 100 100 100 83 78 97 100 100 100 100 100 100 100 100 100 99 100 100 90
72 100 100 100 100 100 100 100 100 100 100 100 100 100 100 97 100 99 99 100 67 55 76 100 100 98 97 61 52 69 100 100 100 100 100 100 100 96 100 94 100 80 60
100 100 100 100 100 100 100 100 100 100 100 100 100 100 100 100 100 100 100 100 95 71 100 100 100 86 62 12 65 72 99 100 100 96 99 98 100 100 100 100 100 100 100
100 100 100 100 100 100 100 100 100 100 100 100 100 100 100 100 100 100 100 100 100 100 100 100 100 86 93 89 86 100 100 100 85 100 100 100 100 100 100 100 100 100 100
100 100 100 100 100 100 100 100 100 100 100 100 100 100 100 100 100 100 100 100 92 94 100 100 100 100 100 99 100 100 100 100 100 100 100 100 100 100 100 100 100 100 100
100 100 100 100 100 100 100 100 100 100 100 100 100 100 100 100 100 100 100 100 100 100 100 100 100 86 100 100 100 100 100 100 100 100 100 100 100 100 100 100 100 100 100
100 100 100 100 100 100 100 100 100 100 100 100 100 100 100 100 100 100 100 100 100 100 100 100 100 100 100 100 100 100 99 100 100 100 100 100 100 100 100 100 100 100 100
98 100 100 100 100 100 100 100 100 100 100 100 100 100 100 100 100 100 100 100 100 100 100 100 100 100 100 100 100 100 100 100 100 100 100 100 100 100 100 100 100 100 100
67 100 100 100 100 100 100 100 100 100 100 100 100 100 100 100 100 100 100 100 100 100 100 100 100 100 100 100 100 100 100 100 100 100 100 100 100 100 100 100 100 100 100
88 99 100 100 100 100 100 100 100 100 100 100 100 100 100 100 100 100 100 100 100 100 100 100 100 100 100 100 100 100 100 100 100 100 100 100 100 100 100 100 100 100 100
100 100 100 100 100 100 100 100 100 100 100 100 100 100 100 100 100 100 100 100 100 100 100 100 100 100 100 100 100 100 100 100 100 100 100 100 100 100 100 100 100 96 54
93 100 100 99 100 100 100 100 100 100 100 100 100 100 100 100 100 100 100 100 100 100 100 100 100 100 100 100 100 100 100 100 100 100 100 100 100 100 100 96 25 27 5
100 100 100 100 100 100 100 100 100 100 100 100 100 100 100 100 100 100 100 100 100 100 100 100 100 100 100 100 100 100 100 100 100 100 100 100 100 100 100 91 35 89 100
100 100 100 100 100 100 100 100 100 100 100 100 100 100 100 100 100 100 100 100 100 100 100 100 100 100 100 100 100 100 100 100 100 100 100 100 93 100 100 98 100 100 100
100 100 100 100 100 100 100 100 100 100 100 100 100 100 100 100 100 100 100 100 100 100 100 100 100 100 100 100 100 100 100 100 100 100 100 100 100 100 100 100 100 100 100
100 100 100 100 100 100 100 100 100 100 100 100 100 100 100 100 100 100 100 100 100 100 100 100 100 100 100 100 100 100 100 100 100 99 100 100 100 100 100 100 100 100 100
100 100 100 100 100 100 100 100 100 100 100 100 100 100 100 100 100 100 100 100 100 100 100 100 100 100 100 100 100 100 100 100 100 100 100 99 95 100 100 100 100 100 100

GFSMA_prec_cloud_123.txt.gz
Cloud_Cover
13 13 67 100 100 94 100 100 100 100 100 86 89 73 94 81 9 43 13 50 97 47 64 100 92 100 100 100 100 100 100 100 100 100 100 100 100 100 100 100 100 100 100
31 34 49 100 100 100 100 100 100 100 100 90 89 78 70 45 5 27 15 100 100 100 100 100 100 100 100 100 100 100 100 100 100 100 100 100 100 100 100 100 100 100 100
26 65 17 100 100 100 100 100 100 100 100 91 93 97 99 24 27 23 100 100 100 100 100 100 100 100 100 100 100 100 100 100 100 100 100 92 100 100 100 100 100 100 100
46 37 36 100 93 100 100 100 100 100 100 100 87 99 86 78 39 98 97 54 84 100 76 100 100 100 100 100 100 59 99 100 100 100 100 100 100 100 100 100 100 100 100
46 70 30 57 87 100 100 100 100 100 100 100 88 100 100 81 100 44 99 13 98 100 100 100 100 100 100 72 96 100 100 98 100 100 100 100 100 100 100 100 100 100 100
100 94 100 85 82 100 100 100 100 100 100 100 100 99 100 99 84 100 100 100 100 100 100 100 94 74 78 71 73 96 100 100 100 100 100 100 100 100 100 100 100 100 100
58 69 100 100 100 100 100 100 100 100 100 100 100 98 100 100 95 100 100 100 100 100 100 94 55 100 100 100 88 100 100 100 100 100 100 100 100 100 100 100 100 100 100
100 40 100 100 100 100 100 100 100 100 100 100 100 93 100 100 100 100 79 96 100 93 100 58 38 51 24 70 61 86 100 99 100 100 100 100 100 100 100 100 100 100 100
95 65 91 100 100 100 100 100 100 100 100 100 100 100 100 98 100 99 78 18 91 82 90 22 24 52 77 44 62 70 92 64 100 100 100 100 100 100 100 100 100 100 100
86 100 74 71 100 100 100 100 100 100 100 100 100 100 100 100 72 100 100 94 100 99 100 91 71 85 83 100 93 96 62 68 68 63 100 100 100 100 100 100 100 100 100
99 100 44 99 100 100 100 100 100 100 100 100 100 100 100 100 93 99 65 90 62 100 100 90 8 53 100 100 100 97 83 27 9 58 85 100 59 54 99 99 100 100 100
91 100 89 81 100 100 100 100 100 100 100 100 100 100 100 93 100 100 93 54 90 100 59 50 76 93 100 100 95 100 90 78 64 61 99 100 100 100 100 100 100 100 100
100 100 96 100 100 100 100 100 100 100 100 100 100 100 100 98 100 100 100 99 100 100 100 100 52 93 100 100 100 84 72 50 100 99 99 100 100 100 100 100 100 100 100
96 100 100 100 100 100 100 100 100 100 100 100 100 100 100 100 100 100 100 100 100 100 100 100 99 100 100 100 100 100 95 100 100 100 100 100 100 100 100 100 100 100 100
76 95 100 100 100 100 100 100 100 100 100 100 100 100 100 100 100 100 100 100 100 100 100 100 100 100 100 100 100 100 99 100 100 100 100 100 100 100 100 100 100 100 100
100 87 100 100 100 100 100 100 100 100 100 100 100 100 100 100 100 100 100 100 100 100 100 100 100 100 100 100 100 100 100 100 100 100 100 100 100 100 100 100 100 100 100
88 100 100 100 100 100 100 100 100 100 100 100 100 100 100 100 100 100 100 100 100 100 100 100 100 100 100 100 100 100 100 100 100 100 100 100 100 100 100 100 100 100 100
84 80 100 100 100 100 100 100 100 100 100 100 100 100 100 100 100 100 100 100 100 100 100 100 100 100 100 100 100 100 100 100 100 100 100 100 100 100 100 100 100 100 100
99 57 29 100 100 100 100 100 100 100 100 100 100 100 100 100 100 100 100 100 100 100 100 100 100 100 100 100 100 100 100 100 100 100 100 100 100 100 100 100 100 100 100
99 91 96 99 100 100 100 100 100 100 100 100 100 100 100 100 100 100 100 100 100 100 100 100 100 100 100 100 100 100 100 100 100 100 100 100 100 100 100 100 100 100 100
100 90 87 83 100 100 100 100 100 100 100 100 100 100 100 100 100 100 100 100 100 100 100 100 100 100 100 100 100 100 100 100 100 100 100 100 100 100 100 100 100 100 100
98 91 100 100 100 100 100 100 100 100 100 100 100 100 100 100 100 100 100 100 100 100 100 100 100 100 100 100 100 100 100 100 100 100 100 100 100 100 100 98 78 92 57
100 100 100 100 100 100 100 100 100 100 100 100 100 100 100 100 100 100 100 100 100 100 100 100 100 100 100 100 100 100 100 100 100 100 100 100 100 100 100 95 100 100 92
100 100 100 100 100 100 100 100 100 100 100 100 100 100 100 100 100 100 100 100 100 100 100 100 100 100 100 100 100 100 100 100 100 100 100 100 98 100 100 83 87 84 99
100 100 100 100 100 100 100 100 100 100 100 100 100 100 100 100 100 100 100 100 100 100 100 100 100 100 100 100 100 100 100 100 100 100 100 100 100 100 100 100 100 100 100
100 100 100 100 100 100 100 100 100 100 100 100 100 100 100 100 100 100 100 100 100 100 100 100 100 100 100 100 100 100 100 100 100 100 100 94 100 100 100 100 100 100 100